     2              OBSERVATION DATA    GPS                 RINEX VERSION / TYPE
teqc 1997Jul24 19970814                                     PGM / RUN BY / DATE
                                                            COMMENT
BIT 2 OF LLI FLAGS DATA COLLECTED UNDER A-S CONDITION       COMMENT
BIT 2 OF LLI FLAGS DATA COLLECTED UNDER A-S CONDITION       COMMENT
Original Marker Name: 0510                                  COMMENT
Campaign Name: HPGN 1991                                    COMMENT
4-Character Station Name: 0510                              COMMENT
6-Character Antenna Code: TRMSST                            COMMENT
Vertical Measurement Point: TGP                             COMMENT
Vertical Offset to Rinex Ref. Point: 0.0629                 COMMENT
Radial Measurement Point: OGP                               COMMENT
Radial Offset to Rinex Ref. Point: 0.2413                   COMMENT
Antenna Height from Field Measurement: 1.7320 m             COMMENT
Original XYZ: -2640302.0600 -4426325.1056 3745298.0460      COMMENT
New XYZ position is based on association with SCEC monument COMMENT
E1F1Q0T9+0011. Position of that monument is believed to be  COMMENT
valid to within 1 m horizontally; vertical accuracy         COMMENT
should be no worse than 3-times this value.                 COMMENT
                                                            COMMENT
Revised Rinex header created by UCSD GPS archive for        COMMENT
GSAC on 19-Apr-1999 (1999:109) 06:44:22 GMT                 COMMENT
For assistance contact dagnew@ucsd.edu or hjohnson@ucsd.edu COMMENT
                                                            COMMENT
HPGN CALIF STA 05-10 1990                                   MARKER NAME
unknown NATIONAL GEODETIC SURVEY                            OBSERVER / AGENCY
486 TRIMBLE 4000 SST NP 4.30 / SP 4.20                      REC # / TYPE / VERS
17 TR 4000SST L1/L2 GEO                                     ANT # / TYPE
 -2640303.0000 -4426324.0000  3745291.0000                  APPROX POSITION XYZ
        1.6522        0.0000        0.0000                  ANTENNA: DELTA H/E/N
     1     1     0                                          WAVELENGTH FACT L1/2
     3    C1    L1    L2                                    # / TYPES OF OBSERV
     0                                                      INTERVAL
  1991     5    14    18    15   45.000000                  TIME OF FIRST OBS
  1991     5    15     0    19   60.000000                  TIME OF LAST OBS
     0                                                      # OF SATELLITES
                                                            END OF HEADER
 91  5 14 18 15 45.0000000  0  4G18G11G19G 2
  20689680.3134         -0.98258        -0.12872
  24478479.0784         -0.18456        -0.15971
  20916531.1334         -0.14457        -0.15572
  24382643.1094         -0.54155        -0.44771
 91  5 14 18 16  0.0000000  0  4G18G11G19G 2
  20690940.469        6623.021 8      5161.39022
  24469808.5864     -45574.00246    -35512.02861
  20914348.2734     -11474.61347     -8941.30862
  24371568.531      -58195.384 5    -45346.93821
 91  5 14 18 16 15.0000000  0  4G18G11G19G 2
  20692218.156       13338.020 8     10393.80822
  24461144.9064     -91097.76646    -70984.94461
  20912169.805      -22915.475 7    -17856.27322
  24360496.813     -116373.608 5    -90680.51221
 91  5 14 18 16 30.0000000  0  4G18G11G19G 2
  20693512.633       20138.753 8     15693.03722
  24452488.383     -136576.354 6   -106422.64821
  20910004.234      -34328.067 7    -26749.21822
  24349429.2664    -174540.36845   -136005.13361
 91  5 14 18 16 45.0000000  0  4G18G11G19G 2
  20694825.2504      27032.91748     21065.07262
  24443844.4384    -182001.51045   -141818.73061
  20907833.4304     -45704.38547    -35613.89462
  24338364.445     -232687.556 5   -181314.52521
 91  5 14 18 17  0.0000000  0  4G18G11G19G 2
  20696154.875       34024.968 8     26513.37822
  24435212.148     -227368.323 5   -177169.28621
  20905678.6644     -57039.91947    -44446.78762
  24327301.492     -290810.505 5   -226605.02921
 91  5 14 18 17 15.0000000  0  4G18G11G19G 2
  20697504.023       41107.206 8     32031.95922
  24426587.4534    -272684.31545   -212480.31061
  20903524.813      -68343.019 7    -53254.40722
  24316246.305     -348916.851 5   -271882.59321
 91  5 14 18 17 30.0000000  0  4G18G11G19G 2
  20698869.1954      48288.51048     37627.74062
  24417976.758     -317940.250 5   -247744.51321
  20901384.9844     -79604.74647    -62029.78962
  24305192.2584    -406997.46545   -317140.12361
 91  5 14 18 17 45.0000000  0  4G18G11G19G 2
  20700255.8984      55574.76448     43305.30262
  24409378.133     -363129.742 5   -282956.92421
  20899249.188      -90819.044 7    -70768.20822
  24294148.758     -465046.176 6   -362372.78821
 91  5 14 18 18  0.0000000  0  4G18G11G19G 2
  20701661.063       62957.328 8     49057.90222
  24400785.4534    -408261.14245   -318124.09261
  20897124.789     -101994.734 7    -79476.55022
  24283104.383     -523071.455 5   -407587.20921
 91  5 14 18 18 15.0000000  0  4G18G11G19G 2
  20703084.539       70438.757 8     54887.54522
  24392210.8524    -453331.31445   -353243.56761
  20895003.3444    -113129.10747    -88152.69662
  24272068.172     -581070.508 5   -452781.19821
 91  5 14 18 18 30.0000000  0  4G18G11G19G 2
  20704527.609       78020.556 8     60795.39422
  24383648.2034    -498338.40745   -388313.86561
  20892894.2584    -124220.93747    -96795.69062
  24261037.344     -639041.635 5   -497953.42121
 91  5 14 18 18 45.0000000  0  4G18G11G19G 2
  20705988.648       85701.120 8     66780.20222
  24375095.7664    -543283.47945   -423335.81961
  20890791.703     -135271.715 7   -105406.69722
  24250011.9304    -696986.30545   -543105.03761
 91  5 14 18 19  0.0000000  0  4G18G11G19G 2
  20707468.594       93474.128 8     72837.04122
  24366551.8444    -588172.44945   -458314.10161
  20888694.602     -146287.826 7   -113990.69122
  24238988.8834    -754910.72345   -588240.88361
 91  5 14 18 19 15.0000000  0  4G18G11G19G 2
  20708965.875      101341.277 8     78967.23822
  24358019.711     -633003.390 5   -493247.14921
  20886604.2114    -157267.72347   -122546.46062
  24227969.2034    -812813.10546   -633359.57561
 91  5 14 18 19 30.0000000  0  4G18G11G19G 2
  20710480.766      109304.573 8     85172.35422
  24349501.7734    -677774.00345   -528133.17261
  20884523.7114    -168209.39147   -131072.44862
  24216958.063     -870691.192 5   -678459.32721
 91  5 14 18 19 45.0000000  0  4G18G11G19G 2
  20712015.063      117364.322 8     91452.62722
  24340993.3674    -722483.46545   -562971.59261
  20882447.3984    -179112.63547   -139568.48862
  24205945.898     -928544.430 5   -723539.71721
 91  5 14 18 20  0.0000000  0  4G18G11G19G 2
  20713567.922      125523.667 8     97810.51222
  24332499.797     -767128.298 6   -597759.62121
  20880381.4454    -189974.40847   -148032.21962
  24194942.648     -986369.510 5   -768598.17921
 91  5 14 18 20 15.0000000  0  4G18G11G19G 2
  20715137.680      133778.481 8    104242.78122
  24324014.0234    -811711.92446   -632499.94461
  20878319.891     -200798.502 7   -156466.59222
  24183943.320    -1044170.062 5   -813637.51521
 91  5 14 18 20 30.0000000  0  4G18G11G19G 2
  20716727.867      142130.434 8    110750.74922
  24315540.617     -856232.245 6   -667190.99621
  20876270.6804    -211583.47447   -164870.47462
  24172951.055    -1101944.290 5   -858656.35821
 91  5 14 18 20 45.0000000  0  4G18G11G19G 2
  20718335.023      150577.876 8    117333.12022
  24307080.258     -900690.669 6   -701833.78421
  20874222.281     -222331.062 7   -173245.22922
  24161960.992    -1159693.855 5   -903655.99721
 91  5 14 18 21  0.0000000  0  4G18G11G19G 2
  20719961.148      159120.002 8    123989.27822
  24298632.773     -945087.936 6   -736428.90021
  20872183.4844    -233042.49647   -181591.81362
  24150973.500    -1217419.558 5   -948637.03721
 91  5 14 18 21 15.0000000  0  4G18G11G19G 2
  20721602.969      167753.227 8    130716.41322
  24290195.555     -989426.772 6   -770978.51121
  20870151.758     -243720.787 7   -189912.57122
  24139993.367    -1275124.453 5   -993601.85721
 91  5 14 18 21 30.0000000  0  4G18G11G19G 2
  20723264.578      176478.941 8    137515.61722
  24281769.234    -1033705.846 6   -805481.56021
  20868130.898     -254365.002 7   -198206.77922
  24129017.305    -1332807.216 5  -1038549.45621
 91  5 14 18 21 45.0000000  0  4G18G11G19G 2
  20724941.867      185298.946 8    144388.30022
  24273356.508    -1077922.587 6   -839936.01521
  20866108.656     -264972.980 7   -206472.74622
  24118044.539    -1390465.617 5  -1083478.06421
 91  5 14 18 22  0.0000000  0  4G18G11G19G 2
  20726639.063      194214.795 8    151335.66822
  24264951.219    -1122075.137 5   -874340.45921
  20864101.281     -275543.513 7   -214709.54422
  24107075.461    -1448097.875 5  -1128386.30221
 91  5 14 18 22 15.0000000  0  4G18G11G19G 2
  20728354.203      203228.356 8    158359.17522
  24256565.555    -1166161.131 6   -908693.05921
  20862092.320     -286074.579 7   -222915.57922
  24096119.2814   -1505701.90646  -1173272.56061
 91  5 14 18 22 30.0000000  0  4G18G11G19G 2
  20730087.742      212338.027 8    165457.57422
  24248186.617    -1210181.861 5   -942994.79021
  20860098.250     -296568.030 7   -231092.31222
  24085160.8204   -1563278.96445  -1218137.79961
 91  5 14 18 22 45.0000000  0  4G18G11G19G 2
  20731840.016      221547.991 8    172634.12222
  24239823.688    -1254132.732 6   -977242.06721
  20858107.156     -307019.734 7   -239236.51222
  24074206.7894   -1620824.86446  -1262978.76561
 91  5 14 18 23  0.0000000  0  4G18G11G19G 2
  20733609.992      230850.041 8    179882.42622
  24231469.6724   -1298021.69945  -1011441.15061
  20856125.523     -317437.940 7   -247354.61122
  24063262.617    -1678347.740 6  -1307801.79321
 91  5 14 18 23 15.0000000  0  4G18G11G19G 2
  20735399.398      240247.831 8    187205.33122
  24223132.352    -1341844.673 5  -1045588.79221
  20854148.281     -327818.871 7   -255443.66122
  24052321.023    -1735843.592 6  -1352603.77621
 91  5 14 18 23 30.0000000  0  4G18G11G19G 2
  20737206.516      249747.301 8    194607.46622
  24214805.0704   -1385595.00945  -1079679.80661
  20852184.719     -338156.537 7   -263499.00622
  24041386.6564   -1793306.09446  -1397379.77961
 91  5 14 18 23 45.0000000  0  4G18G11G19G 2
  20739033.227      259346.733 8    202087.49222
  24206493.875    -1429274.087 5  -1113715.33021
  20850222.867     -348452.782 7   -271522.07222
  24030458.383    -1850737.035 6  -1442131.18821
 91  5 14 18 24  0.0000000  0  4G18G11G19G 2
  20740877.367      269033.327 8    209635.43622
  24198193.0394   -1472894.39945  -1147705.05161
  20848271.602     -358720.479 7   -279522.89522
  24019533.3284   -1908149.14246  -1486867.91961
 91  5 14 18 24 15.0000000  0  4G18G11G19G 2
  20742739.219      278821.078 8    217262.20822
  24189908.063    -1516441.254 5  -1181637.52621
  20846322.992     -368945.397 7   -287490.38022
  24008614.4144   -1965527.75346  -1531578.56461
 91  5 14 18 24 30.0000000  0  4G18G11G19G 2
  20744621.953      288710.065 8    224967.86122
  24181633.9844   -1559914.43346  -1215512.58461
  20844390.242     -379127.685 7   -295424.65622
  23997700.3984   -2022872.90446  -1576263.13561
 91  5 14 18 24 45.0000000  0  4G18G11G19G 2
  20746520.484      298687.846 8    232742.70122
  24173371.2274   -1603326.28845  -1249339.86361
  20842454.078     -389280.070 7   -303335.62422
  23986795.3674   -2080197.04046  -1620931.32961
 91  5 14 18 25  0.0000000  0  4G18G11G19G 2
  20748437.539      308764.574 8    240594.65022
  24165123.258    -1646665.780 5  -1283110.76221
  20840534.297     -399391.879 7   -311214.97722
  23975891.977    -2137489.226 6  -1665574.64021
 91  5 14 18 25 15.0000000  0  4G18G11G19G 2
  20750373.992      318935.970 8    248520.36722
  24156889.8054   -1689936.91145  -1316828.37661
  20838613.461     -409467.655 7   -319066.25222
  23964993.438    -2194753.825 6  -1710196.46221
 91  5 14 18 25 30.0000000  0  4G18G11G19G 2
  20752326.648      329201.284 8    256519.26322
  24148670.0784   -1733139.97045  -1350492.95261
  20836704.352     -419508.101 7   -326890.00322
  23954102.4224   -2251991.25746  -1754797.11361
 91  5 14 18 25 45.0000000  0  4G18G11G19G 2
  20754297.813      339561.377 8    264592.01722
  24140461.750    -1776273.602 6  -1384103.45921
  20834798.930     -429512.336 7   -334685.52822
  23943216.7504   -2309200.52746  -1799375.82861
 91  5 14 18 26  0.0000000  0  4G18G11G19G 2
  20756288.742      350021.144 8    272742.43423
  24132268.648    -1819332.632 6  -1417655.76621
  20832904.359     -439475.632 7   -342449.15722
  23932334.3914   -2366376.52146  -1843928.59361
 91  5 14 18 26 15.0000000  0  4G18G11G19G 2
  20758298.406      360581.760 8    280971.44022
  24124089.3284   -1862315.45946  -1451148.74961
  20831015.148     -449396.806 7   -350179.96422
  23921463.383    -2423517.894 6  -1888454.40821
 91  5 14 18 26 30.0000000  0  4G18G11G19G 2
  20760325.922      371234.299 8    289272.06823
  24115923.711    -1905230.713 6  -1484589.07021
  20829138.781     -459284.947 7   -357885.02722
  23910594.6334   -2480633.34946  -1932960.02361
 91  5 14 18 26 45.0000000  0  4G18G11G19G 2
  20762370.250      381980.497 8    297645.68623
  24107767.453    -1948075.792 6  -1517974.67821
  20827256.508     -469138.029 7   -365562.76722
  23899730.609    -2537720.645 6  -1977443.71021
 91  5 14 18 27  0.0000000  0  4G18G11G19G 2
  20764432.773      392818.995 8    306091.22123
  24099628.469    -1990851.968 6  -1551306.63221
  20825390.3444    -478957.52747   -373214.32862
  23888871.422    -2594780.982 6  -2021906.39321
 91  5 14 18 27 15.0000000  0  4G18G11G19G 2
  20766514.859      403757.428 8    314614.62623
  24091502.164    -2033551.354 6  -1584578.73821
  20823527.9844    -488735.81847   -380833.78062
  23878019.391    -2651806.852 6  -2066342.20421
 91  5 14 18 27 30.0000000  0  4G18G11G19G 2
  20768614.656      414790.282 8    323211.60923
  24083392.391    -2076178.888 6  -1617794.84121
  20821677.4224    -498478.56947   -388425.54062
  23867175.648    -2708803.557 6  -2110755.31021
 91  5 14 18 27 45.0000000  0  4G18G11G19G 2
  20770732.094      425921.125 7    331884.95023
  24075294.211    -2118730.787 6  -1650952.02321
  20819828.8284    -508182.37447   -395986.95062
  23856334.664    -2765767.365 6  -2155142.77621
 91  5 14 18 28  0.0000000  0  4G18G11G19G 2
  20772868.289      437144.996 7    340630.77623
  24067210.523    -2161211.169 6  -1684053.48921
  20817989.8674    -517851.91347   -403521.65762
  23845500.0704   -2822702.63346  -2199508.00161
 91  5 14 18 28 15.0000000  0  4G18G11G19G 2
  20775022.594      448466.828 7    349452.94222
  24059141.1254   -2203614.97446  -1717095.29461
  20816154.9774    -527482.43347   -411025.96162
  23834672.7344   -2879604.54646  -2243847.25461
 91  5 14 18 28 30.0000000  0  4G18G11G19G 2
  20777193.891      459881.725 8    358347.62223
  24051084.875    -2245946.540 6  -1750080.75221
  20814332.2274    -537078.64147   -418503.53162
  23823850.5394   -2936477.42546  -2288163.87561
 91  5 14 18 28 45.0000000  0  4G18G11G19G 2
  20779385.938      471392.806 8    367317.25023
  24043043.8834   -2288202.29046  -1783007.18361
  20812510.9454    -546637.24947   -425951.80362
  23813034.680    -2993318.132 6  -2332455.43621
 91  5 14 18 29  0.0000000  0  4G18G11G19G 2
  20781594.594      483001.626 7    376363.03823
  24035017.3054   -2330380.28146  -1815873.02361
  20810701.7894    -556156.65647   -433369.52862
  23802223.398    -3050124.816 6  -2376720.47121
 91  5 14 18 29 15.0000000  0  4G18G11G19G 2
  20783821.852      494703.134 8    385481.05123
  24027005.914    -2372485.364 6  -1848682.04521
  20808893.4224    -565642.10147   -440760.78762
  23791419.586    -3106902.336 6  -2420962.80621
 91  5 14 18 29 30.0000000  0  4G18G11G19G 2
  20786066.8834     506503.77348    394676.30963
  24019007.242    -2414510.609 6  -1881428.86521
  20807098.0634    -575087.17747   -448120.58662
  23780622.609    -3163644.139 6  -2465177.29621
 91  5 14 18 29 45.0000000  0  4G18G11G19G 2
  20788332.836      518409.909 7    403953.77623
  24011026.3754   -2456449.05746  -1914108.04761
  20805308.7424    -584485.50147   -455443.96562
  23769832.6414   -3220343.59446  -2509358.78261
 91  5 14 18 30  0.0000000  0  4G18G11G19G 2
  20790615.844      530413.314 7    413307.03423
  24003061.461    -2498308.783 6  -1946725.88421
  20803529.063     -593845.409 7   -462737.40722
  23759049.6564   -3277008.88646  -2553513.67961
 91  5 14 18 30 15.0000000  0  4G18G11G19G 2
  20792920.289      542516.865 7    422738.33122
  23995114.695    -2540086.374 6  -1979279.74621
  20801753.852     -603163.921 7   -469998.60222
  23748273.008    -3333636.674 6  -2597639.32721
 91  5 14 18 30 30.0000000  0  4G18G11G19G 2
  20795241.617      554715.182 7    432243.46122
  23987174.859    -2581786.824 6  -2011773.45521
  20799990.4064    -612446.61147   -477231.86862
  23737505.352    -3390232.071 6  -2641739.75321
 91  5 14 18 30 45.0000000  0  5G18G16G11G19G 2
  20797580.953      567012.138 7    441825.46022
  24319184.5784     -41438.22945
  23979255.7034   -2623405.79746  -2044203.70761
  20798227.8204    -621689.42347   -484434.06762
  23726743.102    -3446791.108 6  -2685811.82721
 91  5 14 18 31  0.0000000  0  5G18G16G11G19G 2
  20799941.484      579407.556 7    451484.17923
  24311317.6644     -82776.41945
  23971351.039    -2664942.851 6  -2076570.12221
  20796478.4224    -630892.39347   -491605.22362
  23715987.063    -3503313.541 6  -2729855.39421
 91  5 14 18 31 15.0000000  0  5G18G16G11G19G 2
  20802318.578      591907.546 7    461224.38522
  24303470.500     -124008.401 5
  23963465.242    -2706391.639 6  -2108867.75121
  20794734.3754    -640049.60147   -498740.71962
  23705236.648    -3559792.994 6  -2773865.47121
 91  5 14 18 31 30.0000000  0  5G18G16G11G19G 2
  20804716.430      604503.303 7    471039.21123
  24295642.5784    -165143.33145
  23955591.789    -2747760.636 6  -2141103.22721
  20793000.883     -649169.851 7   -505847.42422
  23694497.6954   -3616238.35146  -2817848.97161
 91  5 14 18 31 45.0000000  0  5G18G16G11G19G 2
  20807129.906      617189.408 7    480924.43922
  24287833.641     -206185.944 5        -0.32531
  23947733.1254   -2789054.72746  -2173280.31661
  20791269.461     -658258.409 7   -512929.43222
  23683760.9534   -3672654.77046  -2861809.93661
 91  5 14 18 32  0.0000000  0  5G18G16G11G19G 2
  20809563.570      629981.857 7    490892.53722
  24280040.7034    -247120.24945    -31897.21961
  23939894.023    -2830257.492 6  -2205386.24621
  20789550.758     -667299.374 7   -519974.35322
  23673031.859    -3729025.855 6  -2905735.56421
 91  5 14 18 32 15.0000000  0  5G18G16G11G19G 2
  20812019.742      642881.551 7    500944.19922
  24272275.2274    -287944.94645    -63708.69761
  23932069.7504   -2871367.54346  -2237419.95161
  20787837.445     -676291.761 7   -526981.42722
  23662315.5004   -3785350.47246  -2949624.99261
 91  5 14 18 32 30.0000000  0  5G18G16G11G19G 2
  20814494.773      655888.077 7    511079.10622
  24264528.3754    -328660.24945    -95435.02161
  23924265.7034   -2912384.88146  -2269381.37861
  20786138.188     -685235.824 7   -533950.83822
  23651604.8204   -3841628.97046  -2993478.48461
 91  5 14 18 32 45.0000000  0  5G18G16G11G19G 2
  20816986.828      668991.082 7    521289.19122
  24256800.3524    -369276.00645   -127083.63661
  23916472.6884   -2953319.50146  -2301278.39061
  20784439.617     -694142.022 7   -540890.74922
  23640905.7504   -3897871.35846  -3037303.83661
 91  5 14 18 33  0.0000000  0  5G18G16G11G19G 2
  20819499.570      682186.478 7    531571.27322
  24249090.570     -409795.803 5   -158657.54621
  23908701.484    -2994175.085 6  -2333113.79521
  20782755.367     -703014.472 7   -547804.36222
  23630207.094    -3954081.436 6  -3081104.00221
 91  5 14 18 33 15.0000000  0  5G18G16G11G19G 2
  20822029.758      695480.364 7    541930.09922
  24241395.7114    -450213.41245   -190151.90261
  23900942.7034   -3034945.07246  -2364882.53061
  20781069.688     -711847.077 7   -554686.92922
  23619518.430    -4010252.968 6  -3124874.14321
 91  5 14 18 33 30.0000000  0  5G18G16G11G19G 2
  20824575.961      708869.457 7    552363.11122
  24233725.219     -490531.935 5   -221568.92121
  23893198.219    -3075632.251 6  -2396586.70821
  20779397.500     -720642.853 7   -561540.79922
  23608834.9534   -4066388.76246  -3168616.43561
 91  5 14 18 33 45.0000000  0  5G18G16G11G19G 2
  20827142.711      722355.306 7    562871.51522
  24226074.594     -530749.647 5   -252907.46221
  23885470.6954   -3116235.02046  -2428225.13561
  20777731.406     -729400.645 7   -568365.07022
  23598163.9614   -4122487.52446  -3212329.84761
 91  5 14 18 34  0.0000000  0  5G18G16G11G19G 2
  20829725.500      735932.224 7    573450.88522
  24218438.930     -570872.028 5   -284171.70521
  23877760.664    -3156758.660 6  -2459801.87721
  20776075.063     -738126.100 7   -575164.14622
  23587492.8914   -4178554.70046  -3256018.68361
 91  5 14 18 34 15.0000000  0  5G18G16G11G19G 2
  20832327.539      749602.638 7    584103.10522
  24210819.7974    -610896.19145   -315359.37861
  23870065.195    -3197200.033 6  -2491314.51821
  20774417.797     -746816.581 7   -581935.96722
  23576830.258    -4234587.389 6  -3299680.62121
 91  5 14 18 34 30.0000000  0  5G18G16G11G19G 2
  20834948.938      763373.473 7    594833.58422
  24203224.9844    -650814.79845   -346464.80761
  23862385.258    -3237551.691 6  -2522757.27421
  20772775.297     -755465.078 7   -588675.07122
  23566176.4534   -4290578.17846  -3343309.91361
 91  5 14 18 34 45.0000000  0  5G18G16G11G19G 2
  20837586.680      777237.423 7    605636.61923
  24195644.9614    -690635.13445   -377493.69961
  23854724.5864   -3277820.74546  -2554135.64361
  20771132.977     -764078.867 7   -595387.12822
  23555529.5864   -4346534.50246  -3386912.33561
 91  5 14 18 35  0.0000000  0  5G18G16G11G19G 2
  20840242.070      791191.580 7    616509.94822
  24188088.5004    -730359.62645   -408447.88161
  23847074.586    -3318009.466 6  -2585451.44421
  20769500.102     -772660.756 7   -602074.32922
  23544886.4694   -4402458.89346  -3430489.87961
 91  5 14 18 35 15.0000000  0  5G18G16G11G19G 2
  20842916.070      805242.146 7    627458.39222
  24180547.539     -769981.724 5   -439322.26921
  23839444.7894   -3358111.27646  -2616699.50461
  20767873.563     -781204.676 7   -608731.93822
  23534250.1334   -4458344.95846  -3474037.55761
 91  5 14 18 35 30.0000000  0  5G18G16G11G19G 2
  20845609.7034     819394.67147    638486.29262
  24173029.9774    -809495.86645   -470112.58361
  23831832.1804   -3398120.39946  -2647875.33861
  20766257.922     -789705.147 7   -615355.69522
  23523624.7114   -4514186.89746  -3517550.84661
 91  5 14 18 35 45.0000000  0  5G18G16G11G19G 2
  20848321.906      833654.281 7    649597.62623
  24165532.234     -848896.645 5   -500814.48821
  23824236.7194   -3438030.99346  -2678974.40461
  20764647.6414    -798156.85947   -621941.45562
  23513009.6564   -4569979.40446  -3561025.61861
 91  5 14 18 36  0.0000000  0  5G18G16G11G19G 2
  20851054.516      848007.491 7    660781.89822
  24158052.469     -888197.157 5   -531438.28921
  23816659.578    -3477856.292 6  -2710006.98421
  20763048.930     -806573.374 7   -628499.79322
  23502396.2114   -4625735.64246  -3604472.12961
 91  5 14 18 36 15.0000000  0  5G18G16G11G19G 2
  20853802.781      862454.543 7    672039.29122
  24150594.4924    -927396.59345   -561983.37861
  23809093.367    -3517595.587 6  -2740972.57421
  20761451.828     -814954.409 7   -635030.48222
  23491795.383    -4681455.193 6  -3647890.03121
 91  5 14 18 36 30.0000000  0  5G18G16G11G19G 2
  20856572.305      877005.342 7    683377.53222
  24143152.3914    -966484.80745   -592441.72761
  23801550.063    -3557238.541 6  -2771863.08521
  20759865.523     -823290.053 7   -641525.80322
  23481200.477    -4737127.855 6  -3691271.40221
 91  5 14 18 36 45.0000000  0  5G18G16G11G19G 2
  20859360.133      891654.645 7    694792.52422
  24135736.203    -1005466.967 5   -622817.50121
  23794026.305    -3596789.969 6  -2802682.27721
  20758288.914     -831585.226 7   -647989.58522
  23470613.156    -4792758.809 6  -3734620.27721
 91  5 14 18 37  0.0000000  0  5G18G16G11G19G 2
  20862165.055      906399.199 7    706281.73322
  24128338.484    -1044346.079 5   -653112.95021
  23786518.773    -3636252.906 6  -2833432.52821
  20756718.711     -839843.425 7   -654424.56222
  23460035.211    -4848350.947 6  -3777938.89621
 91  5 14 18 37 15.0000000  0  5G18G16G11G19G 2
  20864990.391      921242.411 7    717847.82422
  24120960.016    -1083118.513 5   -683325.21921
  23779024.6724   -3675623.36346  -2864110.69061
  20755151.539     -848061.064 7   -660827.92522
  23449465.969    -4903900.528 6  -3821224.36221
 91  5 14 18 37 30.0000000  0  5G18G16G11G19G 2
  20867835.305      936190.587 7    729495.70922
  24113601.477    -1121777.272 5   -713449.00321
  23771549.8054   -3714894.53646  -2894711.50661
  20753599.109     -856231.832 7   -667194.77122
  23438903.4774   -4959400.92046  -3864471.48661
 91  5 14 18 37 45.0000000  0  5G18G16G11G19G 2
  20870699.148      951241.208 7    741223.41522
  24106267.5084   -1160324.55745   -743485.87761
  23764097.4774   -3754068.35046  -2925236.45161
  20752050.578     -864357.916 7   -673526.79922
  23428348.969    -5014854.465 6  -3907682.10421
 91  5 14 18 38  0.0000000  0  5G18G16G11G19G 2
  20873583.367      966394.053 7    753030.77722
  24098954.023    -1198760.645 5   -773436.10821
  23756659.9454   -3793144.82646  -2955685.54861
  20750513.305     -872439.828 7   -679824.40722
  23417807.4844   -5070261.29846  -3950856.31261
 91  5 14 18 38 15.0000000  0  5G18G16G11G19G 2
  20876484.820      981646.025 7    764915.37822
  24091660.7974   -1237088.29645   -803301.87561
  23749242.3524   -3832126.61346  -2986060.86661
  20748983.047     -880480.596 7   -686089.95622
  23407272.9694   -5125624.29946  -3993996.37161
 91  5 14 18 38 30.0000000  0  5G18G16G11G19G 2
  20879405.688      996998.421 7    776878.23422
  24084385.0944   -1275306.02245   -833081.94461
  23741842.5394   -3871012.01346  -3016361.07861
  20747463.195     -888478.845 7   -692322.37122
  23396745.4774   -5180941.81046  -4037100.98661
 91  5 14 18 38 45.0000000  0  5G18G16G11G19G 2
  20882349.500     1012460.759 7    788926.75422
  24077139.6334   -1313404.33545   -862768.98361
  23734460.6334   -3909791.29546  -3046578.57661
  20745948.133     -896425.151 7   -698514.31322
  23386228.8524   -5236204.38846  -4080162.78661
 91  5 14 18 39  0.0000000  0  5G18G16G11G19G 2
  20885310.781     1028023.274 7    801053.34222
  24069908.719    -1351392.303 5   -892370.06921
  23727100.6024   -3948473.46946  -3076720.43761
  20744448.930     -904328.984 7   -704673.16322
  23375722.453    -5291421.180 6  -4123188.90721
 91  5 14 18 39 15.0000000  0  5G18G16G11G19G 2
  20888292.227     1043690.178 7    813261.26322
  24062703.234    -1389265.309 5   -921881.52921
  23719759.734    -3987053.978 6  -3106783.06521
  20742948.602     -912186.145 7   -710795.64622
  23365225.9064   -5346587.72646  -4166175.86961
 91  5 14 18 39 30.0000000  0  5G18G16G11G19G 2
  20891293.156     1059462.517 7    825551.34622
  24055516.7814   -1427022.02945   -951302.40661
  23712434.9384   -4025531.42546  -3136765.38061
  20741465.867     -919995.655 7   -716880.99522
  23354737.547    -5401702.846 6  -4209122.76921
 91  5 14 18 39 45.0000000  0  5G18G16G11G19G 2
  20894313.938     1075336.070 7    837920.29422
  24048354.7974   -1464666.53545   -980635.84061
  23705132.156    -4063909.630 6  -3166670.36421
  20739985.086     -927761.557 7   -722932.36522
  23344258.008    -5456770.636 6  -4252032.78021
 91  5 14 18 40  0.0000000  0  5G18G16G11G19G 2
  20897353.984     1091311.401 7    850368.55222
  24041214.531    -1502198.121 5  -1009881.25921
  23697851.602    -4102187.602 6  -3196497.22321
  20738518.750     -935483.481 7   -728949.47022
  23333788.688    -5511790.272 6  -4294905.26521
 91  5 14 18 40 15.0000000  0  5G18G16G11G19G 2
  20900413.953     1107388.017 7    862895.73422
  24034093.203    -1539616.647 5  -1039038.61421
  23690584.2504   -4140365.29546  -3226245.96361
  20737054.008     -943161.728 7   -734932.53522
  23323325.8914   -5566761.96246  -4337740.38961
 91  5 14 18 40 30.0000000  0  5G18G16G11G19G 2
  20903490.508     1123560.388 7    875497.52422
  24026993.250    -1576927.589 5  -1068112.11621
  23683334.9454   -4178447.98646  -3255920.65961
  20735601.273     -950801.720 7   -740885.79222
  23312875.3204   -5621690.85246  -4380542.14961
 91  5 14 18 40 45.0000000  0  5G18G16G11G19G 2
  20906586.125     1139828.973 7    888174.29222
  24019912.5784   -1614130.02245  -1097101.08261
  23676108.2274   -4216434.77346  -3285520.63461
  20734155.148     -958403.012 7   -746808.89322
  23302431.094    -5676576.148 6  -4423309.95521
 91  5 14 18 41  0.0000000  0  5G18G16G11G19G 2
  20909701.063     1156194.276 7    900926.42722
  24012854.2504   -1651223.47345  -1126005.13661
  23668899.8594   -4254324.72646  -3315045.16161
  20732716.586     -965964.944 7   -752701.32522
  23291992.0634   -5731417.21146  -4466043.28361
 91  5 14 18 41 15.0000000  0  5G18G16G11G19G 2
  20912834.156     1172659.815 7    913756.66622
  24005817.406    -1688204.002 5  -1154821.16621
  23661705.8524   -4292113.86246  -3344491.12661
  20731283.445     -973483.910 7   -758560.27722
  23281567.2734   -5786210.44046  -4508739.33661
 91  5 14 18 41 30.0000000  0  5G18G16G11G19G 2
  20915984.570     1189220.125 7    926660.75222
  23998797.625    -1725076.787 5  -1183553.24321
  23654537.477    -4329807.046 6  -3373862.32921
  20729865.539     -980965.464 7   -764390.07122
  23271150.5234   -5840960.90146  -4551402.06861
 91  5 14 18 41 45.0000000  0  5G18G16G11G19G 2
  20919157.383     1205883.158 7    939644.88422
  23991806.844    -1761833.658 5  -1212195.02321
  23647378.7504   -4367396.04246  -3403152.33561
  20728445.867     -988401.492 7   -770184.39222
  23260740.3674   -5895660.47646  -4594025.14361
 91  5 14 18 42  0.0000000  0  5G18G16G11G19G 2
  20922345.727     1222640.819 7    952702.75222
  23984833.2974   -1798482.32245  -1240752.42961
  23640249.1804   -4404888.46746  -3432367.10361
  20727038.859     -995800.045 7   -775949.51122
  23250341.141    -5950316.883 6  -4636614.57421
 91  5 14 18 42 15.0000000  0  5G18G16G11G19G 2
  20925552.469     1239493.599 7    965834.73822
  23977879.766    -1835021.990 5  -1269224.97821
  23633132.773    -4442283.494 6  -3461505.97221
  20725637.352    -1003160.577 7   -781685.00022
  23239948.2114   -6004929.54746  -4679169.91961
 91  5 14 18 42 30.0000000  0  5G18G16G11G19G 2
  20928777.813     1256440.726 7    979040.24022
  23970945.797    -1871452.991 5  -1297612.75921
  23626033.2504   -4479581.16846  -3490568.98761
  20724244.922    -1010483.605 7   -787391.26722
  23229561.9454   -6059498.75246  -4721691.40161
 91  5 14 18 42 45.0000000  0  5G18G16G11G19G 2
  20932022.188     1273486.614 7    992322.70122
  23964032.9614   -1907770.59245  -1325912.25361
  23618959.109    -4516776.596 6  -3519552.32521
  20722858.125    -1017764.700 7   -793064.86622
  23219189.7424   -6114020.02046  -4764175.51261
 91  5 14 18 43  0.0000000  0  5G18G16G11G19G 2
  20935283.375     1290627.874 7   1005679.48222
  23957145.344    -1943978.470 5  -1354126.19121
  23611894.5234   -4553873.42846  -3548458.83161
  20721482.711    -1025007.841 7   -798708.88222
  23208821.453    -6168497.022 6  -4806625.14821
 91  5 14 18 43 15.0000000  0  5G18G16G11G19G 2
  20938562.578     1307861.171 7   1019107.97822
  23950273.422    -1980079.339 5  -1382256.77021
  23604855.383    -4590874.343 6  -3577290.60321
  20720108.430    -1032215.744 7   -804325.44622
  23198463.625    -6222932.185 6  -4849042.16921
 91  5 14 18 43 30.0000000  0  5G18G16G11G19G 2
  20941859.742     1325187.668 7   1032609.09722
  23943427.977    -2016071.741 5  -1410302.81321
  23597832.414    -4627777.631 6  -3606046.28221
  20718745.477    -1039387.141 7   -809913.56122
  23188110.109    -6277324.034 6  -4891425.44421
 91  5 14 18 43 45.0000000  0  5G18G16G11G19G 2
  20945175.641     1342612.458 7   1046186.81022
  23936597.5784   -2051950.21745  -1438260.08361
  23590831.875    -4664577.752 6  -3634721.58521
  20717385.563    -1046516.926 7   -815469.25022
  23177770.5784   -6331667.42946  -4933770.95661
 91  5 14 18 44  0.0000000  0  5G18G16G11G19G 2
  20948510.352     1360136.607 7   1059841.94322
  23929794.7894   -2087713.54345  -1466127.63361
  23583846.8984   -4701273.15146  -3663315.27261
  20716039.469    -1053603.897 7   -820991.58022
  23167437.2274   -6385960.84746  -4976077.52161
 91  5 14 18 44 15.0000000  0  5G18G16G11G19G 2
  20951861.313     1377751.920 7   1073568.11022
  23923008.852    -2123369.697 5  -1493911.66821
  23576880.4064   -4737871.62546  -3691833.45961
  20714697.055    -1060656.262 7   -826486.94622
  23157114.609    -6440212.376 6  -5018351.44121
 91  5 14 18 44 30.0000000  0  5G18G16G11G19G 2
  20955233.578     1395464.820 7   1087370.32022
  23916245.141    -2158911.965 5  -1521606.93921
  23569938.8834   -4774366.42446  -3720270.83561
  20713364.164    -1067667.547 7   -831950.30122
  23146800.2664   -6494415.48746  -5060587.63461
 91  5 14 18 44 45.0000000  0  5G18G16G11G19G 2
  20958621.938     1413277.872 7   1101250.57222
  23909504.984    -2194337.177 5  -1549211.04521
  23563014.445    -4810754.393 6  -3748624.96221
  20712036.219    -1074634.952 7   -837379.45922
  23136496.5784   -6548567.10846  -5102783.70461
 91  5 14 18 45  0.0000000  0  5G18G16G11G19G 2
  20962028.695     1431175.899 7   1115197.04322
  23902783.3134   -2229660.57945  -1576735.74961
  23556104.016    -4847050.338 6  -3776907.38221
  20710717.500    -1081573.597 7   -842786.21022
  23126200.0314   -6602682.26746  -5144951.35061
 91  5 14 18 45 15.0000000  0  5G18G16G11G19G 2
  20965453.094     1449168.004 7   1129216.81422
  23896080.0164   -2264872.68645  -1604173.82061
  23549220.0944   -4883244.90246  -3805110.82261
  20709401.7344   -1088474.52047   -848163.56162
  23115908.289    -6656751.538 6  -5187083.24921
 91  5 14 18 45 30.0000000  0  5G18G16G11G19G 2
  20968894.6884    1467256.92947   1143312.04462
  23889402.6804   -2299970.60545  -1631522.82861
  23542348.336    -4919334.841 6  -3833232.71321
  20708100.422    -1095334.928 7   -853509.34322
  23105629.1334   -6710772.04146  -5229177.13661
 91  5 14 18 45 45.0000000  0  5G18G16G11G19G 2
  20972355.6334    1485446.13147   1157485.40862
  23882744.852    -2334950.286 5  -1658779.75321
  23535505.1334   -4955316.22446  -3861270.02761
  20706799.8594   -1102150.97547   -858820.56262
  23095358.8284   -6764739.91846  -5271230.02161
 91  5 14 18 46  0.0000000  0  5G18G16G11G19G 2
  20975834.805     1503730.071 7   1171732.58722
  23876112.0704   -2369817.12445  -1685948.71461
  23528677.336    -4991194.346 6  -3889226.87621
  20705511.469    -1108928.381 7   -864101.66922
  23085100.594    -6818660.811 6  -5313246.29721
 91  5 14 18 46 15.0000000  0  6G18G16G11G19G 6G 2
  20979333.586     1522104.450 7   1186050.24422
  23869496.453    -2404574.891 5  -1713032.71421
  23521865.852    -5026972.694 6  -3917105.97521
  20704226.742    -1115671.013 7   -869355.67622
  24405173.8754         -0.20955
  23074849.742    -6872538.329 6  -5355228.75321
 91  5 14 18 46 30.0000000  0  6G18G16G11G19G 6G 2
  20982847.9304    1540581.84747   1200448.17362
  23862904.258    -2439211.044 5  -1740021.89721
  23515076.8594   -5062638.57446  -3944897.44161
  20702957.5234   -1122366.56047   -874572.99362
  24396693.7584     -44558.51845
  23064605.344    -6926359.858 6  -5397167.58721
 91  5 14 18 46 45.0000000  0  6G18G16G11G19G 6G 2
  20986382.7194    1559153.43147   1214919.49862
  23856334.359    -2473733.830 5  -1766922.83521
  23508315.727    -5098200.034 6  -3972607.53021
  20701687.5394   -1129023.42847   -879760.17362
  24388213.0784     -89105.41644
  23054370.4614   -6980133.84446  -5439069.37261
 91  5 14 18 47  0.0000000  0  6G18G16G11G19G 6G 2
  20989934.2114    1577815.90047   1229461.64362
  23849789.945    -2508147.012 5  -1793738.27621
  23501563.727    -5133660.312 6  -4000238.79121
  20700430.6414   -1135645.16447   -884919.96862
  24379739.3674    -133644.16845
  23044147.242    -7033863.622 6  -5480936.71921
 91  5 14 18 47 15.0000000  0  6G18G16G11G19G 6G 2
  20993503.1334    1596572.17447   1244076.88062
  23843261.0314   -2542446.93745  -1820465.54261
  23494836.9384   -5169015.98446  -4027788.51761
  20699174.4304   -1142228.74947   -890050.03962
  24371267.6724    -178172.00345
  23033932.766    -7087545.867 6  -5522767.02121
 91  5 14 18 47 30.0000000  0  6G18G16G11G19G 6G 2
  20997089.4534    1615420.00847   1258763.46462
  23836757.0394   -2576635.39145  -1847105.89061
  23488129.2274   -5204268.89246  -4055258.18261
  20697928.1174   -1148776.36647   -895152.08062
  24362798.234     -222691.017 5
  23023723.250    -7141182.446 6  -5564561.73721
 91  5 14 18 47 45.0000000  0  6G18G16G11G19G 6G 2
  21000693.0784    1634356.87947   1273519.42762
  23830269.1334   -2610715.12445  -1873661.51961
  23481439.234    -5239421.317 6  -4082649.52421
  20696687.3834   -1155290.45647   -900227.99162
  24354327.6564    -267203.90945        -0.42371
  23013526.547    -7194775.785 6  -5606322.76021
 91  5 14 18 48  0.0000000  0  6G18G16G11G19G 6G 2
  21004312.4454    1653379.02047   1288341.83362
  23823805.9534   -2644689.07145  -1900134.79561
  23474767.0314   -5274476.36246  -4109965.00961
  20695456.1484   -1161774.45347   -905280.45862
  24345856.945     -311714.018 5    -34683.54321
  23003335.4924   -7248329.30746  -5648052.75161
 91  5 14 18 48 15.0000000  0  6G18G16G11G19G 6G 2
  21007950.1724    1672493.10647   1303235.88962
  23817361.297    -2678550.501 5  -1926520.25021
  23468118.641    -5309426.833 6  -4137198.99521
  20694226.8364   -1168221.55047   -910304.16962
  24337386.641     -356214.614 4    -69359.20621
  22993154.2974   -7301835.86346  -5689746.14861
 91  5 14 18 48 30.0000000  0  6G18G16G11G19G 6G 2
  21011605.2274    1691699.94147   1318202.21662
  23810939.594    -2712298.187 5  -1952817.22421
  23461486.0234   -5344271.55546  -4164350.57861
  20693009.5234   -1174631.00947   -915298.55162
  24328918.750     -400704.879 4   -104026.90621
  22982980.953    -7355294.447 6  -5731402.16621
 91  5 14 18 48 45.0000000  0  6G18G16G11G19G 6G 2
  21015277.6024    1710998.61547   1333240.10362
  23804537.7114   -2745933.19945  -1979026.30061
  23454875.1094   -5379011.49646  -4191420.53661
  20691796.7504   -1181004.07647   -920264.56862
  24320455.8984    -445186.12044   -138687.53161
  22972815.0784   -7408706.30146  -5773021.76261
 91  5 14 18 49  0.0000000  0  6G18G16G11G19G 6G 2
  21018970.3364    1730401.16047   1348358.92662
  23798161.922    -2779442.688 5  -2005137.63921
  23448288.5554   -5413633.61246  -4218398.65961
  20690592.7274   -1187327.91447   -925192.22962
  24311992.570     -489645.630 4   -173331.22221
  22962667.3284   -7462058.41046  -5814594.80561
 91  5 14 18 49 15.0000000  0  6G18G16G11G19G 6G 2
  21022681.9454    1749904.98247   1363556.67662
  23791805.9384   -2812828.80845  -2031152.81161
  23441720.7584   -5448140.14146  -4245286.73161
  20689397.5864   -1193604.97947   -930083.44262
  24303537.1024    -534086.04444   -207960.03461
  22952522.9454   -7515353.21646  -5856123.19561
 91  5 14 18 49 30.0000000  0  6G18G16G11G19G 6G 2
  21026411.2504    1769504.11647   1378828.68962
  23785478.1724   -2846097.70245  -2057076.63061
  23435173.547    -5482536.793 6  -4272089.19621
  20688217.141    -1199841.298 7   -934942.90122
  24295089.0314    -578513.27044   -242578.58761
  22942389.3054   -7568596.47746  -5897611.41561
 91  5 14 18 49 45.0000000  0  6G18G16G11G19G 6G 2
  21030160.0084    1789204.28047   1394179.42562
  23779171.172    -2879243.560 5  -2082904.55221
  23428650.125    -5516817.683 6  -4298801.43321
  20687031.641    -1206031.611 7   -939766.50722
  24286631.289     -622921.868 4   -277182.60221
  22932270.0944   -7621782.63846  -5939055.14261
 91  5 14 18 50  0.0000000  0  6G18G16G11G19G 6G 2
  21033925.8204    1808999.35347   1409604.11562
  23772883.8674   -2912271.89345  -2108640.96561
  23422149.359    -5550988.103 6  -4325427.60021
  20685866.172    -1212181.450 7   -944558.57722
  24278190.2664    -667317.63544   -311776.61561
  22922158.6724   -7674917.27546  -5980458.71861
 91  5 14 18 50 15.0000000  0  6G18G16G11G19G 6G 2
  21037711.9694    1828892.22447   1425105.01662
  23766624.977    -2945179.623 5  -2134283.33121
  23415669.5634   -5585044.64646  -4351965.02261
  20684702.0864   -1218287.68447   -949316.67262
  24269743.008     -711697.480 5   -346358.25621
  22912056.141    -7727997.086 6  -6021819.57421
 91  5 14 18 50 30.0000000  0  6G18G16G11G19G 6G 2
  21041516.6094    1848880.56147   1440680.30562
  23760383.4774   -2977969.05545  -2159833.54461
  23409208.500    -5618989.713 6  -4378415.58721
  20683547.750    -1224353.004 7   -954042.88022
  24261298.313     -756064.116 5   -380929.55721
  22901968.2424   -7781024.47146  -6063139.57261
 91  5 14 18 50 45.0000000  0  6G18G16G11G19G 6G 2
  21045338.5944    1868967.15947   1456332.15962
  23754166.6954   -3010637.04045  -2185289.15861
  23402771.648    -5652819.970 6  -4404776.69621
  20682399.3984   -1230374.47047   -958734.92762
  24252858.1804    -800414.41845   -415488.20761
  22891887.992    -7833996.159 6  -6104416.17121
 91  5 14 18 51  0.0000000  0  6G18G16G11G19G 6G 2
  21049179.1804    1889148.26047   1472057.65562
  23747973.672    -3043186.679 5  -2210652.47521
  23396355.6724   -5686538.48846  -4431050.74561
  20681263.1334   -1236355.48947   -963395.44862
  24244420.984     -844751.898 5   -450036.82121
  22881816.844    -7886915.599 6  -6145652.05121
 91  5 14 18 51 15.0000000  0  6G18G16G11G19G 6G 2
  21053040.0704    1909441.10647   1487870.22062
  23741804.5164   -3075600.54345  -2235910.05461
  23389960.906    -5720127.774 6  -4457224.09821
  20680135.3204   -1242278.85947   -968011.05162
  24235990.4144    -889059.41545   -484562.08961
  22871759.586    -7939765.373 6  -6186833.64221
 91  5 14 18 51 30.0000000  0  6G18G16G11G19G 6G 2
  21056920.227     1929829.050 7   1503756.88822
  23735658.000    -3107895.242 5  -2261074.77221
  23383594.023    -5753604.164 6  -4483309.43621
  20679020.6414   -1248161.17247   -972594.66762
  24227561.0554    -933353.64145   -519077.00561
  22861712.2114   -7992562.10046  -6227973.91061
 91  5 14 18 51 45.0000000  0  6G18G16G11G19G 6G 2
  21060819.5004    1950323.36947   1519726.44362
  23729539.6174   -3140059.30945  -2286137.69661
  23377244.070    -5786955.827 6  -4509297.64321
  20677906.8674   -1253990.82847   -977137.24862
  24219135.242     -977623.175 5   -553572.65921
  22851678.422    -8045293.892 6  -6269063.55821
 91  5 14 18 52  0.0000000  0  6G18G16G11G19G 6G 2
  21064738.813     1970914.457 7   1535771.40022
  23723441.2974   -3172101.71045  -2311105.78861
  23370920.391    -5820191.715 6  -4535195.59721
  20676806.2424   -1259777.13047   -981646.05162
  24210717.164    -1021877.166 5   -588056.21821
  22841652.547    -8097969.886 6  -6310109.73121
 91  5 14 18 52 15.0000000  0  6G18G16G11G19G 6G 2
  21068676.742     1991609.309 7   1551897.21722
  23717368.094    -3204015.652 5  -2335973.82021
  23364618.883    -5853304.876 6  -4560997.94521
  20675713.1564   -1265513.23747   -986115.73762
  24202297.922    -1066109.104 5   -622522.59521
  22831642.3284   -8150583.31046  -6351107.14561
 91  5 14 18 52 30.0000000  0  6G18G16G11G19G 6G 2
  21072633.914     2012404.875 7   1568101.51322
  23711320.9454   -3235803.88245  -2360743.86961
  23358338.781    -5886297.677 6  -4586706.48721
  20674633.6334   -1271202.00147   -990548.53262
  24193884.8134   -1110321.69345   -656973.89261
  22821643.0314   -8203136.70246  -6392057.77761
 91  5 14 18 52 45.0000000  0  6G18G16G11G19G 6G 2
  21076609.641     2033295.761 7   1584380.07822
  23705293.8914   -3267470.90245  -2385419.48761
  23352084.1254   -5919175.07946  -4612325.12561
  20673557.3134   -1276848.64247   -994948.50762
  24185471.188    -1154520.149 5   -691414.20321
  22811651.000    -8255635.073 6  -6432965.54421
 91  5 14 18 53  0.0000000  0  6G18G16G11G19G 6G 2
  21080604.758     2054289.127 7   1600738.49922
  23699292.078    -3299009.236 5  -2409994.80921
  23345851.344    -5951929.402 6  -4637847.84421
  20672494.1644   -1282446.00847   -999310.08762
  24177069.594    -1198697.297 5   -725837.82621
  22801673.9774   -8308071.10746  -6473824.72761
 91  5 14 18 53 15.0000000  0  6G18G16G11G19G 6G 2
  21084619.766     2075383.911 7   1617175.94922
  23693312.5164   -3330419.91845  -2434470.67461
  23339642.0164   -5984561.29246  -4663275.16261
  20671435.6564   -1287995.03547  -1003633.99462
  24168665.891    -1242854.043 5   -760245.64221
  22791706.6484   -8360445.56446  -6514635.92661
 91  5 14 18 53 30.0000000  0  6G18G16G11G19G 6G 2
  21088652.563     2096577.228 7   1633690.17722
  23687360.7664   -3361705.73745  -2458849.21561
  23333453.414    -6017073.368 6  -4688609.14621
  20670389.5394   -1293498.43847  -1007922.35762
  24160266.641    -1286993.300 5   -794639.79221
  22781750.9144   -8412761.16846  -6555401.26561
 91  5 14 18 53 45.0000000  0  6G18G16G11G19G 6G 2
  21092703.281     2117867.306 7   1650279.80222
  23681428.5784   -3392868.54645  -2483131.95161
  23327288.188    -6049467.169 6  -4713850.95721
  20669349.1884   -1298958.18447  -1012176.70062
  24151867.5314   -1331117.03145   -829021.79361
  22771806.461    -8465019.575 6  -6596122.02921
 91  5 14 18 53 59.9990000  0  6G18G16G11G19G 6G 2
  21096773.636     2139257.914 7   1666947.75822
  23675528.7454   -3423900.48446  -2507312.66961
  23321152.480    -6081734.883 6  -4738994.51521
  20668321.9404   -1304368.45047  -1016392.48762
  24143476.245    -1375216.912 5   -863385.29221
  22761872.4564   -8517211.73646  -6636791.17661
 91  5 14 18 54 14.9990000  0  6G18G16G11G19G 6G 2
  21100863.784     2160747.625 7   1683692.94522
  23669644.8394   -3454809.83746  -2531397.88661
  23315029.8624   -6113884.67746  -4764046.19561
  20667297.8394   -1309734.05047  -1020573.46962
  24135086.0034   -1419303.01245   -897737.99161
  22751952.237    -8569348.557 6  -6677417.19621
 91  5 14 18 54 29.9990000  0  6G18G16G11G19G 6G 2
  21104971.542     2182338.442 7   1700516.91422
  23663785.9254   -3485590.86045  -2555383.11661
  23308935.987    -6145910.480 6  -4789001.24521
  20666289.2844   -1315050.96747  -1024716.51562
  24126700.980    -1463368.734 5   -932074.80221
  22742042.589    -8621422.834 6  -6717994.47921
 91  5 14 18 54 44.9990000  0  6G18G16G11G19G 6G 2
  21109098.839     2204030.196 7   1717419.53022
  23657953.581    -3516243.224 6  -2579268.04721
  23302867.808    -6177811.851 6  -4813859.34821
  20665283.0654   -1320319.25747  -1028821.67062
  24118321.3944   -1507414.04045   -966395.74261
  22732145.894    -8673434.291 6  -6758522.80721
 91  5 14 18 54 59.9990000  0  6G18G16G11G19G 6G 2
  21113246.589     2225820.984 7   1734399.31722
  23652143.7454   -3546768.58845  -2603054.04861
  23296817.8154   -6209590.55346  -4838621.87961
  20664292.5584   -1325540.97047  -1032890.52562
  24109941.503    -1551441.038 5  -1000702.39721
  22722259.573    -8725384.757 6  -6799003.61321
 91  5 14 18 55 14.9990000  0  6G18G16G11G19G 6G 2
  21117408.878     2247700.185 7   1751448.00222
  23646359.8004   -3577177.25545  -2626749.10761
  23290795.8944   -6241256.71846  -4863296.71161
  20663304.0974   -1330726.56847  -1036931.24162
  24101567.589    -1595460.117 5  -1035002.88321
  22712383.948    -8777284.624 6  -6839444.98421
 91  5 14 18 55 29.9990000  0  6G18G16G11G19G 6G 2
  21121591.667     2269677.063 7   1768572.79522
  23640595.4484   -3607459.62045  -2650345.73461
  23284791.3474   -6272800.72746  -4887876.35961
  20662328.198    -1335866.535 7  -1040936.39522
  24093190.8234   -1639462.08245  -1069290.03361
  22702518.690    -8829124.232 6  -6879839.39721
 91  5 14 18 55 44.9990000  0  6G18G16G11G19G 6G 2
  21125791.230     2291749.407 7   1785771.97322
  23634855.964    -3637617.584 5  -2673845.45921
  23278811.183    -6304224.094 6  -4912361.99421
  20661356.1124   -1340962.62347  -1044907.36262
  24084821.683    -1683448.756 5  -1103565.27421
  22692665.261    -8880905.476 6  -6920188.33321
 91  5 14 18 55 59.9990000  0  6G18G16G11G19G 6G 2
  21130010.870     2313919.926 7   1803047.65522
  23629140.4724   -3667648.16445  -2697245.91361
  23272855.073    -6335523.702 6  -4936751.21821
  20660397.0584   -1346012.10847  -1048842.01862
  24076450.6674   -1727417.37545  -1137826.44361
  22682823.8314   -8932625.41946  -6960489.49361
 91  5 14 18 56 14.9990000  0  6G18G16G11G19G 6G 2
  21134249.745     2336195.579 7   1820405.25922
  23623454.0654   -3697544.68545  -2720541.87661
  23266922.9404   -6366692.47246  -4961038.46461
  20659444.0424   -1351008.31347  -1052735.15662
  24068095.175    -1771361.092 5  -1172068.22621
  22672994.558    -8984277.050 6  -7000737.43421
 91  5 14 18 56 29.9990000  0  6G18G16G11G19G 6G 2
  21138507.886     2358576.128 7   1837844.59822
  23617788.7374   -3727306.70145  -2743733.09261
  23261017.3864   -6397730.30746  -4985223.71061
  20658504.6514   -1355951.24947  -1056586.78562
  24059734.3314   -1815280.18245  -1206290.80561
  22663177.8474   -9035860.23746  -7040932.02861
 91  5 14 18 56 44.9990000  0  6G18G16G11G19G 6G 2
  21142787.034     2381059.599 7   1855364.13322
  23612153.378    -3756936.062 5  -2766820.86221
  23255134.206    -6428638.484 6  -5009307.90421
  20657572.4804   -1360842.63347  -1060398.24662
  24051383.2374   -1859176.24345  -1240495.44761
  22653374.3394   -9087376.61346  -7081074.56161
 91  5 14 18 56 59.9990000  0  6G18G16G11G19G 6G 2
  21147086.667     2403644.911 7   1872963.02622
  23606536.6124   -3786433.37445  -2789805.80161
  23249278.4014   -6459417.54946  -5033291.50561
  20656656.2924   -1365683.03847  -1064169.97462
  24043029.3704   -1903050.16145  -1274682.82961
  22643583.972    -9138826.862 6  -7121165.56521
 91  5 14 18 57 14.9990000  0  6G18G16G11G19G 6G 2
  21151403.284     2426331.916 7   1890641.16422
  23600950.0734   -3815798.53745  -2812687.73961
  23243445.050    -6490067.484 6  -5057174.48821
  20655740.644    -1370472.692 7  -1067902.16222
  24034689.1284   -1946902.10445  -1308853.10461
  22633807.284    -9190210.942 6  -7161205.00821
 91  5 14 18 57 29.9990000  0  6G18G16G11G19G 6G 2
  21155739.097     2449116.242 7   1908395.13722
  23595386.3154   -3845036.04145  -2835470.18661
  23237637.097    -6520592.402 6  -5080960.04021
  20654840.417    -1375216.285 7  -1071598.45622
  24026345.987    -1990736.744 5  -1343009.88721
  22624040.909    -9241533.199 6  -7201196.26721
 91  5 14 18 57 44.9990000  0  6G18G16G11G19G 6G 2
  21160089.933     2471990.504 7   1926219.18622
  23589845.339    -3874152.647 5  -2858158.45621
  23231851.042    -6550999.200 6  -5104653.57521
  20653943.0344   -1379920.94347  -1075264.41162
  24018006.722    -2034561.199 5  -1377158.70621
  22614285.206    -9292800.825 6  -7241144.95621
 91  5 14 18 57 59.9990000  0  6G18G16G11G19G 6G 2
  21164462.589     2494959.741 7   1944117.23922
  23584327.769    -3903143.279 5  -2880748.57321
  23226087.612    -6581282.358 6  -5128250.75821
  20653058.3624   -1384581.23147  -1078895.79662
  24009667.5114   -2078370.25945  -1411295.57161
  22604539.675    -9344008.306 6  -7281046.78721
 91  5 14 18 58 14.9990000  0  6G18G16G11G19G 6G 2
  21168850.198     2518021.527 7   1962087.41422
  23578840.237    -3932010.105 6  -2903242.15821
  23220347.081    -6611443.889 6  -5151753.17221
  20652176.2064   -1389199.47047  -1082494.41362
  24001337.159    -2122166.182 5  -1445422.19321
  22594807.644    -9395157.596 6  -7320903.26921
 91  5 14 18 58 29.9990000  0  6G18G16G11G19G 6G 2
  21173255.433     2541173.608 7   1980127.94822
  23573366.042    -3960754.985 5  -2925640.78421
  23214629.8554   -6641485.55446  -5175162.17361
  20651306.5894   -1393777.71647  -1086061.86362
  23993007.2844   -2165951.09545  -1479540.20561
  22585084.690    -9446250.713 6  -7360715.98121
 91  5 14 18 58 44.9990000  0  6G18G16G11G19G 6G 2
  21177678.698     2564413.789 7   1998237.12222
  23567918.3944   -3989379.93245  -2947945.92761
  23208935.776    -6671409.215 6  -5198479.24521
  20650441.4484   -1398318.16747  -1089599.86562
  23984672.4014   -2209727.18945  -1513651.37561
  22575368.5654   -9497289.59446  -7400486.43261
 91  5 14 18 58 59.9990000  0  6G18G16G11G19G 6G 2
  21182119.105     2587751.783 7   2016422.52222
  23562496.698    -4017875.074 5  -2970149.90621
  23203268.1204   -6701205.00346  -5221696.65961
  20649591.534    -1402811.220 7  -1093100.93722
  23976347.0814   -2253484.77245  -1547748.12361
  22565671.284    -9548264.527 6  -7440207.04021
 91  5 14 18 59 14.9990000  0  6G18G16G11G19G 6G 2
  21186579.847     2611185.607 7   2034682.59322
  23557095.7844   -4046241.77245  -2992253.82961
  23197619.995    -6730874.043 6  -5244815.31221
  20648740.4724   -1407258.27847  -1096566.16862
  23968024.9874   -2297225.49245  -1581831.71861
  22555983.5344   -9599176.82346  -7479878.84561
 91  5 14 18 59 29.9990000  0  6G18G16G11G19G 6G 2
  21191053.183     2634706.172 7   2053010.25522
  23551722.7614   -4074488.88445  -3014264.55161
  23191997.8704   -6760425.27046  -5267842.15661
  20647904.0654   -1411668.46247  -1100002.66862
  23959700.9644   -2340958.48445  -1615909.30261
  22546304.300    -9650035.530 6  -7519508.89021
 91  5 14 18 59 44.9990000  0  6G18G16G11G19G 6G 2
  21195550.706     2658328.959 7   2071417.56622
  23546372.2844   -4102600.98945  -3036170.08261
  23186401.058    -6789842.689 6  -5290764.74621
  20647070.9254   -1416026.29147  -1103398.37262
  23951382.136    -2384668.261 5  -1649968.79521
  22536636.136    -9700825.020 6  -7559085.01021
 91  5 14 18 59 59.9990000  0  6G18G16G11G19G 6G 2
  21200064.230     2682046.482 7   2089898.69922
  23541048.7534   -4130585.13845  -3057975.90561
  23180824.558    -6819133.431 6  -5313588.62721
  20646252.0344   -1420338.98347  -1106758.90962
  23943065.7224   -2428362.10345  -1684015.89461
  22526983.276    -9751552.388 6  -7598612.72021
 91  5 14 19  0 14.9990000  0  6G18G16G11G19G 6G 2
  21204595.409     2705860.066 7   2108454.68422
  23535746.589    -4158439.663 5  -3079680.72321
  23175277.315    -6848295.723 6  -5336312.41021
  20645439.4174   -1424604.93247  -1110083.02162
  23934756.839    -2472038.458 5  -1718049.35321
  22517345.519    -9802215.877 6  -7638090.64921
 91  5 14 19  0 29.9990000  0  6G18G16G11G19G 6G 2
  21209143.4874    2729760.69247   2127078.49362
  23530470.878    -4186173.735 5  -3101291.66921
  23169749.0344   -6877338.46846  -5358943.04161
  20644636.5424   -1428833.14247  -1113377.73262
  23926446.706    -2515706.513 5  -1752076.32521
  22507712.980    -9852824.515 6  -7677525.83821
 91  5 14 19  0 44.9990000  0  6G18G16G11G19G 6G 2
  21213711.105     2753756.374 7   2145776.37122
  23525215.9334   -4213778.71045  -3122802.03661
  23164247.5894   -6906252.86146  -5381473.66361
  20643840.1364   -1433015.08347  -1116636.38662
  23918141.511    -2559357.761 5  -1786090.20921
  22498096.292    -9903369.623 6  -7716911.51521
 91  5 14 19  0 59.9990000  0  6G18G16G11G19G 6G 2
  21218294.190     2777846.898 7   2164548.15422
  23519987.1904   -4241254.63845  -3144211.84361
  23158770.1904   -6935038.70146  -5403904.11661
  20643054.3474   -1437151.03147  -1119859.20162
  23909836.1054   -2602992.34345  -1820091.11061
  22488488.7694   -9953851.15146  -7756247.66261
 91  5 14 19  1 14.9990000  0  6G18G16G11G19G 6G 2
  21222895.714     2802026.779 7   2183389.56622
  23514783.7454   -4268606.58145  -3165525.06761
  23153314.698    -6963701.102 6  -5426238.38021
  20642273.3394   -1441246.52947  -1123050.50062
  23901535.730    -2646615.721 5  -1854083.26221
  22478893.878   -10004274.439 6  -7795538.42121
 91  5 14 19  1 29.9990000  0  6G18G16G11G19G 6G 2
  21227514.690     2826294.686 7   2202299.56622
  23509601.6834   -4295836.03245  -3186742.78161
  23147882.597    -6992241.371 6  -5448477.46621
  20641501.5194   -1445302.83047  -1126211.25462
  23893235.605    -2690229.382 5  -1888067.87221
  22469307.495   -10054640.950 6  -7834784.93721
 91  5 14 19  1 44.9990000  0  6G18G16G11G19G 6G 2
  21232150.4874    2850657.47447   2221283.50162
  23504447.425    -4322935.750 5  -3207859.47321
  23142478.1904   -7020652.22746  -5470615.72961
  20640737.1364   -1449312.91447  -1129335.99462
  23884940.0114   -2733826.44445  -1922039.55561
  22459736.6204  -10104943.35546  -7873981.49561
 91  5 14 19  1 59.9990000  0  6G18G16G11G19G 6G 2
  21236804.401     2875111.086 7   2240338.20922
  23499310.9404   -4349909.09745  -3228877.65961
  23137092.542    -7048937.080 6  -5492655.79921
  20639988.1674   -1453280.40547  -1132427.53862
  23876647.456    -2777410.629 5  -1956001.18121
  22450176.9404  -10155185.29346  -7913130.93561
 91  5 14 19  2 14.9990000  0  6G18G16G11G19G 6G 2
  21241475.323     2899663.220 7   2259469.68622
  23494205.831    -4376748.362 5  -3249791.36621
  23131739.667    -7077087.777 6  -5514591.34021
  20639236.6754   -1457197.44247  -1135479.77462
  23868356.1364   -2820973.99245  -1989946.55361
  22440628.5734  -10205358.58346  -7952226.88961
 91  5 14 19  2 29.9990000  0  6G18G16G11G19G 6G 2
  21246162.667     2924297.351 7   2278665.05822
  23489120.3154   -4403469.97645  -3270613.39661
  23126405.5654   -7105120.43246  -5536434.87861
  20638501.2064   -1461080.46947  -1138505.50762
  23860067.8784   -2864533.00245  -2023888.59561
  22431090.386   -10255479.543 6  -7991282.06621
 91  5 14 19  2 44.9990000  0  6G18G16G11G19G 6G 2
  21250868.9484    2949024.68047   2297933.05162
  23484059.9014   -4430062.52945  -3291334.87961
  23121095.9564   -7133023.50646  -5558177.46961
  20637768.7304   -1464918.16847  -1141495.91962
  23851779.9094   -2908076.44645  -2057818.45461
  22421564.9174  -10305536.89646  -8030287.68161
 91  5 14 19  2 59.9990000  0  6G18G16G11G19G 6G 2
  21255591.636     2973842.899 7   2317271.86722
  23479025.7764   -4456527.99046  -3311957.30761
  23115806.847    -7160799.118 6  -5579820.71821
  20637048.0424   -1468712.82647  -1144452.78662
  23843497.3704   -2951606.60545  -2091738.02161
  22412051.769   -10355532.793 6  -8069245.42121
 91  5 14 19  3 14.9990000  0  6G18G16G11G19G 6G 2
  21260331.1834    2998752.84047   2336682.15562
  23474011.1514   -4482865.07045  -3332479.70861
  23110547.159    -7188445.740 6  -5601363.47221
  20636332.5114   -1472463.07547  -1147375.05462
  23835214.5584   -2995122.29645  -2125646.25561
  22402549.8944  -10405465.73846  -8108154.09861
 91  5 14 19  3 29.9990000  0  6G18G16G11G19G 6G 2
  21265088.1834    3023753.38447   2356163.04062
  23469025.9564   -4509074.93045  -3352902.97761
  23105312.128    -7215964.261 6  -5622806.39521
  20635628.9564   -1476170.11247  -1150263.64462
  23826940.769    -3038624.638 5  -2159544.10021
  22393058.948   -10455336.574 6  -8147014.37221
 91  5 14 19  3 44.9990000  0  6G18G16G11G19G 6G 2
  21269864.1284    3048843.42547   2375713.65962
  23464059.730    -4535158.215 5  -3373227.61421
  23100100.9644   -7243355.20646  -5644149.92161
  20634929.3944   -1479834.74147  -1153119.19562
  23818662.6444   -3082114.41245  -2193432.16461
  22383578.651   -10505146.023 6  -8185826.82021
 91  5 14 19  3 59.9990000  0  6G18G16G11G19G 6G 2
  21274654.2764    3074024.89147   2395335.52762
  23459119.1674   -4561112.84645  -3393451.98861
  23094912.1364   -7270616.62446  -5665392.49661
  20634243.8314   -1483455.24047  -1155940.35662
  23810388.917    -3125590.049 5  -2227309.17521
  22374114.612   -10554892.436 6  -8224590.14121
 91  5 14 19  4 14.9990000  0  6G18G16G11G19G 6G 2
  21279463.3624    3099293.97947   2415025.66162
  23454206.886    -4586942.498 5  -3413579.00821
  23089745.8554   -7297751.74946  -5686536.67761
  20633559.8004   -1487034.90347  -1158729.69662
  23802119.2534   -3169055.12945  -2261177.97861
  22364659.050   -10604579.187 6  -8263306.97521
 91  5 14 19  4 29.9990000  0  6G18G16G11G19G 6G 2
  21284289.7764    3124652.24747   2434785.29362
  23449317.5264   -4612645.31145  -3433607.14261
  23084608.972    -7324758.781 6  -5707581.03221
  20632887.964    -1490572.175 7  -1161486.00222
  23793848.2534   -3212507.86745  -2295037.16761
  22355214.448   -10654204.496 6  -8301975.94321
 91  5 14 19  4 44.9990000  0  6G18G16G11G19G 6G 2
  21289133.5114    3150105.18047   2454618.68662
  23444448.0814   -4638215.71245  -3453532.14861
  23079494.6284   -7351631.77146  -5728520.93161
  20632223.3474   -1494061.44247  -1164204.89762
  23785584.6284   -3255942.83845  -2328882.51361
  22345786.026   -10703762.559 6  -8340592.51121
 91  5 14 19  4 59.9990000  0  6G18G16G11G19G 6G 2
  21293994.0894    3175647.02047   2474521.35362
  23439608.964    -4663659.066 5  -3473358.12421
  23074406.1444   -7378376.01146  -5749360.51861
  20631568.9724   -1497508.24547  -1166890.71462
  23777320.9254   -3299365.51545  -2362718.25761
  22336365.933   -10753258.624 6  -8379160.77121
 91  5 14 19  5 14.9990000  0  6G18G16G11G19G 6G 2
  21298871.0034    3201281.36347   2494496.10662
  23434791.6904   -4688971.45646  -3493082.05861
  23069340.144    -7404987.435 6  -5770096.61221
  20630918.4094   -1500908.68747  -1169540.39962
  23769060.3474   -3342772.03245  -2396541.42961
  22326959.589   -10802688.847 6  -8417677.71921
 91  5 14 19  5 29.9990000  0  6G18G16G11G19G 6G 2
  21303767.6904    3227006.22147   2514541.38862
  23430000.839    -4714154.334 6  -3512705.07221
  23064300.3474   -7431467.49146  -5790730.32861
  20630280.7374   -1504264.57447  -1172155.36962
  23760804.323    -3386164.250 5  -2430353.44321
  22317565.597   -10852054.850 6  -8456144.63321
 91  5 14 19  5 44.9990000  0  6G18G16G11G19G 6G 2
  21308681.2064    3252829.00947   2534662.97862
  23425230.097    -4739200.555 5  -3532221.61521
  23059287.745    -7457808.760 6  -5811255.91721
  20629650.7064   -1507568.65747  -1174729.97462
  23752547.784    -3429534.916 5  -2464148.65921
  22308185.9094  -10901349.02146  -8494555.58061
 91  5 14 19  5 59.9990000  0  6G18G16G11G19G 6G 2
  21313610.8474    3278741.07447   2554854.13262
  23420491.245    -4764118.271 6  -3551638.00421
  23054301.565    -7484019.284 6  -5831679.61121
  20629033.198    -1510829.006 7  -1177270.49622
  23744299.339    -3472892.301 5  -2497933.54021
  22298817.8864  -10950579.82846  -8532917.14761
 91  5 14 19  6 14.9990000  0  6G18G16G11G19G 6G 2
  21318562.3314    3304749.75147   2575120.57462
  23415776.558    -4788899.906 6  -3570948.36621
  23049340.5034   -7510091.22646  -5851995.31661
  20628421.2534   -1514038.18847  -1179771.14262
  23736052.0114   -3516229.02045  -2531702.32361
  22289462.6124  -10999739.49646  -8571223.28761
 91  5 14 19  6 29.9990000  0  6G18G16G11G19G 6G 2
  21323528.6204    3330848.86847   2595457.48862
  23411086.5424   -4813551.33145  -3590157.27261
  23044404.2064   -7536030.59346  -5872207.71761
  20627822.9564   -1517202.34647  -1182236.71562
  23727808.2534   -3559551.27545  -2565459.82361
  22280118.1904  -11048834.08646  -8609478.72461
 91  5 14 19  6 44.9990000  0  6G18G16G11G19G 6G 2
  21328510.3314    3357037.29947   2615863.99362
  23406418.8554   -4838073.49145  -3609265.44661
  23039491.800    -7561838.031 6  -5892317.33021
  20627224.440    -1520322.486 7  -1184667.98422
  23719563.4564   -3602859.94845  -2599206.76861
  22270788.167   -11097864.496 6  -8647684.15621
 91  5 14 19  6 59.9990000  0  6G18G16G11G19G 6G 2
  21333513.1444    3383318.19147   2636342.53562
  23401780.5344   -4862463.23146  -3628270.42361
  23034606.9564   -7587510.25646  -5912321.57461
  20626642.5344   -1523395.40047  -1187062.45562
  23711329.667    -3646152.056 5  -2632940.80821
  22261470.073   -11146827.389 6  -8685836.97721
 91  5 14 19  7 14.9990000  0  6G18G16G11G19G 6G 2
  21338531.5504    3409688.00347   2656890.37862
  23397161.0504   -4886723.77845  -3647174.73961
  23029748.581    -7613050.026 6  -5932222.60521
  20626063.4404   -1526424.14947  -1189422.50962
  23703090.870    -3689430.695 5  -2666664.31421
  22252166.230   -11195725.627 6  -8723939.42421
 91  5 14 19  7 29.9990000  0  6G18G16G11G19G 6G 2
  21343565.4484    3436147.33347   2677507.97962
  23392565.7144   -4910853.93045  -3665977.47061
  23024912.534    -7638456.453 6  -5952019.73921
  20625498.4724   -1529407.99347  -1191747.57262
  23694857.7454   -3732695.06345  -2700376.74361
  22242873.917   -11244558.447 6  -8761990.89021
 91  5 14 19  7 44.9990000  0  6G18G16G11G19G 6G 2
  21348615.7764    3462693.53647   2698193.26862
  23388002.2924   -4934856.38645  -3684680.65161
  23020100.690    -7663731.850 6  -5971714.77121
  20624936.8784   -1532349.46447  -1194039.62162
  23686633.0114   -3775947.85945  -2734080.13261
  22233593.323   -11293328.323 6  -8799993.31121
 91  5 14 19  7 59.9990000  0  6G18G16G11G19G 6G 2
  21353685.5654    3489330.23747   2718949.07162
  23383454.792    -4958727.439 5  -3703281.52321
  23015319.0974   -7688872.36646  -5991304.70261
  20624388.0654   -1535244.85647  -1196295.76662
  23678403.636    -3819185.393 5  -2767771.63621
  22224323.980   -11342031.448 6  -8837943.72221
 91  5 14 19  8 14.9990000  0  6G18G16G11G19G 6G 2
  21358772.9254    3516057.34547   2739775.32162
  23378942.706    -4982466.477 6  -3721779.43421
  23010559.800    -7713877.497 6  -6010789.13921
  20623843.0264   -1538093.94347  -1198515.82962
  23670179.167    -3862407.476 5  -2801451.12021
  22215069.448   -11390667.429 6  -8875841.81321
 91  5 14 19  8 29.9990000  0  6G18G16G11G19G 6G 2
  21363875.1594    3542869.31947   2760667.70262
  23374447.9174   -5006078.80545  -3740178.68961
  23005826.980    -7738752.147 6  -6030171.91221
  20623310.8704   -1540901.75047  -1200703.72662
  23661953.972    -3905619.300 5  -2835122.59721
  22205826.550   -11439241.304 6  -8913691.51121
 91  5 14 19  8 44.9990000  0  6G18G16G11G19G 6G 2
  21368994.4564    3569776.00247   2781633.88662
  23369979.0734   -5029554.53345  -3758471.46961
  23001121.034    -7763486.279 6  -6049445.17221
  20622783.9334   -1543658.46847  -1202851.81262
  23653735.651    -3948810.923 5  -2868778.32921
  22196597.839   -11487743.056 6  -8951485.01421
 91  5 14 19  8 59.9990000  0  6G18G16G11G19G 6G 2
  21374133.6754    3596779.03747   2802675.14962
  23365536.487    -5052891.659 5  -3776656.27621
  22996439.839    -7788078.049 6  -6068607.51421
  20622272.3944   -1546362.44747  -1204958.80462
  23645519.9334   -3991980.84445  -2902417.15761
  22187379.409   -11536170.898 6  -8989220.92021
 91  5 14 19  9 14.9990000  0  6G18G16G11G19G 6G 2
  21379287.4174    3623867.92347   2823783.30762
  23361125.2374   -5076100.71846  -3794741.22261
  22991785.706    -7812537.623 6  -6087666.84621
  20621763.1364   -1549024.12847  -1207032.84362
  23637305.714    -4035139.532 5  -2936047.23221
  22178178.362   -11584535.142 6  -9026907.26821
 91  5 14 19  9 29.9990000  0  6G18G16G11G19G 6G 2
  21384462.1984    3651051.60347   2844965.32962
  23356729.0424   -5099172.70545  -3812719.46061
  22987156.409    -7836855.662 6  -6106615.87921
  20621267.5194   -1551634.33147  -1209066.76362
  23629097.9334   -4078277.76245  -2969661.35961
  22168986.7844  -11632826.47246  -9064536.80661
 91  5 14 19  9 44.9990000  0  6G18G16G11G19G 6G 2
  21389653.6054    3678327.06147   2866218.86962
  23352365.722    -5122110.389 5  -3830592.98621
  22982555.753    -7861034.885 6  -6125456.75121
  20620778.1904   -1554195.82047  -1211062.72462
  23620891.8944   -4121398.61645  -3003261.94461
  22159813.784   -11681047.758 6  -9102111.76321
 91  5 14 19  9 59.9990000  0  6G18G16G11G19G 6G 2
  21394861.2764    3705700.00547   2887548.37162
  23348031.4874   -5144907.90346  -3848357.28761
  22977983.409    -7885069.258 6  -6144184.74821
  20620304.1284   -1556702.80447  -1213016.21162
  23612691.4404   -4164496.26145  -3036844.43861
  22150648.956   -11729193.150 6  -9139627.57621
 91  5 14 19 10 14.9990000  0  6G18G16G11G19G 6G 2
  21400087.2064    3733162.70947   2908947.81762
  23343718.089    -5167572.491 5  -3866018.02221
  22973437.6674   -7908965.93146  -6162805.43861
  20619834.3084   -1559162.45147  -1214932.81362
  23604493.776    -4207578.005 5  -3070414.54621
  22141501.550   -11777269.815 7  -9177089.83721
 91  5 14 19 10 29.9990000  0  6G18G16G11G19G 6G 2
  21405329.0114    3760714.74647   2930416.86662
  23339429.3624   -5190104.28345  -3883575.30261
  22968910.901    -7932724.890 6  -6181318.83621
  20619377.4094   -1561575.07347  -1216812.77262
  23596297.761    -4250644.195 5  -3103972.54121
  22132366.925   -11825277.803 7  -9214498.58721
 91  5 14 19 10 44.9990000  0  6G18G16G11G19G 6G 2
  21410589.120     3788356.620 7   2951955.93122
  23335171.3084   -5212502.44546  -3901028.41261
  22964420.355    -7956345.444 6  -6199724.38321
  20618924.9254   -1563940.24147  -1218655.74962
  23588105.9334   -4293694.38545  -3137518.05861
  22123244.5264  -11873216.42347  -9251853.29061
 91  5 14 19 10 59.9990000  0  6G18G16G11G19G 6G 2
  21415865.5974    3816090.01747   2973566.30362
  23330926.519    -5234765.181 5  -3918376.05321
  22959951.3394   -7979825.34546  -6218020.32361
  20618484.675    -1566255.946 7  -1220460.18022
  23579915.464    -4336726.443 5  -3171049.46421
  22114134.972   -11921083.673 7  -9289152.37621
 91  5 14 19 11 14.9990000  0  6G18G16G11G19G 6G 2
  21421161.0584    3843909.40347   2995243.68162
  23326719.3394   -5256897.95746  -3935622.35361
  22955507.675    -8003169.829 6  -6236210.75421
  20618053.6834   -1568527.40447  -1222230.14162
  23571731.714    -4379745.857 5  -3204571.01921
  22105038.1754  -11968884.88247  -9326399.99961
 91  5 14 19 11 29.9990000  0  6G18G16G11G19G 6G 2
  21426471.4804    3871816.43547   3016989.35662
  23322535.136    -5278898.834 6  -3952765.90921
  22951091.5034   -8026376.86046  -6254294.06461
  20617632.0034   -1570752.80447  -1223964.20662
  23563544.878    -4422750.936 5  -3238081.38221
  22095955.284   -12016617.990 7  -9363594.56121
 91  5 14 19 11 44.9990000  0  6G18G16G11G19G 6G 2
  21431798.0504    3899808.20547   3038801.06462
  23318369.5344   -5300770.12245  -3969808.51461
  22946703.800    -8049448.924 6  -6272272.21321
  20617214.5114   -1572934.85347  -1225664.49862
  23555364.2534   -4465744.34445  -3271582.66561
  22086883.6984  -12064285.61946  -9400738.10661
 91  5 14 19 11 59.9990000  0  6G18G16G11G19G 6G 2
  21437142.0344    3927889.44447   3060682.49462
  23314232.0194   -5322507.02846  -3986746.35761
  22942336.8944   -8072380.87046  -6290141.17861
  20616810.7694   -1575068.78447  -1227327.29362
  23547186.8154   -4508721.21445  -3305071.06261
  22077827.0974  -12111882.77846  -9437826.73261
 91  5 14 19 12 14.9990000  0  6G18G16G11G19G 6G 2
  21442501.0734    3956057.15247   3082631.29062
  23310120.8554   -5344112.76546  -4003582.01961
  22938001.144    -8095175.498 6  -6307903.15521
  20616408.5504   -1577157.33847  -1228954.72762
  23539009.7694   -4551684.55545  -3338548.90861
  22068783.0264  -12159412.23347  -9474862.60461
 91  5 14 19 12 29.9990000  0  6G18G16G11G19G 6G 2
  21447879.1984    3984314.31647   3104649.79862
  23306031.2304   -5365583.73945  -4020312.66561
  22933690.089    -8117829.349 6  -6325555.42821
  20616021.0974   -1579197.18147  -1230544.21262
  23530837.8154   -4594631.04845  -3372013.62361
  22059750.909   -12206870.497 7  -9511842.99921
 91  5 14 19 12 44.9990000  0  6G18G16G11G19G 6G 2
  21453272.8084    4012658.71047   3126736.27762
  23301981.2144   -5386921.95746  -4036939.83561
  22929404.2064   -8140344.27846  -6343099.45561
  20615641.5424   -1581190.46447  -1232097.41462
  23522667.2764   -4637562.82345  -3405466.89261
  22050733.495   -12254259.549 7  -9548769.46421
 91  5 14 19 12 59.9990000  0  6G18G16G11G19G 6G 2
  21458684.0114    4041094.85647   3148894.25362
  23297941.511    -5408122.820 6  -4053460.01021
  22925147.894    -8162715.661 6  -6360531.62021
  20615275.0114   -1583132.59047  -1233610.75562
  23514502.308    -4680475.386 5  -3438905.17521
  22041731.1204  -12301574.99947  -9585638.57361
 91  5 14 19 13 14.9990000  0  6G18G16G11G19G 6G 2
  21464109.6284    4069613.55647   3171116.55862
  23293929.7614   -5429195.00046  -4069879.92161
  22920913.8864   -8184951.92146  -6377858.51561
  20614911.5114   -1585032.43147  -1235091.15262
  23506339.597    -4723377.624 5  -3472335.42921
  22032737.4804  -12348825.51047  -9622457.09061
 91  5 14 19 13 29.9990000  0  6G18G16G11G19G 6G 2
  21469555.7454    4098223.16047   3193409.69462
  23289949.683    -5450130.327 6  -4086193.13121
  22916714.5814   -8207044.59146  -6395073.50261
  20614559.8554   -1586881.55947  -1236532.02562
  23498175.4564   -4766261.06145  -3505751.02961
  22023762.8084  -12396002.56647  -9659218.36361
 91  5 14 19 13 44.9990000  0  6G18G16G11G19G 6G 2
  21475018.3704    4126925.18247   3215774.84562
  23285986.4874   -5470926.79245  -4102398.20361
  22912536.894    -8228991.762 6  -6412175.12821
  20614218.0264   -1588678.24547  -1237932.03962
  23490018.448    -4809124.085 5  -3539150.71921
  22014797.987   -12443104.239 7  -9695920.89421
 91  5 14 19 13 59.9990000  0  6G18G16G11G19G 6G 2
  21480496.2224    4155719.94347   3238212.26162
  23282063.4484   -5491583.98546  -4118494.71161
  22908385.605    -8250792.809 6  -6429162.88521
  20613886.8554   -1590421.83347  -1239290.68762
  23481868.323    -4851966.203 5  -3572534.11521
  22005849.1204  -12490129.87847  -9732564.18561
 91  5 14 19 14 14.9990000  0  6G18G16G11G19G 6G 2
  21485993.1364    4184603.14947   3260718.59462
  23278155.2454   -5512106.10246  -4134485.96161
  22904266.3234   -8272451.62246  -6446039.82461
  20613561.6984   -1592116.40647  -1240611.13662
  23473719.956    -4894791.633 5  -3605904.51321
  21996913.6284  -12537083.36347  -9769151.25161
 91  5 14 19 14 29.9990000  0  6G18G16G11G19G 6G 2
  21491504.3864    4213566.86447   3283287.66362
  23274269.6904   -5532500.70845  -4150377.92061
  22900171.3004   -8293975.83646  -6462811.87161
  20613253.9094   -1593769.84747  -1241899.53162
  23465570.503    -4937608.146 5  -3639267.96721
  21987990.4564  -12583972.60647  -9805688.25661
 91  5 14 19 14 44.9990000  0  6G18G16G11G19G 6G 2
  21497031.9954    4242613.28547   3305921.17962
  23270418.6514   -5552765.25846  -4166168.44961
  22896101.3154   -8315362.80946  -6479476.98861
  20612942.2454   -1595379.67847  -1243153.95162
  23457426.1904   -4980413.43145  -3672622.67061
  21979080.7694  -12630795.08547  -9842173.23561
 91  5 14 19 14 59.9990000  0  6G18G16G11G19G 6G 2
  21502577.4954    4271745.93947   3328621.88962
  23266582.4404   -5572895.79945  -4181854.61061
  22892055.5424   -8336608.49246  -6496031.99761
  20612648.8394   -1596941.97147  -1244371.33162
  23449284.0114   -5023203.55045  -3705965.54361
  21970183.8554  -12677546.64347  -9878602.95761
 91  5 14 19 15 14.9990000  0  6G18G16G11G19G 6G 2
  21508135.8004    4300964.25747   3351389.34662
  23262780.4334   -5592893.22346  -4197437.02261
  22888040.5194   -8357713.20746  -6512477.16461
  20612355.7144   -1598457.25547  -1245552.08162
  23441143.1594   -5065978.96045  -3739296.96561
  21961300.9804  -12724227.79746  -9914977.81961
 91  5 14 19 15 29.9990000  0  6G18G16G11G19G 6G 2
  21513712.7454    4330268.98447   3374224.13762
  23259007.7304   -5612756.32846  -4212914.76161
  22884054.2304   -8378675.87846  -6528811.65461
  20612078.8234   -1599924.57147  -1246695.44862
  23433009.792    -5108738.951 5  -3772616.35521
  21952430.3944  -12770837.56646  -9951297.05762
 91  5 14 19 15 44.9990000  0  6G18G16G11G19G 6G 2
  21519306.0264    4359661.00247   3397126.94462
  23255239.214    -5632483.750 5  -4228286.83321
  22880088.659    -8399495.076 6  -6545034.32921
  20611808.5814   -1601342.70847  -1247800.49762
  23424872.0504   -5151482.22745  -3805922.74061
  21943576.651   -12817374.570 7  -9987559.58422
 91  5 14 19 15 59.9990000  0  6G18G16G11G19G 6G 2
  21524915.2614    4389139.60647   3420097.21962
  23251521.722    -5652076.885 6  -4243554.21121
  22876159.5894   -8420171.59146  -6561145.84661
  20611548.9334   -1602712.49147  -1248867.86562
  23416740.8394   -5194209.84445  -3839216.91861
  21934731.2064  -12863839.63847 -10023766.06661
 91  5 14 19 16 14.9990000  0  6G18G16G11G19G 6G 2
  21530542.3624    4418708.49947   3443137.85162
  23247820.6674   -5671531.30146  -4258713.50761
  22872246.9954   -8440701.09546  -6577142.80261
  20611296.0584   -1604029.54347  -1249894.14462
  23408614.511    -5236917.482 5  -3872495.52721
  21925904.870   -12910228.561 7 -10059913.20821
 91  5 14 19 16 29.9990000  0  6G18G16G11G19G 6G 2
  21536184.6834    4448363.19347   3466245.35062
  23244139.3084   -5690851.10946  -4273767.93961
  22868367.3944   -8461087.81946  -6593028.49661
  20611059.4334   -1605298.42047  -1250882.88362
  23400489.323    -5279609.649 5  -3905762.07721
  21917092.1054  -12956545.56247 -10096004.31062
 91  5 14 19 16 44.9990000  0  6G18G16G11G19G 6G 2
  21541844.9644    4478100.54447   3489417.24662
  23240488.6904   -5710039.15646  -4288719.67761
  22864513.636    -8481334.423 6  -6608805.01521
  20610820.9954   -1606521.98447  -1251836.31462
  23392370.2224   -5322289.22645  -3939018.81361
  21908289.4334  -13002793.30847 -10132041.45362
 91  5 14 19 16 59.9990000  0  6G18G16G11G19G 6G 2
  21547520.0034    4507921.05247   3512653.93962
  23236862.565    -5729094.872 6  -4303568.30821
  22860689.2924   -8501440.21246  -6624471.81261
  20610596.7924   -1607699.53747  -1252753.88862
  23384249.9724   -5364955.64345  -3972265.28461
  21899503.3784  -13048971.13047 -10168024.10461
 91  5 14 19 17 14.9990000  0  6G18G16G11G19G 6G 2
  21553209.4564    4537824.46747   3535955.23762
  23233260.0344   -5748018.39646  -4318313.93761
  22856894.073    -8521405.108 6  -6640028.81121
  20610381.6674   -1608831.23747  -1253635.73862
  23376132.839    -5407609.079 5  -4005501.64921
  21890729.7844  -13095079.13447 -10203952.35262
 91  5 14 19 17 29.9990000  0  6G18G16G11G19G 6G 2
  21558916.7694    4567808.28747   3559319.18462
  23229685.9874   -5766812.08246  -4332958.37661
  22853118.0194   -8541231.06746  -6655477.56261
  20610177.9564   -1609919.13347  -1254483.45362
  23368017.4014   -5450251.81545  -4038729.67861
  21881967.2694  -13141119.43547 -10239827.85461
 91  5 14 19 17 44.9990000  0  6G18G16G11G19G 6G 2
  21564636.8784    4597880.35347   3582751.89662
  23226138.878    -5785467.520 6  -4347495.10921
  22849372.737    -8560909.861 6  -6670811.64721
  20609977.0814   -1610955.30547  -1255290.85962
  23359909.2694   -5492875.69945  -4071943.03061
  21873220.3394  -13187083.84747 -10275644.21862
 91  5 14 19 17 59.9990000  0  6G18G16G11G19G 6G 2
  21570377.6674    4628039.88047   3606252.76862
  23222611.2064   -5803985.50646  -4361924.73061
  22845655.245    -8580441.958 6  -6686031.40521
  20609792.0264   -1611940.23647  -1256058.34562
  23351801.722    -5535481.405 5  -4105142.20521
  21864487.6674  -13232972.90147 -10311401.86362
 91  5 14 19 18 14.9990000  0  6G18G16G11G19G 6G 2
  21576128.6834    4658274.36447   3629812.03762
  23219108.5344   -5822378.56045  -4376257.02361
  22841964.667    -8599839.699 6  -6701146.47621
  20609610.3474   -1612886.20947  -1256795.46762
  23343694.198    -5578081.308 5  -4138336.84621
  21855767.6124  -13278798.80547 -10347110.29861
 91  5 14 19 18 29.9990000  0  6G18G16G11G19G 6G 2
  21581901.2374    4688596.34047   3653439.47762
  23215638.8624   -5840633.87646  -4390481.95161
  22838298.612    -8619090.383 6  -6716146.95621
  20609441.5264   -1613780.66547  -1257492.44862
  23335591.042    -5620662.981 5  -4171517.31021
  21847061.5974  -13324548.84447 -10382759.62161
 91  5 14 19 18 44.9990000  0  6G18G16G11G19G 6G 2
  21587690.4094    4719015.46747   3677142.62362
  23212190.5894   -5858741.49246  -4404591.82561
  22834668.378    -8638183.798 6  -6731024.89021
  20609281.9404   -1614613.60947  -1258141.50162
  23327492.8864   -5663216.47545  -4204675.80061
  21838371.948   -13370212.970 7 -10418342.00621
 91  5 14 19 18 59.9990000  0  6G18G16G11G19G 6G 2
  21593496.370     4749524.413 7   3700915.75622
  23208772.7374   -5876708.43346  -4418592.05961
  22831062.0894   -8657126.97946  -6745785.75661
  20609137.9484   -1615392.20947  -1258748.20462
  23319397.409    -5705748.929 5  -4237817.90021
  21829697.5974  -13415798.40847 -10453863.06362
 91  5 14 19 19 14.9990000  0  6G18G16G11G19G 6G 2
  21599315.331     4780104.289 7   3724744.16022
  23205378.5424   -5894552.99746  -4432496.93161
  22827484.034    -8675938.111 6  -6760443.72821
  20608991.3474   -1616134.90447  -1259326.93562
  23311305.5264   -5748278.75545  -4270957.97261
  21821035.0654  -13461323.28747 -10489336.93561
 91  5 14 19 19 29.9990000  0  6G18G16G11G19G 6G 2
  21605148.503     4810765.937 7   3748636.28322
  23202004.612    -5912264.967 5  -4446298.51121
  22823932.433    -8694606.328 6  -6774990.33021
  20608863.1904   -1616830.85247  -1259869.23762
  23303215.0814   -5790795.28645  -4304087.66461
  21812386.0814  -13506776.87947 -10524755.26062
 91  5 14 19 19 44.9990000  0  6G18G16G11G19G 6G 2
  21611002.7764    4841520.99247   3772601.19062
  23198662.276    -5929832.025 6  -4459987.13421
  22820409.855    -8713119.435 6  -6789416.07821
  20608738.550    -1617468.063 7  -1260365.77722
  23295126.323    -5833286.454 5  -4337197.60021
  21803753.0734  -13552146.98547 -10560108.53062
 91  5 14 19 19 59.9990000  0  6G18G16G11G19G 6G 2
  21616868.612     4872352.959 7   3796626.02522
  23195347.7304   -5947270.39246  -4473575.50761
  22816913.4404   -8731493.63246  -6803733.56661
  20608626.7694   -1618062.83647  -1260829.24362
  23287042.042    -5875768.679 5  -4370300.59521
  21795131.1124  -13597450.01347 -10595409.53662
 91  5 14 19 20 14.9990000  0  6G18G16G11G19G 6G 2
  21622751.698     4903263.196 7   3820711.85222
  23192049.542    -5964578.911 6  -4487062.70721
  22813441.620    -8749727.563 6  -6817941.76921
  20608520.1444   -1618613.80947  -1261258.58362
  23278962.175    -5918240.628 5  -4403395.55021
  21786524.081   -13642684.400 7 -10630657.05722
 91  5 14 19 20 29.9990000  0  6G18G16G11G19G 6G 2
  21628649.589     4934256.183 7   3844862.16222
  23188788.745    -5981752.871 6  -4500445.02721
  22809998.925    -8767816.137 6  -6832036.70421
  20608427.3864   -1619116.03747  -1261649.92962
  23270882.7454   -5960697.58145  -4436478.83761
  21777929.3944  -13687845.17947 -10665847.22062
 91  5 14 19 20 44.9990000  0  6G18G16G11G19G 6G 2
  21634563.847     4965335.996 7   3869080.12222
  23185540.4404   -5998787.91946  -4513719.11061
  22806583.7844   -8785754.78846  -6846014.81261
  20608340.5344   -1619565.04047  -1261999.80062
  23262807.331    -6003135.183 5  -4469547.04021
  21769350.1124  -13732927.96247 -10700976.60362
 91  5 14 19 20 59.9990000  0  6G18G16G11G19G 6G 2
  21640492.714     4996493.455 7   3893358.58822
  23182323.9174   -6015692.99646  -4526891.93261
  22803199.9644   -8803552.53146  -6859883.12561
  20608264.3944   -1619970.06947  -1262315.41562
  23254731.9014   -6045562.50245  -4502607.24761
  21760783.7374  -13777941.85747 -10736052.30662
 91  5 14 19 21 14.9990000  0  6G18G16G11G19G 6G 2
  21646438.3084    5027735.65747   3917703.09462
  23179134.886    -6032460.947 6  -4539957.88721
  22799840.480    -8821202.166 6  -6873636.03921
  20608193.5114   -1620323.96047  -1262591.17862
  23246661.1754   -6087972.47945  -4535653.92161
  21752234.1594  -13822879.48847 -10771068.57862
 91  5 14 19 21 29.9990000  0  6G18G16G11G19G 6G 2
  21652395.948     5059054.102 7   3942107.00122
  23175962.2534   -6049099.75045  -4552923.23261
  22796508.8474   -8838711.74646  -6887279.80461
  20608139.1834   -1620634.85347  -1262833.43662
  23238594.5344   -6130373.24345  -4568693.42461
  21743693.0344  -13867748.90547 -10806031.69662
 91  5 14 19 21 44.9990000  0  6G18G16G11G19G 6G 2
  21658372.339     5090454.992 7   3966575.15222
  23172829.065    -6065603.243 6  -4565783.07421
  22793204.7064   -8856074.55446  -6900809.20361
  20608086.3704   -1620896.11847  -1263037.02062
  23230527.987    -6172758.285 5  -4601720.68521
  21735169.9874  -13912543.65247 -10840936.63462
 91  5 14 19 21 59.9990000  0  6G18G16G11G19G 6G 2
  21664365.151     5121942.794 7   3991111.02322
  23169712.9174   -6081966.74445  -4578533.89461
  22789930.0264   -8873285.84346  -6914220.53261
  20608049.7454   -1621102.90247  -1263198.14962
  23222465.425    -6215123.100 5  -4634732.17921
  21726660.542   -13957259.098 7 -10875779.79122
 91  5 14 19 22 14.9990000  0  6G18G16G11G19G 6G 2
  21670371.800     5153508.642 7   4015707.71021
  23166624.573    -6098198.592 5  -4591182.12121
  22786683.0424   -8890354.21746  -6927520.50961
  20608015.8474   -1621264.09347
  23214405.8314   -6257476.46145  -4667734.76061
  21718166.9094  -14001903.54447 -10910567.61062
 91  5 14 19 22 29.9990000  0  6G18G16G11G19G 6G 2
  21676394.222     5185156.103 7   4040367.99321
  23163562.9404   -6114295.50146  -4603725.14861
  22783460.5504   -8907275.77246  -6940706.07261
  20607996.9644   -1621375.83847
  23206349.9334   -6299814.52145  -4700725.39561
  21709684.183   -14046473.246 7 -10945297.19422
 91  5 14 19 22 44.9990000  0  6G18G16G11G19G 6G 2
  21682431.026     5216879.514 7   4065087.46222
  23160522.2764   -6130262.79545  -4616167.24561
  22780266.558    -8924055.886 6  -6953781.41521
  20607982.8394   -1621443.81947
  23198295.3084   -6342142.85745  -4733708.47061
  21701214.0344  -14090973.76047 -10979972.86062
 91  5 14 19 22 59.9990000  0  6G18G16G11G19G 6G 2
  21688483.753     5248682.770 7   4089869.14422
  23157508.7844   -6146096.08345  -4628504.89561
  22777106.4564   -8940690.24046  -6966743.18661
  20607979.6444   -1621463.69647
  23190242.1754   -6384457.30145  -4766680.73561
  21692762.0814  -14135400.68047 -11014591.17862
 91  5 14 19 23 14.9990000  0  6G18G16G11G19G 6G 2
  21694548.425     5280561.624 7   4114709.73622
  23154525.1364   -6161799.45646  -4640741.29361
  22773965.737    -8957182.447 6  -6979594.18721
  20607983.1204   -1621439.20147
  23182195.0034   -6426761.61945  -4799645.07761
  21684320.847   -14179757.729 7 -11049155.06022
 91  5 14 19 23 29.9990000  0  6G18G16G11G19G 6G 2
  21700630.542     5312521.822 7   4139613.70921
  23151559.7924   -6177367.11045  -4652871.95761
  22770847.9404   -8973526.83246  -6992330.01261
  20607998.4644   -1621364.62347
  23174144.2304   -6469050.19545  -4832597.17761
  21675893.605   -14224039.204 7 -11083660.04722
 91  5 14 19 23 44.9990000  0  6G18G16G11G19G 6G 2
  21706727.597     5344559.675 7   4164578.19121
  23148620.8154   -6192803.10445  -4664900.02061
  22767771.3474   -8989726.77146  -7004953.27661
  20608021.2844   -1621243.49247
  23166098.940    -6511326.738 5  -4865539.88121
  21667480.8554  -14268248.60647 -11118108.87862
 91  5 14 19 23 59.9990000  0  6G18G16G11G19G 6G 2
  21712839.362     5376674.104 7   4189602.34621
  23145713.0894   -6208107.77146  -4676825.75461
  22764712.4804   -9005782.77646  -7017464.38961
  20608057.6514   -1621076.53246
  23158055.487    -6553591.832 5  -4898473.66621
  21659083.6594  -14312386.41147 -11152501.91762
 91  5 14 19 24 14.9990000  0  6G18G16G11G19G 6G 2
  21718964.683     5408869.370 7   4214689.48921
  23142821.8624   -6223276.63545  -4688645.66161
  22761687.9564   -9021690.50246  -7029859.95661
  20608093.6284   -1620859.36847
  23150018.675    -6595841.194 5  -4931395.19521
  21650696.714   -14356448.202 7 -11186835.73122
 91  5 14 19 24 29.9990000  0  6G18G16G11G19G 6G 2
  21725104.901     5441133.094 7   4239829.97222
  23139961.159    -6238322.320 6  -4700369.62221
  22758687.9254   -9037461.96846  -7042149.33961
  20608145.7614   -1620604.14447  -1262809.57862
  23141978.198    -6638087.094 5  -4964314.02021
  21642324.7694  -14400446.27047 -11221119.87962
 91  5 14 19 24 44.9990000  0  6G18G16G11G19G 6G 2
  21731260.370     5473477.656 7   4265033.45621
  23137123.3234   -6253232.15646  -4711987.67261
  22755712.425    -9053084.431 6  -7054322.63621
  20608200.292    -1620298.220 7  -1262571.20422
  23133944.136    -6680316.905 5  -4997220.33221
  21633967.1984  -14444367.83947 -11255344.41362
 91  5 14 19 24 59.9990000  0  6G18G16G11G19G 6G 2
  21737429.480     5505900.266 7   4290297.75321
  23134308.9174   -6268008.52745  -4723501.78161
  22752771.4804   -9068560.43646  -7066381.80361
  20608268.2614   -1619944.12847  -1262295.29762
  23125910.4404   -6722533.24845  -5030116.12961
  21625623.222   -14488215.259 7 -11289511.17922
 91  5 14 19 25 14.9990000  0  6G18G16G11G19G 6G 2
  21743615.323     5538403.603 7   4315624.94521
  23131524.3314   -6282648.48846  -4734909.54361
  22749850.2304   -9083886.77646  -7078324.34661
  20608344.1444   -1619538.73847  -1261979.42462
  23117877.745    -6764732.979 5  -5062998.97921
  21617294.769   -14531985.561 7 -11323617.85422
 91  5 14 19 25 29.9990000  0  6G18G16G11G19G 6G 2
  21749814.245     5570981.091 6   4341009.92121
  23128763.323    -6297158.553 5  -4746216.12321
  22746966.4174   -9099069.75146  -7090155.18261
  20608431.9804   -1619088.42847  -1261628.54662
  23109850.1674   -6806922.63845  -5095873.98161
  21608977.0974  -14575685.05447 -11357669.34662
 91  5 14 19 25 44.9990000  0  6G18G16G11G19G 6G 2
  21756028.0114    5603634.24046   4366453.85361
  23126031.6364   -6311536.96046  -4757420.11761
  22744098.0264   -9114107.65546  -7101872.96961
  20608525.722    -1618591.556 7  -1261241.38322
  23101825.120    -6849100.561 5  -5128739.85321
  21600676.230   -14619312.086 7 -11391664.38422
 91  5 14 19 25 59.9990000  0  6G18G16G11G19G 6G 2
  21762256.425     5636360.898 6   4391955.07021
  23123313.706    -6325785.838 5  -4768523.17021
  22741266.5034   -9129002.38446  -7113479.19061
  20608630.362    -1618049.831 7  -1260819.27322
  23093801.440    -6891268.799 5  -5161598.17321
  21592386.065   -14662868.448 7 -11425604.35822
 91  5 14 19 26 14.9990000  0  6G18G16G11G19G 6G 2
  21768498.230     5669157.980 6   4417511.16421
  23120624.956    -6339908.263 5  -4779527.69321
  22738458.4014   -9143756.97946  -7124976.21561
  20608739.323    -1617466.488 7  -1260364.73822
  23085778.8234   -6933430.43445  -5194451.34061
  21584110.4564  -14706357.08747 -11459491.55762
 91  5 14 19 26 29.9990000  0  6G18G16G11G19G 6G 2
  21774752.128     5702030.020 6   4443125.65821
  23117969.089    -6353898.792 6  -4790429.41321
  22735680.737    -9158366.117 6  -7136359.88721
  20608858.605    -1616836.422 7  -1259873.79422
  23077756.230    -6975580.284 5  -5227295.34021
  21575850.081   -14749772.858 7 -11493321.97222
 91  5 14 19 26 44.9990000  0  6G18G16G11G19G 6G 2
  21781023.940     5734977.839 6   4468799.20121
  23115330.487    -6367757.126 5  -4801228.17021
  22732925.5974   -9172828.84946  -7147629.48761
  20608987.440    -1616158.810 7  -1259345.79722
  23069734.3474   -7017717.65045  -5260129.59661
  21567603.1984  -14793114.89947 -11527094.93562
 91  5 14 19 26 59.9990000  0  6G18G16G11G19G 6G 2
  21787306.245     5767997.397 6   4494528.64921
  23112714.573    -6381486.902 5  -4811926.74721
  22730201.355    -9187148.843 6  -7158787.86921
  20609130.003    -1615437.233 7  -1258783.54022
  23061718.667    -7059846.290 5  -5292957.05521
  21559365.800   -14836386.729 7 -11560813.19222
 91  5 14 19 27 14.9990000  0  6G18G16G11G19G 6G 2
  21793603.948     5801092.142 6   4520316.68621
  23110131.644    -6395084.625 6  -4822522.37821
  22727504.5034   -9201322.41046  -7169832.14261
  20609272.425    -1614668.032 7  -1258184.18022
  23053706.1204   -7101962.66645  -5325774.95961
  21551147.401   -14879584.836 7 -11594473.99922
 91  5 14 19 27 29.9990000  0  6G18G16G11G19G 6G 2
  21799916.050     5834266.547 6   4546166.79421
  23107570.909    -6408545.509 5  -4833011.41121
  22724835.5734   -9215344.66646  -7180758.50761
  20609431.2374   -1613846.37947  -1257543.94362
  23045695.105    -7144061.877 5  -5358579.49621
  21542941.589   -14922704.335 7 -11628073.55822
 91  5 14 19 27 44.9990000  0  6G18G16G11G19G 6G 2
  21806243.292     5867510.945 6   4572071.43721
  23105031.198    -6421879.059 6  -4843401.23521
  22722195.1124   -9229224.79446  -7191574.13561
  20609592.9094   -1612981.76647  -1256870.22662
  23037685.5504   -7186153.32145  -5391377.98261
  21534750.370   -14965754.315 7 -11661618.94822
 91  5 14 19 27 59.9990000  0  6G18G16G11G19G 6G 2
  21812582.612     5900828.690 6   4598033.23221
  23102520.8234   -6435081.86846  -4853689.16161
  22719582.878    -9242959.604 6  -7202276.51221
  20609766.6754   -1612070.82447  -1256160.41162
  23029678.1284   -7228233.94045  -5424168.03161
  21526569.753   -15008731.711 7 -11695107.77922
 91  5 14 19 28 14.9990000  0  6G18G16G11G19G 6G 2
  21818937.3624    5934220.72346   4624052.91161
  23100032.1124   -6448152.47745  -4863874.10461
  22716997.6364   -9256547.59146  -7212864.49261
  20609947.433    -1611112.162 7  -1255413.41522
  23021671.9014   -7270302.16545  -5456948.42661
  21518408.730   -15051634.817 7 -11728538.71222
 91  5 14 19 28 29.9990000  0  6G18G16G11G19G 6G 2
  21825306.5734    5967682.41246   4650126.86661
  23097567.378    -6461095.241 5  -4873959.41321
  22714438.331    -9269993.028 6  -7223341.40221
  20610141.183    -1610110.152 7  -1254632.64222
  23013664.628    -7312362.503 5  -5489722.66521
  21510256.190   -15094468.056 7 -11761915.21122
 91  5 14 19 28 44.9990000  0  6G18G16G11G19G 6G 2
  21831688.269     6001227.260 6   4676265.62721
  23095139.6514   -6473897.38446  -4883935.12161
  22711909.5584   -9283282.39146  -7233696.67961
  20610341.5504   -1609051.21047  -1253807.50062
  23005663.019    -7354401.538 5  -5522480.30121
  21502121.3084  -15137218.05647 -11795226.84562
 91  5 14 19 28 59.9990000  0  6G18G16G11G19G 6G 2
  21838085.401     6034843.919 6   4702460.35321
  23092722.9724   -6486569.62345  -4893809.63461
  22709405.8394   -9296426.43646  -7243938.73561
  20610555.3864   -1607946.30047  -1252946.53862
  22997668.448    -7396430.210 5  -5555229.86121
  21494000.1834  -15179895.51547 -11828481.95262
 91  5 14 19 29 14.9990000  0  6G18G16G11G19G 6G 2
  21844495.589     6068527.999 6   4728707.61321
  23090328.503    -6499116.247 5  -4903586.28221
  22706935.401    -9309429.430 6  -7254070.89621
  20610768.3084   -1606799.68947  -1252053.08562
  22989673.1594   -7438452.79146  -5587974.70361
  21485890.894   -15222504.613 7 -11861683.79122
 91  5 14 19 29 29.9990000  0  6G18G16G11G19G 6G 2
  21850922.175     6102292.830 6   4755017.78721
  23087972.581    -6511523.808 6  -4913254.50921
  22704489.4404   -9322277.90046  -7264082.62261
  20611000.6364   -1605597.69047  -1251116.47362
  22981679.2534   -7480455.80445  -5620704.28261
  21477800.308   -15265031.867 7 -11894821.86122
 91  5 14 19 29 44.9990000  0  6G18G16G11G19G 6G 2
  21857360.870     6136133.564 6   4781387.10721
  23085636.659    -6523796.848 6  -4922817.95921
  22702068.815    -9334976.147 6  -7273977.29921
  20611237.2764   -1604344.88547  -1250140.26962
  22973690.2144   -7522443.73245  -5653422.09261
  21469720.0194  -15307481.81547 -11927899.68762
 91  5 14 19 29 59.9990000  0  6G18G16G11G19G 6G 2
  21863815.651     6170047.136 6   4807813.17921
  23083327.7764   -6535938.31045  -4932278.87561
  22699682.831    -9347526.829 6  -7283757.00221
  20611486.5734   -1603043.87946  -1249126.50062
  22965704.730    -7564419.383 6  -5686130.34321
  21461656.878   -15349857.035 7 -11960919.29022
 91  5 14 19 30 14.9990000  0  6G18G16G11G19G 6G 2
  21870281.542     6204033.705 6   4834296.13921
  23081038.8864   -6547947.63745  -4941636.83261
  22697324.6204   -9359929.55946  -7293421.40761
  20611740.9014   -1601694.34947  -1248074.92762
  22957715.276    -7606382.448 5  -5718828.82121
  21453607.456   -15392157.214 7 -11993880.42522
 91  5 14 19 30 29.9980000  0  6G18G16G11G19G 6G 2
  21876763.256     6238094.351 6   4860836.82321
  23078779.9204   -6559820.88946  -4950888.74861
  22694988.459    -9372180.125 6  -7302967.25321
  20612008.5374   -1600293.14147  -1246983.08462
  22949733.857    -7648326.740 5  -5751512.62521
  21445573.475   -15434375.879 7 -12026778.04422
 91  5 14 19 30 44.9980000  0  6G18G16G11G19G 6G 2
  21883258.248     6272226.681 6   4887433.35821
  23076549.2724   -6571566.59746  -4960041.29161
  22692687.4594   -9384286.78546  -7312400.95061
  20612282.4044   -1598846.56247  -1245855.88862
  22941758.357    -7690264.549 6  -5784191.41021
  21437555.7874  -15476525.23947 -12059621.66262
 91  5 14 19 30 59.9980000  0  6G18G16G11G19G 6G 2
  21889768.600     6306435.780 6   4914089.71721
  23074337.178    -6583175.810 6  -4969087.46821
  22690412.748    -9396240.842 6  -7321715.75321
  20612569.123    -1597346.866 7  -1244687.30722
  22933778.3574   -7732185.35346  -5816856.94061
  21429546.279   -15518594.737 7 -12092403.04322
 91  5 14 19 31 14.9980000  0  6G18G16G11G19G 6G 2
  21896292.4364    6340720.84646   4940805.26561
  23072157.3264   -6594649.42546  -4978027.97861
  22688165.7404   -9408042.93046  -7330912.13261
  20612862.6864   -1595794.77047  -1243477.89762
  22925801.7324   -7774089.93646
  21421557.584   -15560585.111 7
 91  5 14 19 31 29.9980000  0  6G18G16G11G19G 6G 2
  21902828.9594    6375073.39846   4967573.40261
  23069991.467    -6605995.578 5  -4986869.18021
  22685945.881    -9419701.048 6  -7339996.33121
  20613171.9984   -1594198.48946  -1242234.05262
  22917835.209    -7815986.282 6
  21413579.842   -15602504.373 7
 91  5 14 19 31 44.9980000  0  6G18G16G11G19G 6G 2
  21909382.3734    6409504.50546   4994402.75161
  23067865.076    -6617203.470 6  -4995602.62321
  22683760.732    -9431204.212 6  -7348959.79121
  20613481.615    -1592546.840 7  -1240947.07222
  22909864.959    -7857863.456 6
  21405617.537   -15644341.507 7
 91  5 14 19 31 59.9980000  0  6G18G16G11G19G 6G 2
  21915948.053     6444007.910 6   5021288.43821
  23065757.0534   -6628278.87446  -5004232.85461
  22681598.459    -9442558.132 6  -7357806.94921
  20613806.865    -1590845.545 7  -1239621.40322
  22901898.0454   -7899727.20646  -5947408.86561
  21397671.412   -15686102.076 7 -12222928.06522
 91  5 14 19 32 14.9980000  0  6G18G16G11G19G 6G 2
  21922526.7644    6478580.41146   5048227.96361
  23063669.943    -6639225.013 5  -5012762.37221
  22679468.123    -9453765.779 6  -7366540.12621
  20614137.264    -1589097.643 7  -1238259.41022
  22893933.5224   -7941580.66746  -5980021.91761
  21389739.561   -15727789.070 7 -12255411.39022
 91  5 14 19 32 29.9980000  0  6G18G16G11G19G 6G 2
  21929121.787     6513225.132 6   5075223.76821
  23061615.147    -6650038.646 6  -5021188.60721
  22677361.2484   -9464823.72446  -7375156.65261
  20614481.5374   -1587299.53547  -1236858.30162
  22885967.5224   -7983420.54546  -6012624.38661
  21381821.756   -15769399.072 7 -12287834.72322
 91  5 14 19 32 44.9980000  0  6G18G16G11G19G 6G 2
  21935727.1234    6547939.29546   5102273.67361
  23059581.9754   -6660722.08946  -5029513.39761
  22675282.4124   -9475734.43046  -7383658.47461
  20614829.803    -1585453.897 7  -1235420.15222
  22878009.193    -8025249.326 6  -6045218.18921
  21373916.647   -15810934.507 7 -12320199.95522
 91  5 14 19 32 59.9980000  0  6G18G16G11G19G 6G 2
  21942346.8184    6582732.14046   5129384.89261
  23057575.303    -6671266.432 6  -5037729.81521
  22673241.162    -9486488.513 6  -7392038.22721
  20615196.8734   -1583551.30746  -1233937.62962
  22870057.826    -8067057.628 6  -6077796.03121
  21366027.998   -15852386.010 7 -12352499.77822
 91  5 14 19 33 14.9980000  0  6G18G16G11G19G 6G 2
  21948983.4364    6617599.66146   5156554.30861
  23055593.4904   -6681675.43146  -5045840.75961
  22671222.225    -9497089.766 6  -7400298.89621
  20615566.5534   -1581595.50847  -1232413.63562
  22862101.826    -8108849.322 6  -6110360.95521
  21358156.842   -15893757.295 7 -12384737.09722
 91  5 14 19 33 29.9980000  0  6G18G16G11G19G 6G 2
  21955631.0614    6652539.57046   5183780.12061
  23053638.725    -6691950.756 6  -5053847.54321
  22669231.9204   -9507539.91746  -7408441.83561
  20615949.6394   -1579588.39747  -1230849.65762
  22854151.0374   -8150626.24146  -6142914.35661
  21350299.3734  -15935050.09347 -12416913.26562
 91  5 14 19 33 44.9980000  0  6G18G16G11G19G 6G 2
  21962295.6074    6687550.31546   5211061.13661
  23051707.639    -6702094.107 6  -5061751.50421
  22667272.9364   -9517840.33146  -7416468.08861
  20616337.7874   -1577531.33547  -1229246.76362
  22846203.4594   -8192389.91945  -6175457.44861
  21342454.061   -15976265.978 7 -12449029.49322
 91  5 14 19 33 59.9980000  0  6G18G16G11G19G 6G 2
  21968966.5224    6722628.53446   5238394.72161
  23049801.9674   -6712108.90946  -5069555.27261
  22665338.607    -9527994.207 6  -7424380.16021
  20616741.2644   -1575427.54347  -1227607.44862
  22838251.9904   -8234143.49245  -6207992.62661
  21334626.967   -16017408.069 7 -12481088.22522
 91  5 14 19 34 14.9980000  0  6G18G16G11G19G 6G 2
  21975657.1544    6757778.29646   5265784.05961
  23047920.8114   -6721990.89946  -5077255.55861
  22663436.2564   -9537997.33646  -7432174.76561
  20617149.4984   -1573272.79147  -1225928.42762
  22830315.686    -8275882.930 5  -6240516.80721
  21326811.7954  -16058472.07547 -12513086.10962
 91  5 14 19 34 29.9980000  0  6G18G16G11G19G 6G 2
  21982360.2484    6793001.54246   5293230.65661
  23046068.7404   -6731737.88546
  22661567.6074   -9547847.27246
  20617569.7174   -1571064.61247  -1224207.77362
  22822378.6314   -8317605.72846  -6273028.05461
  21319011.6394  -16099455.59647 -12545021.27862
 91  5 14 19 34 44.9980000  0  6G18G16G11G19G 6G 2
  21989078.279     6828294.515 6   5320731.58921
  23044236.3574   -6741353.54246
  22659718.9594   -9557547.50846
  20617999.8184   -1568806.40047  -1222448.12962
  22814437.2794   -8359315.36345  -6305529.02661
  21311229.529   -16140362.014 7 -12576896.36722
 91  5 14 19 34 59.9980000  0  6G18G16G11G19G 6G 2
  21995805.7404    6863663.01146   5348291.36361
  23042433.0684   -6750831.68846
  22657901.5224   -9567092.00946
  20618441.2254   -1566492.23947  -1220644.88962
  22806504.3654   -8401006.00345  -6338015.17861
  21303462.178   -16181185.356 7 -12608706.72122
 91  5 14 19 35 14.9980000  0  6G18G16G11G19G 6G 2
  22002551.5534    6899101.40546   5375905.61461
  23040655.482    -6760177.890 6
  22656111.9284   -9576486.29546
  20618889.2404   -1564127.49647  -1218802.23262
  22798578.4434   -8442683.05046  -6370490.75961
  21295705.1474  -16221930.94347 -12640456.49362
 91  5 14 19 35 29.9980000  0  6G18G16G11G19G 6G 2
  22009304.8974    6934606.46946   5403571.81261
  23038901.709    -6769395.520 5
  22654350.8574   -9585733.11546
  20619350.8734   -1561715.06947  -1216922.41962
  22790641.9434   -8484349.50345  -6402958.10161
  21287965.311   -16262601.689 7 -12672147.94222
 91  5 14 19 35 44.9980000  0  6G18G16G11G19G 6G 2
  22016075.6004    6970177.24146   5431289.20461
  23037172.4754   -6778485.12545
  22652619.295    -9594833.108 6  -7476462.15021
  20619817.0844   -1559255.68547  -1215006.01162
  22782717.0764   -8526005.94445  -6435417.60461
  21280242.3504  -16303198.07847 -12703781.45362
 91  5 14 19 35 59.9980000  0  6G18G16G11G19G 6G 2
  22022858.506     7005823.196 6   5459065.19421
  23035465.6154   -6787437.12345
  22650919.975    -9603776.629 6  -7483431.09521
  20620294.3814   -1556739.49947  -1213045.34362
  22774803.873    -8567642.760 6  -6467861.82821
  21272533.178   -16343710.470 7 -12735349.50622
 91  5 14 19 36 14.9980000  0  6G18G16G11G19G 6G 2
  22029656.7794    7041539.65646   5486896.11861
  23033789.5534   -6796256.02046
  22649245.7794   -9612568.01246  -7490281.49061
  20620785.1074   -1554170.81247  -1211043.77262
  22766873.1234   -8609264.41945  -6500294.27961
  21264837.8424  -16384143.33347 -12766855.59362
 91  5 14 19 36 29.9980000  0  6G18G16G11G19G 6G 2
  22036467.1934    7077325.59146   5514781.17761
  23032136.9824   -6804942.99246
  22647600.1704   -9621208.32446
  20621288.9674   -1551550.74846  -1209002.16262
  22758952.4044   -8650872.06845  -6532715.75061
  21257159.9284  -16424497.68047 -12798300.50562
 91  5 14 19 36 44.9980000  0  6G18G16G11G19G 6G 2
  22043289.3504    7113182.21046   5542721.31361
  23030509.5924   -6813496.40846
  22645988.8424   -9629695.93846
  20621792.4514   -1548877.56447  -1206919.15662
  22751038.9824   -8692463.98145  -6565124.98461
  21249495.2644  -16464771.80747 -12829682.90562
 91  5 14 19 36 59.9980000  0  6G18G16G11G19G 6G 2
  22050125.3654    7149106.17546   5570713.93161
  23028905.8264   -6821920.03146
  22644402.8344   -9638034.23346
  20622313.3654   -1546154.70646  -1204797.44862
  22743131.443    -8734043.539 6  -6597524.58221
  21241844.9674  -16504968.95947 -12861005.32162
 91  5 14 19 37 14.9980000  0  6G18G16G11G19G 6G 2
  22056975.318     7185104.259 6   5598764.29821
  23027325.482    -6830206.392 5        -0.24631
  22642842.9594   -9646215.71146  -7516500.34261
  20622839.1544   -1543374.88247  -1202631.35262
  22735225.115    -8775603.314 6  -6629908.80421
  21234212.2794  -16545081.86347 -12892262.09162
 91  5 14 19 37 29.9980000  0  6G18G16G11G19G 6G 2
  22063838.592     7221171.651 6   5626868.67921
  23025774.3344   -6838360.25946     -6353.94861
  22641316.4514   -9654244.98346  -7522756.88061
  20623379.2014   -1540542.52847  -1200424.31962
  22727311.0144   -8817148.04145  -6662281.26961
  21226593.7094  -16585114.86547 -12923456.60162
 91  5 14 19 37 44.9980000  0  6G18G16G11G19G 6G 2
  22070714.647     7257307.430 6   5655026.34521
  23024252.8114   -6846382.11346    -12604.77661
  22639816.9204   -9662122.63246  -7528895.27561
  20623926.5224   -1537658.07947  -1198176.70262
  22719407.787    -8858678.188 5  -6694642.35021
  21218990.662   -16625068.453 7 -12954589.22422
 91  5 14 19 37 59.9980000  0  6G18G16G11G19G 6G 2
  22077603.811     7293513.830 6   5683239.04721
  23022752.9044   -6854269.85946    -18751.10361
  22638348.1784   -9669846.46046  -7534913.81761
  20624487.1934   -1534719.25547  -1195886.71162
  22711511.2794   -8900191.67345  -6726990.47761
  21211403.123   -16664940.426 7 -12985658.24822
 91  5 14 19 38 14.9980000  0  6G18G16G11G19G 6G 2
  22084507.943     7329788.310 6   5711504.78921
  23021273.279    -6862025.781 6    -24794.73421
  22636908.9434   -9677418.65346  -7540814.19461
  20625054.3734   -1531728.34747  -1193556.13162
  22703614.9364   -8941690.68746  -6759327.32961
  21203832.2174  -16704733.21547 -13016665.57962
 91  5 14 19 38 29.9980000  0  6G18G16G11G19G 6G 2
  22091422.998     7366128.398 6   5739821.66321
  23019825.240    -6869652.583 6    -30737.72521
  22635493.5374   -9684841.47846  -7546598.18261
  20625634.7324   -1528687.66847  -1191186.76962
  22695719.662    -8983177.582 6  -6791654.73121
  21196274.1624  -16744448.88247 -13047612.81062
 91  5 14 19 38 44.9980000  0  6G18G16G11G19G 6G 2
  22098351.2014    7402537.01746   5768191.92961
  23018396.225    -6877147.438 5    -36577.91821
  22634105.7094   -9692111.75346  -7552263.30061
  20626222.9674   -1525593.87047  -1188776.01562
  22687833.826    -9024649.088 6  -6823970.13221
  21188731.3264  -16784084.14047 -13078497.39362
 91  5 14 19 38 59.9980000  0  6G18G16G11G19G 6G 2
  22105291.5454    7439009.14246   5796611.68261
  23016997.6394   -6884514.62646    -42318.61861
  22632751.5614   -9699234.12246  -7557813.17061
  20626821.3974   -1522451.58347  -1186327.48262
  22679941.600    -9066109.913 6  -6856277.24421
  21181202.7644  -16823643.51147 -13109322.83762
 91  5 14 19 39 14.9980000  0  6G18G16G11G19G 6G 2
  22112244.373     7475548.872 6   5825084.11621
  23015618.529    -6891750.067 6    -47956.67521
  22631432.4514   -9706204.31546  -7563244.45661
  20627429.1314   -1519256.67647  -1183837.94462
  22672052.8034   -9107555.96746  -6888572.81261
  21173690.9434  -16863122.91947 -13140085.97162
 91  5 14 19 39 29.9980000  0  6G18G16G11G19G 6G 2
  22119210.6394    7512156.15946   5853609.19461
  23014269.967    -6898853.740 6    -53492.04321
  22630131.5294   -9713022.18346  -7568557.04461
  20628052.6004   -1516008.78646  -1181307.12462
  22664165.772    -9148986.874 6  -6920856.59421
  21166194.8574  -16902521.96847 -13170786.48862
 91  5 14 19 39 44.9980000  0  6G18G16G11G19G 6G 2
  22126188.420     7548830.675 6   5882186.65221
  23012938.7484   -6905826.30746    -58925.25861
  22628862.147    -9719687.961 6  -7573751.12021
  20628674.1004   -1512708.06647  -1178735.13762
  22656289.0844   -9190402.83046  -6953128.71561
  21158711.2484  -16941840.89747 -13201424.58362
 91  5 14 19 39 59.9980000  0  6G18G16G11G19G 6G 2
  22133184.4674    7585574.93046   5910818.45561
  23011640.397    -6912664.809 6    -64254.01321
  22627623.436    -9726198.662 6  -7578824.36521
  20629318.6154   -1509351.64846  -1176119.75062
  22648411.2014   -9231800.96046  -6985386.95261
  21151244.9514  -16981076.75447 -13231997.94462
 91  5 14 19 40 14.9980000  0  6G18G16G11G19G 6G 2
  22140187.6784    7622383.59146   5939500.44461
  23010363.881    -6919374.315 6    -69482.22321
  22626406.279    -9732559.257 6  -7583780.63321
  20629961.5064   -1505944.72347  -1173465.00362
  22640533.139    -9273186.424 5  -7017635.33021
  21143793.311   -17020234.533 7 -13262510.45522
 91  5 14 19 40 29.9980000  0  6G18G16G11G19G 6G 2
  22147204.186     7659255.781 6   5968231.93721
  23009110.951    -6925955.373 6    -74610.36721
  22625231.264    -9738770.266 6  -7588620.33821
  20630620.6394   -1502487.52846  -1170771.08862
  22632659.8734   -9314559.81246  -7049874.26961
  21136357.1934  -17059314.64747 -13292962.45162
 91  5 14 19 40 44.9980000  0  6G18G16G11G19G 6G 2
  22154233.553     7696196.554 6   5997016.86521
  23007883.0144   -6932402.77946    -79634.37561
  22624074.693    -9744826.527 6  -7593339.45521
  20631287.6234   -1498974.98247  -1168034.04862
  22624796.264    -9355915.751 6  -7082099.62921
  21128935.9204  -17098311.96147 -13323349.93362
 91  5 14 19 40 59.9980000  0  6G18G16G11G19G 6G 2
  22161274.428     7733204.754 6   6025854.34321
  23006686.459    -6938717.676 6    -84555.10021
  22622953.506    -9750729.251 6  -7597938.94421
  20631967.7254   -1495407.92746  -1165254.52662
  22616923.7254   -9397255.44846  -7114312.33961
  21121530.545   -17137227.564 7 -13353673.73722
 91  5 14 19 41 14.9980000  0  6G18G16G11G19G 6G 2
  22168332.0844    7770276.65146   6054741.44861
  23005505.6934   -6944904.12946    -89375.76561
  22621859.779    -9756481.893 6  -7602421.47821
  20632656.6004   -1491789.86847  -1162435.26062
  22609055.3814   -9438582.40845  -7146515.10561
  21114139.6544  -17176064.79347 -13383936.47062
 91  5 14 19 41 29.9980000  0  6G18G16G11G19G 6G 2
  22175397.1394    7807413.62646   6083679.26061
  23004354.217    -6950960.169 6    -94094.81521
  22620792.9904   -9762082.69446  -7606785.70461
  20633358.3184   -1488118.99246  -1159574.84362
  22601201.8034   -9479894.75446  -7178706.47961
  21106764.9594  -17214821.78247 -13414136.68862
 91  5 14 19 41 44.9980000  0  6G18G16G11G19G 6G 2
  22182477.2874    7844617.05946   6112668.85461
  23003227.639    -6956884.485 6    -98711.21221
  22619753.725    -9767530.033 6  -7611030.33921
  20634062.6314   -1484393.66747  -1156671.99662
  22593339.7324   -9521190.94046  -7210885.29261
  21099404.8344  -17253497.11047 -13444273.27262
 91  5 14 19 41 59.9980000  0  6G18G16G11G19G 6G 2
  22189567.4044    7881883.94046   6141707.89661
  23002123.8814   -6962680.32945   -103227.48361
  22618749.834    -9772826.854 6  -7615157.69321
  20634781.5374   -1480616.78646  -1153728.97962
  22585480.2014   -9562474.04045  -7243053.89061
  21092060.9364  -17292093.53347 -13474348.37262
 91  5 14 19 42 14.9980000  0  6G18G16G11G19G 6G 2
  22196675.2094    7919218.60746   6170799.74761
  23001046.076    -6968342.977 5   -107639.99221
  22617774.6004   -9777968.34546  -7619164.01761
  20635509.4514   -1476783.43247  -1150741.95662
  22577635.748    -9603739.146 6  -7275208.46021
  21084731.9984  -17330606.18847 -13504358.20162
 91  5 14 19 42 29.9980000  0  6G18G16G11G19G 6G 2
  22203790.8894    7956617.47446   6199941.64061
  22999993.334    -6973875.633 5   -111951.19121
  22616826.9674   -9782957.91846  -7623051.95461
  20636253.8654   -1472896.97646  -1147713.56162
  22569783.8574   -9644989.57646  -7307351.60661
  21077418.2644  -17369038.48347 -13534305.40362
 91  5 14 19 42 44.9980000  0  6G18G16G11G19G 6G 2
  22210918.5764    7994074.96746   6229129.20861
  22998964.2174   -6979284.15845   -116165.65861
  22615900.5534   -9787801.17646  -7626825.88361
  20637001.5064   -1468962.90747  -1144648.05962
  22561927.631    -9686230.983 5  -7339487.73321
  21070118.1934  -17407396.07447 -13564194.39562
 91  5 14 19 42 59.9980000  0  6G18G16G11G19G 6G 2
  22218060.8814    8031600.28246   6258369.62061
  22997956.1784   -6984559.01245   -120275.98361
  22615006.4824   -9792488.46446  -7630478.26861
  20637760.850    -1464971.529 6  -1141537.90822
  22554091.131    -9727453.600 6  -7371609.17921
  21062836.4984  -17445668.91547 -13594017.35262
 91  5 14 19 43 14.9980000  0  6G18G16G11G19G 6G 2
  22225211.6394    8069186.62946   6287657.58761
  22996975.365    -6989706.863 5   -124287.34121
  22614144.9594   -9797026.34446  -7634014.24861
  20638528.4044   -1460929.63047  -1138388.38762
  22546245.514    -9768664.149 6  -7403721.28121
  21055567.6394  -17483863.85647 -13623779.60662
 91  5 14 19 43 29.9980000  0  6G18G16G11G19G 6G 2
  22232377.3574    8106832.92846   6316992.26561
  22996021.318    -6994729.025 5   -128200.75821
  22613307.8654   -9801415.76946  -7637434.55461
  20639307.3894   -1456837.85546  -1135200.00062
  22538405.7794   -9809863.48646  -7435824.59561
  21048314.0844  -17521981.54347 -13653481.66262
 91  5 14 19 43 44.9980000  0  6G18G16G11G19G 6G 2
  22239552.5534    8144534.40546   6346369.94161
  22995091.584    -6999629.531 5   -132019.39521
  22612500.7094   -9805661.14646  -7640742.60461
  20640094.1864   -1452700.54447  -1131976.13262
  22530570.0684   -9851055.98246  -7467922.60361
  21041074.7324  -17560026.35547 -13683126.93862
 91  5 14 19 43 59.9980000  0  6G18G16G11G19G 6G 2
  22246739.2874    8182296.49746   6375794.85861
  22994180.811    -7004403.231 5   -135739.21421
  22611719.389    -9809757.004 6  -7643934.15421
  20640895.5924   -1448512.14446  -1128712.45362
  22522729.607    -9892236.019 6  -7500010.89721
  21033848.8504  -17597992.72147 -13712711.08062
 91  5 14 19 44 14.9980000  0  6G18G16G11G19G 6G 2
  22253931.3424    8220120.10046   6405267.70061
  22993294.193    -7009049.073 5   -139359.39321
  22610975.100    -9813702.073 6  -7647008.21121
  20641697.9674   -1444271.26747  -1125407.88262
  22514897.5294   -9933402.48446  -7532088.60461
  21026639.7484  -17635879.41247 -13742233.13662
 91  5 14 19 44 29.9980000  0  6G18G16G11G19G 6G 2
  22261141.561     8258005.536 6   6434788.71821
  22992440.7874   -7013566.47545   -142879.50561
  22610246.537    -9817495.756 6  -7649964.31221
  20642516.6864   -1439977.46646  -1122062.07162
  22507073.1544   -9974554.74846  -7564155.25361
  21019445.5144  -17673685.94447 -13771692.73762
 91  5 14 19 44 44.9980000  0  6G18G16G11G19G 6G 2
  22268366.3894    8295955.42146   6464359.95961
  22991608.943    -7017952.883 5   -146297.51521
  22609554.4204   -9821135.25546  -7652800.25561
  20643341.5924   -1435627.65747  -1118672.62062
  22499234.889   -10015689.945 6  -7596208.61421
  21012266.1154  -17711409.26747 -13801087.50262
 91  5 14 19 44 59.9980000  0  6G18G16G11G19G 6G 2
  22275599.061     8333962.913 6   6493976.08521
  22990792.795    -7022214.893 5   -149618.60721
  22608890.811    -9824627.117 6  -7655521.17621
  20644181.6004   -1431228.50646  -1115244.72262
  22491413.3814  -10056814.58546  -7628253.72361
  21005103.4364  -17749055.77547 -13830422.40962
 91  5 14 19 45 14.9980000  0  6G18G16G11G19G 6G 2
  22282842.7794    8372028.11346   6523637.18161
  22990005.2794   -7026352.56245   -152842.81261
  22608255.2324   -9827971.24546  -7658126.95661
  20645024.5374   -1426779.75747  -1111778.17462
  22483589.264   -10097928.556 6  -7660290.54721
  20997954.1704  -17786625.41647 -13859697.41962
 91  5 14 19 45 29.9980000  0  6G18G16G11G19G 6G 2
  22290096.834     8410153.544 6   6553345.20621
  22989242.107    -7030363.287 5   -155968.09321
  22607644.0454   -9831165.01246  -7660615.59561
  20645884.404    -1422278.646 6  -1108270.82722
  22475771.7094  -10139029.10746  -7692316.88561
  20990818.5064  -17824115.49647 -13888910.44262
 91  5 14 19 45 44.9980000  0  6G18G16G11G19G 6G 2
  22297364.3504    8448345.22346   6583104.85461
  22988503.1544   -7034240.67745   -158989.48761
  22607071.037    -9834201.839 6  -7662981.93921
  20646749.2724   -1417718.46847  -1104717.45262
  22467950.0224  -10180109.73846  -7724327.73261
  20983701.5764  -17861519.26447 -13918056.20362
 91  5 14 19 45 59.9980000  0  6G18G16G11G19G 6G 2
  22304641.834     8486590.929 6   6612906.59621
  22987789.795    -7037996.911 5   -161916.46921
  22606522.967    -9837093.815 6  -7665235.40221
  20647630.2794   -1413111.45347  -1101127.58262
  22460138.4754  -10221182.55546  -7756332.46661
  20976597.4824  -17898849.03647 -13947144.30862
 91  5 14 19 46 14.9980000  0  6G18G16G11G19G 6G 2
  22311932.9044    8524901.03146   6642758.52561
  22987099.3894   -7041621.92745   -164741.20361
  22605994.936    -9839830.643 6  -7667367.98221
  20648515.568    -1408447.008 7  -1097492.96022
  22452320.678   -10262237.069 6  -7788322.95821
  20969509.2874  -17936094.01747 -13976166.33262
 91  5 14 19 46 29.9980000  0  6G18G16G11G19G 6G 2
  22319233.701     8563268.079 6   6672654.81821
  22986435.0374   -7045122.73945   -167469.13961
  22605505.6934   -9842419.37146  -7669385.15961
  20649414.3504   -1403732.12547  -1093819.03962
  22444515.4754  -10303280.26146  -7820304.60161
  20962438.1004  -17973261.46247 -14005127.94362
 91  5 14 19 46 44.9980000  0  6G18G16G11G19G 6G 2
  22326545.826     8601692.932 6   6702596.15821
  22985788.779    -7048498.047 5   -170099.30521
  22605041.607    -9844858.815 6  -7671286.00821
  20650320.748    -1398965.603 7  -1090104.88122
  22436704.0144  -10344311.01046  -7852276.57761
  20955379.8734  -18010350.25347 -14034028.26562
 91  5 14 19 46 59.9980000  0  6G18G16G11G19G 6G 2
  22333867.639     8640176.870 6   6732583.53421
  22985173.748    -7051747.036 5   -172631.02521
  22604606.959    -9847147.569 6  -7673069.42721
  20651237.303    -1394145.997 6  -1086349.35822
  22428898.3344  -10385327.88046  -7884237.71461
  20948338.1074  -18047358.71247 -14062865.98962
 91  5 14 19 47 14.9980000  0  6G18G16G11G19G 6G 2
  22341205.498     8678721.468 6   6762618.17921
  22984579.3114   -7054867.64245   -175062.72461
  22604200.115    -9849283.861 6  -7674734.05121
  20652163.193    -1389271.488 7  -1082551.06122
  22421097.920   -10426328.987 6  -7916186.56521
  20941311.0224  -18084284.88947 -14091639.60262
 91  5 14 19 47 29.9980000  0  6G18G16G11G19G 6G 2
  22348549.170     8717321.463 6   6792695.99821
  22984011.772    -7057865.590 5   -177398.84021
  22603823.514    -9851272.768 6  -7676283.83421
  20653102.834    -1384347.120 6  -1078713.90822
  22413294.3734  -10467319.39646  -7948127.12461
  20934299.5614  -18121133.93047 -14120353.10462
 91  5 14 19 47 44.9980000  0  6G18G16G11G19G 6G 2
  22355906.951     8755976.104 6   6822816.38821
  22983462.873    -7060741.261 5   -179639.67221
  22603471.326    -9853114.966 6  -7677719.30021
  20654047.725    -1379373.089 7  -1074838.05322
  22405498.4904  -10508299.60446  -7980059.68361
  20927300.6314  -18157906.31147 -14149006.87262
 91  5 14 19 47 59.9980000  0  6G18G16G11G19G 6G 2
  22363271.576     8794689.383 6   6852982.47121
  22982933.967    -7063490.694 5   -181782.14421
  22603148.256    -9854806.263 6  -7679037.17521
  20655008.201    -1374345.140 6  -1070920.19122
  22397707.607   -10549265.331 6  -8011981.00621
  20920318.8264  -18194597.77447 -14177597.58962
 91  5 14 19 48 14.9980000  0  6G18G16G11G19G 6G 2
  22370650.5454    8833455.31546   6883189.58861
  22982439.357    -7066119.289 5   -183830.45121
  22602852.943    -9856352.474 6  -7680241.99221
  20655970.764    -1369269.175 7  -1066964.90422
  22389907.4754  -10590222.47146  -8043895.61061
  20913350.0454  -18231214.02447 -14206129.69462
 91  5 14 19 48 29.9980000  0  6G18G16G11G19G 6G 2
  22378037.287     8872278.886 6   6913441.60921
  22981960.295    -7068622.328 5   -185780.92421
  22602586.982    -9857748.193 6  -7681329.54421
  20656946.537    -1364139.610 7  -1062967.85922
  22382117.8734  -10631165.52646  -8075799.23561
  20906398.1474  -18267749.71147 -14234599.03162
 91  5 14 19 48 44.9980000  0  6G18G16G11G19G 6G 2
  22385436.006     8911162.666 6   6943740.56421
  22981509.568    -7070996.970 5   -187631.33421
  22602355.350    -9858990.529 6  -7682297.58021
  20657933.178    -1358953.606 7  -1058926.83322
  22374330.9824  -10672091.56646  -8107689.62561
  20899462.1624  -18304201.86447 -14263003.27262
 91  5 14 19 48 59.9980000  0  6G18G16G11G19G 6G 2
  22392848.029     8950095.435 6   6974077.68121
  22981083.928    -7073254.613 5   -189390.59021
  22602143.264    -9860090.706 6  -7683154.84421
  20658934.178    -1353722.220 6  -1054850.44322
  22366537.9124  -10713011.77346  -8139575.43561
  20892539.4824  -18340581.65547 -14291351.12863
 91  5 14 19 49 14.9980000  0  6G18G16G11G19G 6G 2
  22400267.162     8989084.537 6   7004458.68521
  22980675.779    -7075387.881 5   -191052.92121
  22601958.0764   -9861041.36346  -7683895.59961
  20659934.615    -1348437.969 7  -1050732.85722
  22358758.4364  -10753918.69246  -8171450.90961
  20885632.2324  -18376881.57247 -14319636.74662
 91  5 14 19 49 29.9980000  0  6G18G16G11G19G 6G 2
  22407694.412     9028129.770 6   7034883.44021
  22980294.6934   -7077396.73045   -192618.32561
  22601811.8574   -9861842.20646  -7684519.59061
  20660954.990    -1343100.442 6  -1046573.76522
  22350973.803   -10794812.026 6  -8203315.81121
  20878738.6784  -18413101.22347 -14347859.82162
 91  5 14 19 49 44.9980000  0  6G18G16G11G19G 6G 2
  22415134.201     9067230.151 6   7065351.15721
  22979933.3424   -7079282.12945   -194087.52261
  22601683.131    -9862494.043 6  -7685027.50221
  20661976.006    -1337710.417 7  -1042373.76022
  22343197.6474  -10835692.49046  -8235170.65961
  20871861.8184  -18449241.43647 -14376020.99262
 91  5 14 19 49 59.9980000  0  6G18G16G11G19G 6G 2
  22422583.850     9106384.512 6   7095860.94521
  22979600.982    -7081045.027 6   -195461.26021
  22601590.1624   -9862997.96946  -7685420.14161
  20663012.842    -1332268.892 7  -1038133.62422
  22335420.5534  -10876561.12546  -8267016.29861
  20864999.4984  -18485303.03947 -14404120.90262
 91  5 14 19 50 14.9980000  0  6G18G16G11G19G 6G 2
  22430047.5374    9145593.53946   7126413.31361
  22979285.600    -7082684.936 5   -196739.17321
  22601520.701    -9863353.380 6  -7685697.06621
  20664057.279    -1326774.929 7  -1033852.62722
  22327643.4434  -10917417.09646  -8298852.09361
  20858152.0924  -18521285.44647 -14432159.10062
 91  5 14 19 50 29.9980000  0  6G18G16G11G19G 6G 2
  22437520.318     9184859.390 6   7157009.97121
  22978998.6784   -7084199.23745   -197919.19561
  22601482.147    -9863557.684 6
  20665114.3574   -1321226.00346  -1029528.80462
  22319878.186   -10958257.746 6  -8330675.90821
  20851320.3344  -18557185.99247 -14460133.51263
 91  5 14 19 50 44.9980000  0  6G18G16G11G19G 6G 2
  22445001.264     9224179.579 6   7187648.97521
  22978739.420    -7085590.692 5   -199003.49821
  22601472.787    -9863613.158 6
  20666179.756    -1315624.136 7  -1025163.72322
  22312104.998   -10999085.311 6  -8362489.55721
  20844504.5684  -18593006.79347 -14488045.79162
 91  5 14 19 50 59.9980000  0  6G18G16G11G19G 6G 2
  22452495.420     9263557.729 6   7218333.12521
  22978495.701    -7086855.273 5   -199988.94721
  22601489.756    -9863515.923 6
  20667257.029    -1309965.493 6  -1020754.40422
  22304339.2254  -11039895.84846  -8394289.93661
  20837703.1544  -18628743.91447 -14515892.86862
 91  5 14 19 51 14.9980000  0  6G18G16G11G19G 6G 2
  22459997.7094    9302989.99446   7249059.45461
  22978277.654    -7087997.113 6   -200878.75121
  22601535.756    -9863269.818 6
  20668343.295    -1304253.642 7  -1016303.62722
  22296577.8184  -11080693.15346  -8426079.98661
  20830917.709   -18664401.082 7 -14543677.63222
 91  5 14 19 51 29.9980000  0  6G18G16G11G19G 6G 2
  22467513.0224    9342466.60446   7279820.32961
  22978078.6864   -7089025.63445   -201680.24061
  22601609.8974   -9862884.25946
  20669439.0924   -1298498.00546  -1011818.72962
  22288811.6074  -11121486.54946  -8457867.02461
  20824146.709   -18699987.673 7 -14571407.40122
 91  5 14 19 51 44.9980000  0  6G18G16G11G19G 6G 2
  22475035.818     9381995.420 6   7310621.89321
  22977907.4824   -7089932.80445   -202387.17961
  22601712.8734   -9862351.21146  -7684915.98461
  20670543.3974   -1292690.39546  -1007293.33062
  22281053.8974  -11162267.88946  -8489644.63161
  20817389.8654  -18735495.62947 -14599075.90762
 91  5 14 19 51 59.9980000  0  6G18G16G11G19G 6G 2
  22482566.3974    9421575.93846   7341463.73461
  22977761.2014   -7090719.34246   -203000.12161
  22601844.4984   -9861671.23146  -7684386.10061
  20671663.0454   -1286831.20746  -1002727.73762
  22273292.7644  -11203037.77346  -8521413.33161
  20810645.6394  -18770925.16747 -14626683.29962
 91  5 14 19 52 14.9980000  0  6G18G16G11G19G 6G 2
  22490109.6474    9461209.51146   7372346.91961
  22977634.3424   -7091383.65945   -203517.81661
  22601999.139    -9860842.678 6  -7683740.45121
  20672782.647    -1280918.725 7   -998120.62422
  22265537.404   -11243794.173 6  -8553171.50321
  20803920.0534  -18806274.57347 -14654228.25162
 91  5 14 19 52 29.9980000  0  6G18G16G11G19G 6G 2
  22497660.779     9500894.318 6   7403270.03721
  22977529.279    -7091927.237 6   -203941.43821
  22602184.6784   -9859866.96646  -7682980.12061
  20673920.428    -1274954.214 6   -993472.96622
  22257785.084   -11284538.610 6  -8584920.37521
  20797207.8894  -18841545.18847 -14681711.81062
 91  5 14 19 52 44.9980000  0  6G18G16G11G19G 6G 2
  22505220.459     9540635.670 6   7434237.20521
  22977447.5144   -7092345.15045   -204267.13361
  22602396.8894   -9858738.80146  -7682101.00161
  20675065.787    -1268932.181 7   -988780.48522
  22250037.662   -11325265.699 6  -8616655.71721
  20790511.5294  -18876731.79847 -14709129.90962
 91  5 14 19 52 59.9980000  0  6G18G16G11G19G 6G 2
  22512797.4594    9580426.38546   7465242.84761
  22977396.154    -7092644.335 6   -204500.31721
  22602642.7954   -9857465.34146  -7681108.64961
  20676222.6474   -1262859.68246   -984048.67962
  22242282.4044  -11365982.38346  -8648382.97961
  20783832.4284  -18911841.37247 -14736487.98262
 91  5 14 19 53 14.9980000  0  6G18G16G11G19G 6G 2
  22520376.5224    9620267.63446   7496287.85061
  22977358.9824   -7092823.70445
  22602912.811    -9856044.961 6  -7680001.82321
  20677384.7564   -1256735.05347   -979276.25262
  22234543.2794  -11406686.92846  -8680100.75861
  20777164.6544  -18946872.16247 -14763784.66062
 91  5 14 19 53 29.9980000  0  6G18G16G11G19G 6G 2
  22527970.600     9660165.969 6   7527377.35321
  22977349.3814   -7092876.45646
  22603210.7644   -9854471.12846  -7678775.42761
  20678564.225    -1250551.409 6   -974457.84622
  22226800.4434  -11447372.82746  -8711804.01161
  20770515.061   -18981817.684 7 -14791014.89522
 91  5 14 19 53 44.9980000  0  6G18G16G11G19G 6G 2
  22535570.6934    9700113.06446   7558504.83061
  22977361.3574   -7092811.19546
  22603538.592    -9852752.075 6  -7677435.85321
  20679749.654    -1244316.897 7   -969599.79722
  22219055.701   -11488048.136 6  -8743499.01721
  20763879.8424  -19016685.79247 -14818184.81062
 91  5 14 19 53 59.9980000  0  6G18G16G11G19G 6G 2
  22543182.2954    9740113.88646   7589674.19161
  22977395.428    -7092622.722 5
  22603893.522    -9850882.669 6  -7675979.13621
  20680950.045    -1238026.371 6   -964698.10122
  22211319.350   -11528707.601 6  -8775181.65621
  20757261.506   -19051471.190 7 -14845290.27422
 91  5 14 19 54 14.9980000  0  6G18G16G11G19G 6G 2
  22550806.0454    9780165.79546   7620883.34361
  22977458.1624   -7092313.41146
  22604274.9754   -9848865.24746  -7674407.08061
  20682151.756    -1231682.102 7   -959754.53122
  22203586.5684  -11569353.47446  -8806853.71761
  20750657.068   -19086176.170 7 -14872333.07622
 91  5 14 19 54 29.9980000  0  6G18G16G11G19G 6G 2
  22558434.1394    9820265.08646   7652129.42761
  22977538.318    -7091886.841 5   -203910.38621
  22604692.397    -9846703.198 6  -7672722.31221
  20683370.717    -1225287.123 6   -954771.44722
  22195852.248   -11609989.023 6  -8838517.73021
  20744066.732   -19120804.257 7 -14899315.95222
 91  5 14 19 54 44.9980000  0  6G18G16G11G19G 6G 2
  22566074.1934    9860411.86546   7683412.50461
  22977643.8654   -7091343.14846   -203486.80161
  22605129.076    -9844396.393 6  -7670924.76421
  20684598.084    -1218841.406 7   -949748.82522
  22188121.162   -11650614.024 6  -8870173.53121
  20737491.7254  -19155355.26747 -14926238.77362
 91  5 14 19 54 59.9980000  0  6G18G16G11G19G 6G 2
  22573723.2954    9900609.40046   7714735.13861
  22977764.326    -7090678.806 5   -202969.18521
  22605593.9984   -9841941.37146  -7669011.72661
  20685836.607    -1212341.186 6   -944683.73322
  22180396.139   -11691224.885 6  -8901818.30621
  20730931.6934  -19189825.46147 -14953098.63063
 91  5 14 19 55 14.9980000  0  6G18G16G11G19G 6G 2
  22581382.9124    9940861.04746   7746099.93061
  22977915.9754   -7089890.49345   -202354.97561
  22606091.5224   -9839334.78646  -7666980.58461
  20687080.568    -1205782.937 7   -939573.42722
  22172671.834   -11731818.004 6  -8933449.26121
  20724388.4434  -19224211.15147 -14979892.63763
 91  5 14 19 55 29.9980000  0  6G18G16G11G19G 6G 2
  22589053.342     9981162.986 6   7777503.91321
  22978087.412    -7088981.664 5   -201646.84221
  22606616.0224   -9836579.91946  -7664833.89461
  20688341.576    -1199169.989 6   -934420.49522
  22164948.232   -11772396.934 6  -8965069.16221
  20717862.2794  -19258515.87847 -15006623.55163
 91  5 14 19 55 44.9980000  0  6G18G16G11G19G 6G 2
  22596732.2094   10021513.25046   7808945.55961
  22978288.350    -7087954.463 5   -200846.48721
  22607169.7794   -9833678.98146  -7662573.38361
  20689607.998    -1192504.313 7   -929226.47422
  22157227.147   -11812963.396 6  -8996679.33921
  20711347.4044  -19292741.51447 -15033292.84363
 91  5 14 19 55 59.9980000  0  6G18G16G11G19G 6G 2
  22604419.4904   10061919.03246   7840430.45961
  22978504.647    -7086801.927 5   -199948.45521
  22607746.1934   -9830624.66046  -7660193.35361
  20690890.170    -1185778.436 6   -923985.55022
  22149511.3504  -11853510.04746  -9028274.07161
  20704851.9904  -19326880.66447 -15059894.74263
 91  5 14 19 56 14.9980000  0  6G18G16G11G19G 6G 2
  22612120.0614   10102375.22746   7871954.63761
  22978747.162    -7085529.012 5   -198956.63521
  22608357.342    -9827421.710 6  -7657697.50621
  20692179.975    -1178996.888 7   -918701.24222
  22141800.522   -11894041.555 6  -9059857.00821
  20698371.5064  -19360937.88447 -15086432.80063
 91  5 14 19 56 29.9980000  0  6G18G16G11G19G 6G 2
  22619828.9674   10142886.21246   7903521.51361
  22979007.248    -7084131.173 5   -197867.47021
  22608998.3344   -9824065.70346  -7655082.41261
  20693482.779    -1172155.028 6   -913369.94022
  22134090.7484  -11934553.38846  -9091424.62161
  20691905.7324  -19394908.81047 -15112903.61263
 91  5 14 19 56 44.9980000  0  6G18G16G11G19G 6G 2
  22627549.6544   10183451.38746   7935130.62261
  22979299.8424   -7082609.00445   -196681.42461
  22609666.467    -9820557.101 6  -7652348.39121
  20694793.100    -1165253.243 7   -907991.94122
  22126385.139   -11975045.703 6  -9122977.02221
  20685457.7724  -19428793.68347 -15139307.37263
 91  5 14 19 56 59.9980000  0  6G18G16G11G19G 6G 2
  22635276.607    10224072.918 6   7966783.61921
  22979616.232    -7080960.154 5   -195396.65521
  22610365.8504   -9816893.37846  -7649493.49961
  20696120.459    -1158288.963 6   -902565.24722
  22118682.756   -12015516.199 6  -9154512.42521
  20679027.701   -19462589.968 7 -15165642.09523
 91  5 14 19 57 14.9980000  0  6G18G16G11G19G 6G 2
  22643017.990    10264741.353 6   7998473.18221
  22979953.670    -7079193.860 5   -194020.38621
  22611088.2014   -9813083.99746  -7646525.11961
  20697453.818    -1151271.341 6   -897096.98822
  22110986.147   -12055973.862 6  -9186037.82521
  20672609.9594  -19496307.06747 -15191915.11763
 91  5 14 19 57 29.9980000  0  6G18G16G11G19G 6G 2
  22650765.6704   10305464.42346   8030205.31461
  22980315.2564   -7077302.57645   -192546.71461
  22611841.756    -9809121.071 6  -7643437.08421
  20698803.334    -1144192.428 7   -891580.97122
  22103288.162   -12096410.915 6  -9217547.17021
  20666211.201   -19529936.794 7 -15218120.05923
 91  5 14 19 57 44.9980000  0  6G18G16G11G19G 6G 2
  22658527.365    10346233.800 6   8061973.52921
  22980692.303    -7075294.502 5   -190982.04521
  22612624.0224   -9805012.74446  -7640235.75161
  20700158.225    -1137060.076 7   -886023.30622
  22095599.6474  -12136835.17046  -9249046.53061
  20659826.0294  -19563487.33647 -15244263.29963
 91  5 14 19 57 59.9980000  0  6G18G16G11G19G 6G 2
  22666289.8654   10387044.09146   8093773.62361
  22981098.850    -7073174.814 5   -189330.37921
  22613433.2404   -9800764.15346  -7636925.13061
  20701528.842    -1129879.452 6   -880428.03622
  22087904.834   -12177251.691 6  -9280539.88121
  20653456.4984  -19596963.57247 -15270348.64963
 91  5 14 19 58 14.9980000  0  6G18G16G11G19G 6G 2
  22674067.357    10427897.921 6   8125607.64021
  22981522.318    -7070940.868 5   -187589.70821
  22614263.8424   -9796372.54446  -7633503.06261
  20702901.100    -1122647.541 7   -874792.79722
  22080216.7484  -12217657.59346  -9312024.94561
  20647100.4984  -19630362.58147 -15296373.81262
 91  5 14 19 58 29.9980000  0  6G18G16G11G19G 6G 2
  22681849.0844   10468805.93446   8157483.89561
  22981974.5684   -7068582.15045   -185751.79461
  22615136.6314   -9791827.30746  -7629961.28461
  20704291.998    -1115353.715 7   -869109.31422
  22072528.6474  -12258042.08746  -9343493.32361
  20640762.4674  -19663673.66347 -15322330.46363
 91  5 14 19 58 44.9980000  0  6G18G16G11G19G 6G 2
  22689644.7324   10509762.88946   8189398.26961
  22982446.014    -7066104.006 5   -183820.83121
  22616026.123    -9787133.516 6  -7626303.76521
  20705689.428    -1108002.732 7   -863381.28922
  22064852.045   -12298410.160 6  -9374948.91321
  20634439.0064  -19696901.78047 -15348222.46163
 91  5 14 19 58 59.9980000  0  6G18G16G11G19G 6G 2
  22697444.389    10550768.131 6   8221350.27321
  22982937.295    -7063507.001 5   -181797.25321
  22616947.139    -9782291.726 6  -7622530.91321
  20707098.803    -1100594.924 6   -857608.98922
  22057175.811   -12338762.170 6  -9406391.99321
  20628131.0614  -19730047.38947 -15374050.16863
 91  5 14 19 59 14.9980000  0  6G18G16G11G19G 6G 2
  22705259.061    10591818.163 6   8253337.18321
  22983447.2644   -7060794.61345   -179683.74761
  22617900.5454   -9777305.04446  -7618645.16061
  20708518.818    -1093133.434 7   -851794.85422
  22049493.990   -12379101.115 6  -9437824.89721
  20621839.139   -19763113.488 7 -15399815.91822
 91  5 14 19 59 29.9980000  0  6G18G16G11G19G 6G 2
  22713078.428    10632911.329 6   8285357.69021
  22983993.8504   -7057968.29545   -177481.47461
  22618875.748    -9772175.205 6  -7614647.87321
  20709949.639    -1085619.800 6   -845940.09422
  22041819.584   -12419428.612 6  -9469248.85721
  20615561.022   -19796101.760 7 -15425521.02223
 91  5 14 19 59 44.9980000  0  6G18G16G11G19G 6G 2
  22720908.803    10674051.419 6   8317414.76521
  22984551.318    -7055024.329 5   -175187.52821
  22619876.6624   -9766898.47446  -7610536.10461
  20711388.084    -1078049.746 7   -840041.36822
  22034150.6154  -12459740.58646  -9500660.74361
  20609300.4284  -19829008.25447 -15451162.40663
 91  5 14 19 59 59.9980000  0  6G18G16G11G19G 6G 2
  22728746.381    10715237.194 6   8349507.42321
  22985130.717    -7051963.855 5   -172802.81421
  22620908.811    -9761475.590 6  -7606310.47121
  20712841.318    -1070423.917 6   -834099.18122
  22026482.8814  -12500037.89646  -9532061.19061
  20603052.686   -19861833.689 7 -15476740.62623
 91  5 14 20  0 14.9980000  0  6G18G16G11G19G 6G 2
  22736589.7954   10756463.19946   8381631.44361
  22985741.3734   -7048792.48545   -170331.66761
  22621960.9984   -9755911.94346  -7601975.14661
  20714299.443    -1062747.554 7   -828117.61622
  22018817.3894  -12540325.49146  -9563454.07961
  20596820.451   -19894583.124 7 -15502259.62323
 91  5 14 20  0 29.9980000  0  6G18G16G11G19G 6G 2
  22744447.0844   10797733.01646   8413789.61161
  22986365.115    -7045506.268 5   -167771.02621
  22623056.9204   -9750203.85546  -7597527.26661
  20715774.061    -1055016.983 6   -822093.81522
  22011154.1704  -12580599.66246  -9594836.51161
  20590603.1394  -19927252.79647 -15527716.46963
 91  5 14 20  0 44.9980000  0  6G18G16G11G19G 6G 2
  22752303.881    10839046.306 6   8445981.65421
  22987014.5614   -7042105.56045   -165121.18061
  22624166.615    -9744351.468 6  -7592966.96421
  20717251.756    -1047232.201 7   -816027.76422
  22003490.904   -12620860.417 6  -9626208.47721
  20584402.600   -19959842.637 7 -15553111.10723
 91  5 14 20  0 59.9980000  0  6G18G16G11G19G 6G 2
  22760175.4124   10880404.02446   8478208.29861
  22987678.037    -7038589.673 5   -162381.56721
  22625309.9754   -9738353.73146  -7588293.39161
  20718745.779    -1039391.922 6   -809918.47422
  21995831.8424  -12661106.58046  -9657569.06861
  20578216.2174  -19992351.61247 -15578442.73763
 91  5 14 20  1 14.9980000  0  6G18G16G11G19G 6G 2
  22768054.639    10921807.754 5   8510470.80121
  22988365.2014   -7034956.58845   -159550.65261
  22626480.0844   -9732209.06946  -7583505.32861
  20720248.342    -1031494.422 7   -803764.59822
  21988177.5224  -12701336.27746  -9688916.83861
  20572045.9984  -20024777.82147 -15603709.87663
 91  5 14 20  1 29.9980000  0  6G18G16G11G19G 6G 2
  22775941.709    10963258.798 5   8542770.17921
  22989089.6544   -7031204.85645   -156627.27361
  22627674.5534   -9725915.83446  -7578601.50261
  20721765.693    -1023537.858 6   -797564.69122
  21980526.3034  -12741547.83946  -9720250.48361
  20565889.756   -20057119.645 7 -15628911.25623
 91  5 14 20  1 44.9980000  0  6G18G16G11G19G 6G 2
  22783835.0294   11004746.76445   8575098.31761
  22989820.404    -7027345.553 5   -153620.07821
  22628899.959    -9719484.688 6  -7573590.21321
  20723285.897    -1015532.640 7   -791326.87822
  21972874.201   -12781751.636 6  -9751578.06221
  20559750.5684  -20089387.76847 -15654055.20763
 91  5 14 20  1 59.9980000  0  6G18G16G11G19G 6G 2
  22791739.787    11046278.311 5   8607460.39621
  22990571.4364   -7023371.52545   -150523.49361
  22630148.9984   -9712908.60046  -7568465.99161
  20724822.545    -1007471.553 6   -785045.53322
  21965225.686   -12821940.556 6  -9782894.05921
  20553626.7564  -20121575.01947 -15679136.14363
 91  5 14 20  2 14.9980000  0  6G18G16G11G19G 6G 2
  22799647.3814   11087840.93545   8639846.72361
  22991354.014    -7019295.431 5   -147347.37021
  22631424.147    -9706200.041 6  -7563238.52521
  20726361.818     -999366.916 7   -778730.24922
  21957577.295   -12862126.870 6  -9814208.02321
  20547514.490   -20153693.688 7 -15704163.63523
 91  5 14 20  2 29.9980000  0  6G18G16G11G19G 6G 2
  22807568.1624   11129444.77645   8672265.14661
  22992149.397    -7015106.906 5   -144083.63621
  22632728.3504   -9699348.54046  -7557899.69861
  20727913.709     -991207.982 6   -772372.65422
  21949936.0684  -12902299.77146  -9845511.54261
  20541415.772   -20185732.981 7 -15729129.27423
 91  5 14 20  2 44.9980000  0  6G18G16G11G19G 6G 2
  22815491.154    11171094.620 5   8704719.42921
  22992967.9904   -7010801.07845   -140728.51061
  22634061.3184   -9692349.31446  -7552445.74461
  20729476.350     -982989.686 7   -765968.79822
  21942290.7484  -12942454.48546  -9876800.89561
  20535334.951   -20217687.878 7 -15754029.15123
 91  5 14 20  2 59.9980000  0  6G18G16G11G19G 6G 2
  22823425.3344   11212785.64045   8737205.78761
  22993810.678    -7006382.759 5   -137285.71721
  22635423.4204   -9685206.98046  -7546880.28761
  20731053.545     -974716.525 6   -759522.19622
  21934651.428   -12982595.326 6  -9908079.41821
  20529270.0844  -20249562.96947 -15778866.84363
 91  5 14 20  3 14.9980000  0  6G18G16G11G19G 6G 2
  22831367.4904   11254518.58345   8769724.82761
  22994669.4674   -7001851.25545   -133754.73261
  22636808.1234   -9677920.77946  -7541202.72261
  20732637.607     -966387.715 6   -753032.22622
  21927020.826   -13022721.545 6  -9939346.55921
  20523220.256   -20281357.384 7 -15803641.67523
 91  5 14 20  3 29.9980000  0  6G18G16G11G19G 6G 2
  22839319.2324   11296299.14245   8802280.96261
  22995555.1314   -6997201.00545   -130131.23761
  22638226.3264   -9670484.96346  -7535408.59861
  20734235.639     -957997.273 6   -746494.24022
  21919384.1934  -13062826.97746  -9970597.52061
  20517186.2874  -20313065.17147 -15828349.00763
 91  5 14 20  3 44.9980000  0  6G18G16G11G19G 6G 2
  22847278.287    11338116.205 5   8834865.54521
  22996456.6004   -6992442.90745   -126423.68361
  22639658.537    -9662910.531 6  -7529506.45121
  20735839.209     -949556.012 6   -739916.65222
  21911755.365   -13102922.520 6 -10001840.74521
  20511165.1004  -20344697.13947 -15852997.26263
 91  5 14 20  3 59.9980000  0  6G18G16G11G19G 6G 2
  22855240.7954   11379968.75345   8867477.77561
  22997380.397    -6987577.953 5   -122632.88121
  22641132.4514   -9655198.27346  -7523496.90161
  20737455.897     -941064.337 6   -733299.77822
  21904127.9984  -13143008.66446 -10033076.65361
  20505161.2014  -20376253.92447 -15877586.92662
 91  5 14 20  4 14.9980000  0  6G18G16G11G19G 6G 2
  22863209.7014   11421867.27745   8900125.82261
  22998329.686    -6982595.872 5   -118750.79921
  22642625.8424   -9647337.81546  -7517371.87861
  20739081.357     -932511.688 6   -726635.39622
  21896503.3424  -13183074.98846 -10064297.12161
  20499172.7724  -20407725.00948 -15902109.81263
 91  5 14 20  4 29.9980000  0  6G18G16G11G19G 6G 2
  22871193.834    11463797.973 6   8932798.95621
  22999304.365    -6977510.169 5   -114787.97421
  22644154.4364   -9639342.52046  -7511141.78761
  20740725.412     -923911.349 6   -719933.84722
  21888881.912   -13223134.664 6 -10095512.41121
  20493197.7174  -20439123.79947 -15926576.36663
 91  5 14 20  4 44.9980000  0  6G18G16G11G19G 6G 2
  22879183.1234   11505772.01546   8965505.85861
  23000294.873    -6972309.568 5   -110735.64021
  22645698.217    -9631201.081 6  -7504797.83021
  20742366.600     -915251.820 6   -713186.17722
  21881262.2324  -13263176.22446 -10126713.58561
  20487238.9594  -20470438.84147 -15950977.66163
 91  5 14 20  4 59.9980000  0  6G18G16G11G19G 6G 2
  22887175.3424   11547782.48746   8998241.14961
  23001301.982    -6967000.941 5   -106599.10621
  22647273.5534   -9622920.48246  -7498345.42261
  20744031.725     -906539.783 6   -706397.59722
  21873644.498   -13303206.318 6 -10157905.82721
  20481293.1234  -20501676.89247 -15975318.96663
 91  5 14 20  5 14.9970000  0  6G18G16G11G19G 6G 2
  22895175.9074   11589826.74846   9031002.76461
  23002336.946    -6961584.830 5   -102378.80921
  22648873.689    -9614501.224 6  -7491784.98021
  20745691.454     -897775.579 6   -699568.36722
  21866030.735   -13343222.135 6 -10189086.92621
  20475365.6894  -20532835.67947 -15999598.50763
 91  5 14 20  5 29.9970000  0  6G18G16G11G19G 6G 2
  22903185.1894   11631920.01846   9063802.56261
  23003389.1104   -6956050.64545    -98066.52161
  22650507.2354   -9605932.13046  -7485107.77161
  20747373.149     -888947.772 6   -692689.57922
  21858418.5954  -13383218.70746 -10220253.05761
  20469452.5174  -20563908.97047 -16023811.42263
 91  5 14 20  5 44.9970000  0  6G18G16G11G19G 6G 2
  22911200.634    11674044.996 6   9096627.08621
  23004460.7124   -6950413.01445    -93673.62761
  22652159.3064   -9597228.06146  -7478325.39461
  20749060.415     -880070.955 6   -685772.59622
  21850806.2354  -13423207.38946 -10251413.02361
  20463554.6574  -20594908.94648 -16047967.21463
 91  5 14 20  5 59.9970000  0  6G18G16G11G19G 6G 2
  22919229.4784   11716213.51746   9129485.51161
  23005557.048    -6944660.160 5    -89190.96621
  22653844.181    -9588377.269 6
  20750763.923     -871133.313 6
  21843202.306   -13463176.420 6 -10282557.66821
  20457668.8534  -20625823.61847 -16072056.53063
 91  5 14 20  6 14.9970000  0  6G18G16G11G19G 6G 2
  22927260.4314   11758418.36546   9162372.24261
  23006671.6654   -6938799.37445    -84624.18361
  22655557.532    -9579386.905 6
  20752473.845     -862141.844 6
  21835599.384   -13503132.459 6 -10313692.20021
  20451802.2204  -20656660.01047 -16096084.84962
 91  5 14 20  6 29.9970000  0  6G18G16G11G19G 6G 2
  22935297.1344   11800662.76545   9195289.81061
  23007808.556    -6932827.430 5    -79970.79921
  22657293.3454   -9570253.69046  -7457306.45061
  20754200.532     -853093.017 6   -664750.88322
  21827998.5644  -13543072.22646 -10344814.04661
  20445949.9464  -20687414.73647 -16120049.53263
 91  5 14 20  6 44.9970000  0  6G18G16G11G19G 6G 2
  22943340.1814   11842943.15845   9228235.41961
  23008963.462    -6926748.089 5    -75233.70821
  22659060.7204   -9560981.07446  -7450081.04261
  20755926.384     -843990.017 6   -657657.65622
  21820398.548   -13582998.978 6 -10375925.75821
  20440110.9854  -20718091.22547 -16143953.25263
 91  5 14 20  6 59.9970000  0  6G18G16G11G19G 6G 2
  22951395.2204   11885258.41245   9261208.18361
  23010141.2044   -6920562.52945    -70413.86961
  22660853.235    -9551570.093 6  -7442747.83521
  20757671.548     -834833.755 6   -650522.92322
  21812803.329   -13622913.336 6 -10407027.80621
  20434288.3844  -20748690.30247 -16167796.64863
 91  5 14 20  7 14.9970000  0  6G18G16G11G19G 6G 2
  22959455.7044   11927605.26545   9294205.58861
  23011337.657    -6914273.715 5    -65513.56821
  22662668.4784   -9542023.83646  -7435309.20461
  20759423.532     -825626.905 6   -643348.78022
  21805210.7514  -13662818.37446 -10438122.59661
  20428480.0794  -20779214.71947 -16191581.87263
 91  5 14 20  7 29.9970000  0  6G18G16G11G19G 6G 2
  22967519.3604   11969989.28345   9327231.94661
  23012552.7514   -6907876.28345    -60528.64961
  22664510.017    -9532336.935 6  -7427760.98621
  20761188.689     -816363.817 6   -636130.80322
  21797617.876   -13702708.483 6 -10469205.76021
  20422687.9074  -20809659.06648 -16215304.70462
 91  5 14 20  7 44.9970000  0  6G18G16G11G19G 6G 2
  22975594.103    12012406.402 5   9360284.06221
  23013793.1654   -6901374.32845    -55462.26161
  22666386.337    -9522513.095 6  -7420106.06221
  20762958.368     -807048.196 6   -628871.89822
  21790033.001   -13742586.981 6 -10500279.85121
  20416907.8604  -20840026.75247 -16238967.80062
 91  5 14 20  7 59.9970000  0  6G18G16G11G19G 6G 2
  22983672.1574   12054862.01245   9393366.21661
  23015049.806    -6894762.128 5    -50309.96521
  22668276.5564   -9512546.75446  -7412340.11861
  20764744.306     -797674.329 6   -621567.61222
  21782444.0404  -13782448.29346 -10531340.58361
  20411144.4074  -20870312.31347 -16262566.90063
 91  5 14 20  8 14.9970000  0  6G18G16G11G19G 6G 2
  22991758.298    12097351.227 5   9426474.53421
  23016328.9464   -6888044.78945    -45075.75961
  22670199.806    -9502442.799 6  -7404466.91821
  20766536.251     -788246.816 6   -614221.52022
  21774865.728   -13822296.882 6 -10562391.38321
  20405396.4394  -20900520.37548 -16286105.61063
 91  5 14 20  8 29.9970000  0  6G18G16G11G19G 6G 2
  22999847.735    12139872.091 5   9459607.50321
  23017630.267    -6881224.225 5    -39761.12421
  22672151.517    -9492203.189 6  -7396488.02321
  20768342.907     -778767.286 6   -606834.89422
  21767281.8214  -13862134.68146 -10593433.78861
  20399662.9314  -20930652.76348 -16309585.36263
 91  5 14 20  8 44.9970000  0  6G18G16G11G19G 6G 2
  23007946.673    12182432.176 5   9492771.05321
  23018945.8294   -6874292.72545    -34360.06261
  22674130.5014   -9481820.18546  -7388397.38961
  20770153.384     -769227.651 6   -599401.43722
  21759705.9544  -13901953.71446 -10624461.54761
  20393943.2674  -20960701.59747 -16332999.99963
 91  5 14 20  8 59.9970000  0  6G18G16G11G19G 6G 2
  23016050.8294   12225021.04245   9525957.02361
  23020283.603    -6867260.600 5    -28880.55721
  22676124.751    -9471304.041 6  -7380203.01621
  20771985.548     -759638.070 6   -591929.06222
  21752127.024   -13941763.971 6 -10655482.48721
  20388239.9854  -20990676.90948 -16356357.34763
 91  5 14 20  9 14.9970000  0  6G18G16G11G19G 6G 2
  23024163.6184   12267641.08145   9559167.29461
  23021643.9624   -6860125.66245    -23320.92361
  22678151.142    -9460652.409 6  -7371903.06021
  20773814.2514    -749996.03446   -584415.81262
  21744555.899   -13981562.702 6 -10686494.43321
  20382549.7904  -21020576.19948 -16379655.46763
 91  5 14 20  9 29.9970000  0  6G18G16G11G19G 6G 2
  23032280.173    12310296.472 5   9592405.09121
  23023019.1034   -6852883.86145    -17678.06961
  22680210.720    -9449861.044 6  -7363494.22821
  20775663.282     -740297.051 6   -576858.18822
  21736984.509   -14021345.578 6 -10717494.03521
  20376875.6264  -21050395.07848 -16402890.92263
 91  5 14 20  9 44.9970000  0  6G18G16G11G19G 6G 2
  23040404.243    12352986.545 5   9625669.94021
  23024420.774    -6845535.698 5    -11952.30221
  22682285.415    -9438930.419 6  -7354976.87021
  20777517.782     -730541.300 6   -569256.33022
  21729419.892   -14061112.853 6 -10748481.46921
  20371216.6894  -21080133.52348 -16426063.70363
 91  5 14 20  9 59.9970000  0  6G18G16G11G19G 6G 2
  23048532.8994   12395714.80945   9658964.53661
  23025835.4154   -6838077.69045     -6140.93861
  22684394.267    -9427857.029 6  -7346348.27221
  20779388.798     -720725.214 6   -561607.45822
  21721853.2284  -14100860.71546 -10779453.80561
  20365573.3214  -21109787.99248 -16449171.04763
 91  5 14 20 10 14.9970000  0  6G18G16G11G19G 6G 2
  23056669.0874   12438485.58545   9692292.27661
  23027286.118    -6830505.705 5      -240.80421
  22686525.2984   -9416636.39846  -7337604.94761
  20781263.7674    -710844.10746   -553907.92462
  21714298.993   -14140584.664 6 -10810407.47121
  20359947.4234  -21139354.03348 -16472209.49163
 91  5 14 20 10 29.9970000  0  6G18G16G11G19G 6G 2
  23064818.415    12481293.820 5   9725649.17721
  23028741.548    -6822824.363 5      5744.57921
  22688694.9624   -9405273.38746  -7328750.66261
  20783159.845     -700902.365 6   -546161.13322
  21706738.0094  -14180289.13246 -10841345.98861
  20354336.5794  -21168836.34347 -16495182.69063
 91  5 14 20 10 44.9970000  0  6G18G16G11G19G 6G 2
  23072972.0174   12524131.56245   9759029.06561
  23030223.5404   -6815041.88645     11808.76561
  22690876.7824   -9393776.03446  -7319791.68561
  20785057.493     -690907.827 6   -538373.20422
  21699188.860   -14219981.994 6 -10872275.43221
  20348741.8764  -21198242.80748 -16518096.78463
 91  5 14 20 10 59.9970000  0  6G18G16G11G19G 6G 2
  23081130.5484   12567009.20045   9792440.06061
  23031722.9624   -6807147.74245     17959.99761
  22693095.6424   -9382133.95446  -7310719.94461
  20786974.079     -680850.030 6   -530535.98722
  21691638.0714  -14259652.49746 -10903187.47961
  20343161.3604  -21227562.76447 -16540943.46863
 91  5 14 20 11 14.9970000  0  6G18G16G11G19G 6G 2
  23089295.282    12609916.300 5   9825873.98721
  23033246.728    -6799152.122 5     24190.26621
  22695333.2514   -9370357.22146  -7301543.27461
  20788896.829     -670738.625 6   -522656.99022
  21684090.7434  -14299310.39446 -10934089.68461
  20337596.4464  -21256805.90447 -16563730.29863
 91  5 14 20 11 29.9970000  0  6G18G16G11G19G 6G 2
  23097468.4624   12652856.90245   9859334.05861
  23034789.6184   -6791051.61345     30502.27961
  22697607.4784   -9358442.13746  -7292258.80461
  20790836.2124    -660569.77246   -514733.23962
  21676546.751   -14338952.044 6 -10964979.23521
  20332047.5014  -21285968.52247 -16586454.37863
 91  5 14 20 11 44.9970000  0  6G18G16G11G19G 6G 2
  23105642.3764   12695821.48345   9892812.79061
  23036343.524    -6782855.456 5     36888.82621
  22699895.157    -9346397.738 6  -7282873.56221
  20792777.6344    -650352.28846   -506771.58662
  21669002.767   -14378586.122 6 -10995862.89121
  20326511.5954  -21315059.65848 -16609122.76363
 91  5 14 20 11 59.9970000  0  6G18G16G11G19G 6G 2
  23113826.6344   12738819.78145   9926317.80861
  23037923.040    -6774554.218 5     43357.22821
  22702212.946    -9334214.488 6  -7273380.11621
  20794735.478     -640076.437 6   -498764.45922
  21661467.2904  -14418202.69046 -11026732.88861
  20320990.2744  -21344069.30247 -16631727.64863
 91  5 14 20 12 14.9970000  0  6G18G16G11G19G 6G 2
  23122015.821    12781854.937 5   9959851.51921
  23039526.5564   -6766144.67045     49910.03661
  22704561.6654   -9321889.16346  -7263775.96961
  20796696.915     -629738.518 6   -490708.96122
  21653930.720   -14457798.226 6 -11057586.51221
  20315486.9624  -21372994.11448 -16654266.42663
 91  5 14 20 12 29.9970000  0  6G18G16G11G19G 6G 2
  23130208.181    12824925.073 5   9993412.51021
  23041147.314    -6757628.394 5     56545.99221
  22706927.8064   -9309423.50646  -7254062.45961
  20798681.517     -619340.111 6   -482606.33322
  21646400.6574  -14497374.45646 -11088425.07661
  20309999.6894  -21401835.71048 -16676740.36263
 91  5 14 20 12 44.9970000  0  6G18G16G11G19G 6G 2
  23138410.2824   12868019.40945  10026992.34161
  23042783.251    -6749016.128 5     63256.79421
  22709326.860    -9296828.213 6  -7244247.93321
  20800666.3454    -608891.81046   -474464.82762
  21638872.1894  -14536941.71546 -11119256.66961
  20304523.7744  -21430604.69548 -16699157.71563
 91  5 14 20 12 59.9970000  0  6G18G16G11G19G 6G 2
  23146619.165    12911144.188 5  10060595.93121
  23044445.095    -6740301.821 5     70047.08221
  22711754.290    -9284096.874 6  -7234327.40521
  20802668.126     -598386.889 6   -466279.19522
  21631343.4074  -14576493.33346 -11150076.05161
  20299063.9854  -21459294.55948 -16721513.41663
 91  5 14 20 13 14.9970000  0  6G18G16G11G19G 6G 2
  23154832.587    12954300.414 5  10094223.99821
  23046120.1104   -6731484.23445     76917.85561
  22714203.110    -9271228.466 6  -7224300.05821
  20804674.5404    -587824.05646   -458048.44262
  21623820.142   -14616027.981 6 -11180882.23021
  20293620.6034  -21487903.91548 -16743806.38363
 91  5 14 20 13 29.9970000  0  6G18G16G11G19G 6G 2
  23163046.985    12997481.293 5  10127871.25421
  23047817.470    -6722570.710 5     83863.37321
  22716672.2744   -9258230.03546  -7214171.39061
  20806697.360     -577210.169 6   -449777.90622
  21616296.790   -14655552.572 6 -11211680.56521
  20288190.3294  -21516439.73948 -16766042.05163
 91  5 14 20 13 44.9970000  0  6G18G16G11G19G 6G 2
  23171272.548    13040693.818 5  10161543.17121
  23049536.4854   -6713553.80945     90889.45261
  22719173.462    -9245094.037 6  -7203935.53021
  20808724.540     -566537.469 6   -441461.53921
  21608780.0954  -14695059.19446 -11242464.89761
  20282775.2044  -21544894.21648 -16788214.33863
 91  5 14 20 13 59.9970000  0  6G18G16G11G19G 6G 2
  23179501.501    13083934.544 5  10195237.09921
  23051272.704    -6704436.976 5     97993.38721
  22721695.4704   -9231824.02846  -7193595.22461
  20810774.384     -555809.101 6   -433101.79522
  21601264.728   -14734551.181 6 -11273237.83221
  20277376.345   -21573270.755 8 -16810325.88523
 91  5 14 20 14 14.9970000  0  6G18G16G11G19G 6G 2
  23187732.626    13127201.854 5  10228951.71421
  23053022.9314   -6695221.66245    105174.08361
  22724241.681    -9218421.608 6  -7183151.76321
  20812819.462     -545026.537 6   -424699.82322
  21593754.329   -14774029.920 6 -11304000.43821
  20271990.6494  -21601570.65048 -16832377.71463
 91  5 14 20 14 29.9970000  0  6G18G16G11G19G 6G 2
  23195970.751    13170495.810 5  10262687.09421
  23054800.173    -6685908.169 5    112431.24221
  22726827.3144   -9204886.65846  -7172605.02461
  20814885.220     -534189.330 6   -416255.27522
  21586242.204   -14813494.883 6 -11334752.31621
  20266620.5484  -21629793.72648 -16854369.68263
 91  5 14 20 14 44.9970000  0  6G18G16G11G19G 6G 2
  23204212.4234   13213811.45945  10296439.36961
  23056588.4624   -6676501.48145    119761.06461
  22729422.368    -9191224.180 6  -7161958.90421
  20816954.7744    -523302.31846   -407771.91362
  21578738.1494  -14852950.90146 -11365497.21861
  20261262.2124  -21657944.85548 -16876305.58763
 91  5 14 20 14 59.9970000  0  6G18G16G11G19G 6G 2
  23212463.470    13257153.301 5  10330212.07421
  23058391.767    -6666997.151 5    127166.96921
  22732050.3844   -9177429.63746  -7151209.88761
  20819038.407     -512360.552 6   -399245.88622
  21571230.876   -14892393.099 6 -11396231.36221
  20255919.3764  -21686019.20248 -16898181.66563
 91  5 14 20 15 14.9970000  0  6G18G16G11G19G 6G 2
  23220718.5484   13300520.96445  10364004.86261
  23060220.5324   -6657395.22145    134648.92461
  22734695.4464   -9163503.27946  -7140358.15361
  20821127.712     -501364.072 6   -390677.22222
  21563725.4934  -14931821.42446 -11426954.69461
  20250592.1034  -21714016.85248 -16919997.98063
 91  5 14 20 15 29.9970000  0  6G18G16G11G19G 6G 2
  23228968.759    13343916.859 5  10397819.70421
  23062066.704    -6647693.615 5    142208.54321
  22737374.2674   -9149442.64746  -7129401.78161
  20823235.696     -490310.283 6   -382063.91122
  21556228.009   -14971233.073 6 -11457665.01821
  20245279.4544  -21741935.09648 -16941752.42163
 91  5 14 20 15 44.9970000  0  6G18G16G11G19G 6G 2
  23237235.048    13387332.183 5  10431649.63321
  23063925.7984   -6637901.37845    149838.79861
  22740072.4624   -9135256.38646  -7118347.51561
  20825345.5484    -479207.59146   -373412.48962
  21548725.9464  -15010636.63246 -11488369.05661
  20239979.9314  -21769782.47548 -16963451.63963
 91  5 14 20 15 59.9970000  0  6G18G16G11G19G 6G 2
  23245501.3764   13430772.31345  10465498.93161
  23065810.345    -6628012.832 5    157544.07621
  22742798.8604   -9120939.18946  -7107191.23361
  20827468.618     -468050.509 6   -364718.68622
  21541236.095   -15050026.396 6 -11519062.31621
  20234695.4394  -21797553.57148 -16985091.42163
 91  5 14 20 16 14.9970000  0  6G18G16G11G19G 6G 2
  23253769.837    13474236.025 5  10499366.58221
  23067714.0564   -6618028.99045    165323.62761
  22745544.251    -9106491.975 6  -7095933.62621
  20829601.1814    -456839.63846   -355982.97062
  21533739.181   -15089403.024 6 -11549745.36921
  20229425.2674  -21825249.07348 -17006672.29463
 91  5 14 20 16 29.9970000  0  6G18G16G11G19G 6G 2
  23262046.4464   13517726.10045  10533254.78761
  23069629.6424   -6607947.51345    173179.24261
  22748321.3294   -9091912.22346  -7084572.75461
  20831747.6034    -445571.92246   -347202.95762
  21526249.384   -15128763.690 6 -11580415.97221
  20224169.7434  -21852866.14847 -17028192.05363
 91  5 14 20 16 44.9970000  0  6G18G16G11G19G 6G 2
  23270331.493    13561240.788 5  10567162.15921
  23071566.2284   -6597769.85845    181109.81961
  22751121.0324   -9077201.50246  -7073109.83061
  20833899.892     -434248.809 6   -338379.77822
  21518763.7124  -15168109.59846 -11611075.07461
  20218929.7984  -21880406.17147 -17049651.77863
 91  5 14 20 16 59.9970000  0  6G18G16G11G19G 6G 2
  23278614.0644   13604777.34045  10601086.57061
  23073522.1734   -6587498.90445    189113.06161
  22753946.1814   -9062362.41946  -7061546.87761
  20836071.212     -422872.601 6   -329515.22722
  21511277.657   -15207443.234 6 -11641724.61021
  20213702.4394  -21907871.50647 -17071053.30563
 91  5 14 20 17 14.9970000  0  6G18G16G11G19G 6G 2
  23286906.079    13648340.710 5  10635031.90121
  23075497.837    -6577130.004 5    197192.64621
  22756791.6034   -9047390.26946  -7049880.23761
  20838241.384     -411438.432 6   -320605.50422
  21503795.0014  -15246759.42546 -11672360.56761
  20208491.3454  -21935257.32847 -17092392.86963
 91  5 14 20 17 29.9970000  0  6G18G16G11G19G 6G 2
  23295199.712    13691928.818 5  10668996.46221
  23077488.3994   -6566664.90145    205347.22261
  22759668.6264   -9032286.78246  -7038111.25061
  20840430.032     -399947.646 6   -311651.66822
  21496318.196   -15286059.730 6 -11702984.12521
  20203294.8064  -21962565.22147 -17113671.70963
 91  5 14 20 17 44.9970000  0  6G18G16G11G19G 6G 2
  23303497.431    13735545.681 5  10702983.47221
  23079501.399    -6556099.602 5    213579.82021
  22762566.814    -9017048.041 6  -7026236.88121
  20842625.7044    -388395.95246   -302650.37762
  21488842.165   -15325339.932 6 -11733592.03921
  20198114.2984  -21989791.11547 -17134886.65663
 91  5 14 20 17 59.9970000  0  6G18G16G11G19G 6G 2
  23311803.626    13779183.490 5  10736986.81721
  23081525.798    -6545441.960 5    221884.40621
  22765497.970    -9001681.823 6  -7014263.17921
  20844835.6104    -376790.95246   -293607.54562
  21481368.9704  -15364607.32646 -11764189.96961
  20192946.6034  -22016942.59147 -17156043.61663
 91  5 14 20 18 14.9970000  0  6G18G16G11G19G 6G 2
  23320107.704    13822842.728 5  10771006.84121
  23083571.9394   -6534691.81245    230261.06961
  22768443.8454   -8986187.73546  -7002189.82261
  20847053.032     -365132.063 6   -284522.72022
  21473900.837   -15403861.496 6 -11794777.58821
  20187794.7354  -22044018.92948 -17177142.02563
 91  5 14 20 18 29.9970000  0  6G18G16G11G19G 6G 2
  23328423.3064   13866517.92345  10805039.28161
  23085635.782    -6523854.505 5    238705.64421
  22771417.8764   -8970571.12946  -6990021.01061
  20849278.9074    -353424.39646   -275399.88862
  21466431.3924  -15443107.27846 -11825358.68461
  20182655.2514  -22071025.17748 -17198185.81863
 91  5 14 20 18 44.9970000  0  6G18G16G11G19G 6G 2
  23336736.6894   13910217.10145  10839090.43361
  23087717.321    -6512922.165 5    247224.28421
  22774405.3764   -8954823.77746  -6977750.32461
  20851520.9624    -341659.37746   -266232.36862
  21458965.564   -15482336.091 6 -11855926.54521
  20177531.3924  -22097952.96648 -17219168.48163
 91  5 14 20 18 59.9970000  0  6G18G16G11G19G 6G 2
  23345056.493    13953929.702 5  10873152.04421
  23089813.446    -6501905.257 5    255808.81321
  22777429.2984   -8938956.31046  -6965386.03161
  20853772.509     -329847.290 6   -257028.16222
  21451502.360   -15521558.483 6 -11886489.40321
  20172419.6264  -22124812.98248 -17240098.32963
 91  5 14 20 19 14.9970000  0  6G18G16G11G19G 6G 2
  23353378.3214   13997662.21045  10907229.14961
  23091922.876    -6490797.172 5    264464.36321
  22780470.642    -8922962.322 6  -6952923.14521
  20856024.446     -317981.508 6   -247782.11821
  21444041.517   -15560767.729 6 -11917042.02121
  20167323.1964  -22151598.47748 -17260970.11563
 91  5 14 20 19 29.9970000  0  6G18G16G11G19G 6G 2
  23361704.4934   14041423.90345  10941329.00361
  23094060.642    -6479588.702 5    273198.15821
  22783546.071    -8906832.147 6  -6940354.15521
  20858297.681     -306052.193 6   -238486.57022
  21436583.4784  -15599953.79346 -11947576.56961
  20162241.6494  -22178299.54148 -17281776.10563
 91  5 14 20 19 44.9970000  0  6G18G16G11G19G 6G 2
  23370039.6734   14085212.65445  10975449.92361
  23096208.6734   -6468281.67145    282008.74761
  22786635.4464   -8890567.98546  -6927680.75161
  20860577.071     -294061.161 6   -229142.92421
  21429131.235   -15639118.602 6 -11978094.56121
  20157175.8844  -22204918.14948 -17302517.84863
 91  5 14 20 19 59.9970000  0  6G18G16G11G19G 6G 2
  23378377.048    14129017.856 5  11009583.68721
  23098380.9704   -6456886.89645    290887.71561
  22789756.610    -8874180.530 6  -6914911.28821
  20862869.321     -282018.759 6   -219759.25422
  21421679.1654  -15678272.46646 -12008604.02861
  20152125.0094  -22231464.91148 -17323203.60163
 91  5 14 20 20 14.9970000  0  6G18G16G11G19G 6G 2
  23386715.712    14172844.636 5  11043734.25621
  23100563.8144   -6445399.40645    299838.93861
  22792898.009    -8857664.588 6  -6902041.69621
  20865170.837     -269919.792 6   -210331.50621
  21414234.360   -15717409.938 6 -12039100.71221
  20147087.4464  -22257934.49348 -17343829.22063
 91  5 14 20 20 29.9970000  0  6G18G16G11G19G 6G 2
  23395058.9464   14216685.25145  11077895.59461
  23102766.5324   -6433827.21045    308856.16361
  22796067.274    -8841027.951 6  -6889078.04821
  20867484.306     -257771.708 6   -200865.48322
  21406787.0014  -15756538.58446 -12069590.52361
  20142063.9784  -22284334.37047 -17364400.52063
 91  5 14 20 20 44.9970000  0  6G18G16G11G19G 6G 2
  23403404.267    14260551.479 5  11112076.89221
  23104988.931    -6422158.424 5    317948.66121
  22799256.728    -8824258.851 6  -6876011.21721
  20869803.548     -245562.338 6   -191351.70222
  21399346.860   -15795646.106 6 -12100063.86521
  20137055.3374  -22310652.42647 -17384908.06563
 91  5 14 20 20 59.9970000  0  6G18G16G11G19G 6G 2
  23411758.8994   14304438.10745  11146274.07261
  23107226.1894   -6410398.50145    327112.16461
  22802474.0404   -8807362.50946  -6862845.21361
  20872140.556     -233296.446 6   -181793.88322
  21391902.126   -15834737.474 6 -12130524.63421
  20132061.6344  -22336893.78848 -17405355.84663
 91  5 14 20 21 14.9970000  0  6G18G16G11G19G 6G 2
  23420112.8604   14348342.64145  11180485.22961
  23109476.954    -6398549.825 5    336344.82321
  22805702.626    -8790341.230 6  -6849581.86321
  20874484.5954    -220976.35446   -172193.81962
  21384472.353   -15873814.825 6 -12160974.45721
  20127082.7044  -22363060.62248 -17425745.55663
 91  5 14 20 21 29.9970000  0  6G18G16G11G19G 6G 2
  23428472.767    14392263.265 5  11214708.92321
  23111751.126    -6386614.140 5    345645.29721
  22808967.118    -8773196.800 6  -6836222.55221
  20876843.3064    -208603.52246   -162552.66861
  21377036.0874  -15912879.42546 -12191414.35861
  20122117.2674  -22389154.32348 -17446078.27963
 91  5 14 20 21 44.9970000  0  6G18G16G11G19G 6G 2
  23436831.931    14436203.541 5  11248947.92121
  23114043.110    -6374587.971 5    355016.26721
  22812250.376    -8755925.591 6  -6822764.46121
  20879204.032     -196173.885 6   -152867.25021
  21369606.2124  -15951927.47246 -12221841.36761
  20117166.6424  -22415171.09348 -17466351.05463
 91  5 14 20 21 59.9970000  0  6G18G16G11G19G 6G 2
  23445193.6344   14480162.44745  11283201.44461
  23116344.884    -6362472.437 5    364456.87421
  22815566.915    -8738528.603 6  -6809208.35221
  20881582.9314    -183688.37246   -143138.28862
  21362181.165   -15990959.532 6 -12252255.91121
  20112229.8994  -22441111.84048 -17486564.59363
 91  5 14 20 22 14.9970000  0  6G18G16G11G19G 6G 2
  23453563.0874   14524136.87745  11317467.03861
  23118664.9784   -6350270.48645    373964.83761
  22818900.610    -8721008.954 6  -6795556.67021
  20883966.868     -171149.810 6   -133367.99321
  21354750.0324  -16029978.50546 -12282660.27161
  20107307.7124  -22466979.54048 -17506721.21563
 91  5 14 20 22 29.9970000  0  6G18G16G11G19G 6G 2
  23461939.993    14568137.177 5  11351752.84021
  23121009.431    -6337971.572 5    383548.34121
  22822264.274    -8703356.228 6  -6781801.28321
  20886366.7434    -158547.42046   -123547.95761
  21347333.868   -16068973.555 6 -12313045.97321
  20102401.2824  -22492763.56248 -17526812.63163
 91  5 14 20 22 44.9970000  0  6G18G16G11G19G 6G 2
  23470316.5174   14612154.53045  11386051.89561
  23123367.509    -6325585.044 5    393200.12021
  22825643.8994   -8685579.46546  -6767949.25461
  20888771.8214    -145889.83546   -113684.91661
  21339914.556   -16107953.498 6 -12343419.90921
  20097509.0404  -22518472.63248 -17546845.64163
 91  5 14 20 22 59.9970000  0  6G18G16G11G19G 6G 2
  23478694.1814   14656188.01345  11420363.50661
  23125734.6734   -6313111.67545    402919.57061
  22829051.946    -8667679.464 6  -6754001.19121
  20891194.689     -133177.467 6   -103779.18821
  21332501.8064  -16146918.66646 -12373782.33461
  20092630.1814  -22544107.29748 -17566820.67663
 91  5 14 20 23 14.9970000  0  6G18G16G11G19G 6G 2
  23487080.196    14700241.891 5  11454691.04821
  23128128.884    -6300547.349 5    412709.88821
  22832476.470    -8649651.847 6  -6739953.68221
  20893623.0324    -120405.84646    -93827.28861
  21325089.603   -16185864.337 6 -12404129.56321
  20087767.712   -22569662.915 8 -17586734.12123
 91  5 14 20 23 29.9970000  0  6G18G16G11G19G 6G 2
  23495465.032    14744310.226 5  11489029.80121
  23130537.970    -6287897.988 5    422566.47121
  22835939.689    -8631502.619 6  -6725811.41521
  20896065.2204    -107580.79446    -83833.75262
  21317683.056   -16224796.311 6 -12434466.12321
  20082917.8994  -22595145.32448 -17606590.51563
 91  5 14 20 23 44.9970000  0  6G18G16G11G19G 6G 2
  23503848.2984   14788392.96745  11523379.83261
  23132960.509    -6275163.833 5    432489.13021
  22839413.9074   -8613231.85446  -6711574.45161
  20898514.103      -94701.952 6    -73798.30322
  21310271.712   -16263714.289 6 -12464791.78121
  20078083.3454  -22620554.40748 -17626389.76763
 91  5 14 20 23 59.9970000  0  6G18G16G11G19G 6G 2
  23512245.173    14832496.225 5  11557745.81221
  23135400.2744   -6262338.40745    442482.91661
  22842913.251    -8594833.186 6  -6697237.80521
  20900978.337      -81762.535 6    -63715.65922
  21302873.4394  -16302611.52846 -12495101.27161
  20073262.806   -22645883.451 8 -17646126.66323
 91  5 14 20 24 14.9970000  0  6G18G16G11G19G 6G 2
  23520637.509    14876610.873 5  11592120.70721
  23137858.696    -6249430.961 5
  22846443.3924   -8576315.91846  -6682808.76161
  20903448.665      -68771.600 6
  21295473.642   -16341496.959 6 -12525401.55621
  20068455.876   -22671141.742 8 -17665808.42423
 91  5 14 20 24 29.9970000  0  6G18G16G11G19G 6G 2
  23529038.8994   14920744.55545  11626510.38261
  23140331.337    -6236434.218 5
  22849978.017    -8557672.509 6  -6668281.41121
  20905935.157      -55721.420 6
  21288077.282   -16380362.708 6 -12555686.51321
  20063665.251   -22696321.333 8 -17685428.85723
 91  5 14 20 24 44.9970000  0  6G18G16G11G19G 6G 2
  23537438.1654   14964896.36645  11660914.21761
  23142820.110    -6223348.747 5
  22853553.2204   -8538903.57246  -6653656.27561
  20908427.134      -42612.284 6
  21280683.376   -16419209.117 6 -12585956.40021
  20058888.923   -22721422.825 8 -17704988.43523
 91  5 14 20 24 59.9970000  0  6G18G16G11G19G 6G 2
  23545842.9624   15009067.89745  11695333.40961
  23145328.2124   -6210173.21145
  22857150.2904   -8520007.71746  -6638932.23261
  20910933.595      -29442.522 6
  21273295.735   -16458034.431 6 -12616209.84421
  20054126.712   -22746444.496 8 -17724485.81423
 91  5 14 20 25 14.9970000  0  6G18G16G11G19G 6G 2
  23554251.1184   15053247.95045  11729759.25061
  23147848.6964   -6196919.18445
  22860771.821    -8500996.094 6  -6624117.96421
  20913448.040      -16222.909 6
  21265912.3374  -16496849.46846 -12646455.28261
  20049378.407   -22771397.403 8 -17743929.61423
 91  5 14 20 25 29.9970000  0  5G16G11G19G 6G 2
  23150386.798    -6183583.858 5
  22864407.4624   -8481866.24946  -6609211.58461
  20915977.579       -2950.890 6
  21258525.618   -16535651.524 6 -12676690.60721
  20044643.5324  -22796278.81048 -17763317.69363
 91  5 14 20 25 44.9970000  0  5G16G11G19G 6G 2
  23152938.259    -6170158.921 5    514310.57821
  22868077.0404   -8462609.49146  -6594206.31261
  20918511.892       10382.641 6      8085.67921
  21251146.7354  -16574431.46946 -12706908.70761
  20039924.9074  -22821079.90048 -17782643.19263
 91  5 14 20 25 59.9970000  0  5G16G11G19G 6G 2
  23155508.446    -6156651.811 5    524835.52021
  22871762.6734   -8443233.51246  -6579108.15461
  20921058.095       23770.271 6     18517.58421
  21243769.7744  -16613196.62646 -12737115.27861
  20035218.032   -22845808.085 8 -17801911.88423
 91  5 14 20 26 14.9970000  0  5G16G11G19G 6G 2
  23158101.0014   -6143064.38945    535423.06261
  22875466.5014   -8423739.88946  -6563918.31561
  20923616.267       37210.673 6     28990.60822
  21236397.868   -16651948.208 6 -12767311.27021
  20030525.8454  -22870464.64348 -17821124.75963
 91  5 14 20 26 29.9970000  0  5G16G11G19G 6G 2
  23160700.501    -6129392.250 5    546076.62921
  22879203.9624   -8404124.33346  -6548633.46661
  20926190.103       50708.542 6     39508.41422
  21229027.165   -16690681.577 6 -12797493.07421
  20025848.376   -22895045.000 8 -17840278.25623
 91  5 14 20 26 44.9970000  0  5G16G11G19G 6G 2
  23163319.384    -6115634.678 5    556796.72621
  22882959.6654   -8384385.89846  -6533252.87461
  20928765.017       64265.123 6     50071.96921
  21221657.2204  -16729395.34546 -12827659.61761
  20021186.368   -22919548.085 8 -17859371.54723
 91  5 14 20 26 59.9970000  0  5G16G11G19G 6G 2
  23165951.493    -6101791.264 5    567583.72721
  22886735.4394   -8364524.06046  -6517776.11861
  20931358.954       77881.280 6     60681.94721
  21214292.9934  -16768088.83146 -12857810.33661
  20016538.2204  -22943973.17448 -17878404.05563
 91  5 14 20 27 14.9970000  0  5G16G11G19G 6G 2
  23168599.173    -6087870.965 5    578430.65021
  22890546.2354   -8344547.94246  -6502210.31861
  20933957.228       91548.249 6     71331.51721
  21206938.470   -16806770.549 7 -12887951.88621
  20011902.7434  -22968329.04648 -17897382.63163
 91  5 14 20 27 29.9970000  0  5G16G11G19G 6G 2
  23171267.110    -6073865.906 5    589343.60521
  22894360.7904   -8324449.71946  -6486549.34861
  20936569.923      105273.880 6     82026.80221
  21199579.267   -16845432.404 7 -12918077.97021
  20007283.7124  -22992607.62748 -17916300.97663
 91  5 14 20 27 44.9970000  0  5G16G11G19G 6G 2
  23173949.032    -6059782.545 5    600317.58021
  22898212.251    -8304235.842 6  -6470798.30121
  20939190.196      119052.290 6     92763.20921
  21192221.642   -16884080.517 6 -12948193.32621
  20002677.0404  -23016815.21448 -17935164.00263
 91  5 14 20 27 59.9970000  0  5G16G11G19G 6G 2
  23176640.399    -6045610.324 5    611360.80321
  22902078.8294   -8283895.72546  -6454948.85261
  20941826.8064     132894.21746    103549.11261
  21184873.634   -16922703.872 7 -12978289.40421
  19998084.8994  -23040941.00548 -17953963.29063
 91  5 14 20 28 14.9970000  0  5G16G11G19G 6G 2
  23179353.509    -6031354.084 5    622469.49521
  22905979.642    -8263433.959 6  -6439004.64021
  20944467.985      146795.430 6    114381.21721
  21177526.517   -16961306.869 6 -13008369.61521
  19993508.9854  -23064989.34948 -17972702.23163
 91  5 14 20 28 29.9970000  0  5G16G11G19G 6G 2
  23182086.571    -6017013.904 5    633643.58121
  22909891.8924   -8242850.57046  -6422965.63461
  20947129.189      160756.163 6    125259.69321
  21170185.071   -16999889.032 6 -13038433.58821
  19988948.3064  -23088960.09948 -17991380.70763
 91  5 14 20 28 44.9970000  0  5G16G11G19G 6G 2
  23184829.735    -6002596.044 5    644878.20221
  22913829.235    -8222151.612 6  -6406836.59221
  20949793.610      174770.752 6    136180.13521
  21162844.4464  -17038456.17346 -13068485.86961
  19984400.7594  -23112859.11348 -18010003.28863
 91  5 14 20 28 59.9970000  0  5G16G11G19G 6G 2
  23187587.3684   -5988096.70345    656176.32061
  22917797.0244   -8201333.33046  -6390614.55961
  20952473.142      188843.350 6    147145.78421
  21155511.743   -17077004.091 7 -13098523.16221
  19979866.8924  -23136682.44648 -18028566.89763
 91  5 14 20 29 14.9970000  0  5G16G11G19G 6G 2
  23190361.829    -5973515.867 5    667537.91121
  22921773.290    -8180395.772 6  -6374299.59321
  20955160.673      202974.016 6    158156.67721
  21148179.556   -17115532.493 7 -13128545.24721
  19975348.5714  -23160429.91248 -18047071.38963
 91  5 14 20 29 29.9970000  0  5G16G11G19G 6G 2
  23193152.993    -5958858.535 5    678959.18321
  22925781.853    -8159344.079 6  -6357895.68721
  20957865.509      217157.906 6    169209.03921
  21140848.845   -17154046.184 6 -13158555.88021
  19970842.3294  -23184106.33948 -18065520.52363
 91  5 14 20 29 44.9970000  0  5G16G11G19G 6G 2
  23195957.251    -5944120.902 5    690442.95521
  22929808.9074   -8138173.94746  -6341399.48961
  20960569.485      231399.827 6    180306.62721
  21133522.5874  -17192540.38046 -13188551.31761
  19966351.282   -23207707.041 8 -18083910.65623
 91  5 14 20 29 59.9970000  0  5G16G11G19G 6G 2
  23198778.642    -5929312.077 5    701982.24121
  22933860.0014   -8116894.67246  -6324818.24761
  20963293.353      245690.686 6    191442.34721
  21126200.9154  -17231024.00647 -13218538.51561
  19961872.782   -23231241.199 8 -18102248.93523
 91  5 14 20 30 14.9970000  0  5G16G11G19G 6G 2
  23201604.7984   -5914424.25645    713583.06361
  22937934.634    -8095498.307 6  -6308145.75421
  20966021.064      260038.735 6    202622.62221
  21118881.3844  -17269488.62447 -13248510.90561
  19957408.095   -23254700.607 8 -18120528.96823
 91  5 14 20 30 29.9970000  0  5G16G11G19G 6G 2
  23204452.806    -5899460.714 5    725242.88121
  22942027.212    -8073988.265 6  -6291384.70921
  20968762.079      274440.854 6    213845.03921
  21111566.7204  -17307937.42147 -13278470.97661
  19952957.6654  -23278088.62848 -18138753.37263
 91  5 14 20 30 44.9970000  0  5G16G11G19G 6G 2
  23207319.478    -5884419.698 5    736963.08421
  22946141.7044   -8052362.32146  -6274533.32261
  20971510.087      288899.635 6    225111.60021
  21104251.8924  -17346367.94347 -13308416.79961
  19948521.767   -23301402.875 8 -18156920.29423
 91  5 14 20 30 59.9970000  0  5G16G11G19G 6G 2
  23210196.040    -5869293.583 5    748749.61821
  22950280.7594   -8030613.17346  -6257585.94861
  20974276.970      303422.587 6    236428.16721
  21096941.7744  -17384772.33146 -13338342.26361
  19944099.7594  -23324635.60648 -18175023.69463
 91  5 14 20 31 14.9970000  0  5G16G11G19G 6G 2
  23213085.9934   -5854091.55245    760595.25461
  22954439.8684   -8008750.08146  -6240549.78761
  20977049.970      318000.782 6    247787.78421
  21089641.3994  -17423159.52247 -13368254.31961
  19939693.720   -23347795.702 8 -18193070.49923
 91  5 14 20 31 29.9970000  0  5G16G11G19G 6G 2
  23215998.884    -5838807.919 5    772504.53521
  22958621.8534   -7986766.82646  -6223419.98161
  20979839.431      332640.899 6    259195.64921
  21082338.1034  -17461522.80347 -13398147.76161
  19935301.040   -23370876.804 8 -18211055.74923
 91  5 14 20 31 44.9970000  0  5G16G11G19G 6G 2
  23218918.329    -5823451.934 5    784470.15321
  22962829.517    -7964672.866 6  -6206203.92621
  20982631.157      347333.711 6    270644.57321
  21075041.157   -17499871.292 7 -13428029.65021
  19930922.204   -23393888.214 8 -18228986.69623
 91  5 14 20 31 59.9970000  0  5G16G11G19G 6G 2
  23221855.618    -5808022.637 5    796492.91021
  22967054.165    -7942467.433 6  -6188901.00621
  20985438.759      362080.378 6    282135.46821
  21067744.665   -17538203.748 7 -13457899.07321
  19926556.978   -23416828.777 8 -18246862.43623
 91  5 14 20 32 14.9970000  0  5G16G11G19G 6G 2
  23224803.423    -5792517.939 5    808574.39421
  22971297.8064   -7920148.17746  -6171509.36961
  20988254.970      376883.471 6    293670.32721
  21060456.0324  -17576517.63547 -13487754.01061
  19922204.665   -23439696.203 8 -18264681.18323
 91  5 14 20 32 29.9970000  0  5G16G11G19G 6G 2
  23227773.931    -5776936.530 5    820715.66521
  22975568.3454   -7897713.73546  -6154027.99961
  20991086.243      391744.795 6    305250.56621
  21053168.048   -17614811.070 7 -13517593.02321
  19917867.681   -23462488.619 8 -18282441.48323
 91  5 14 20 32 44.9970000  0  5G16G11G19G 6G 2
  23230752.2204   -5761268.90745    832924.13361
  22979861.735    -7875154.593 6  -6136449.47021
  20993924.610      406674.137 6    316883.80221
  21045890.251   -17653074.126 7 -13547408.34521
  19913546.087   -23485196.296 8 -18300135.75523
 91  5 14 20 32 59.9970000  0  5G16G11G19G 6G 2
  23233748.860    -5745526.835 4    845190.59521
  22984183.696    -7852482.459 6  -6118782.88221
  20996775.1104     421659.99146    328561.07661
  21038611.4784  -17691318.12347 -13577208.83661
  19909238.509   -23507830.761 8 -18317772.97523
 91  5 14 20 33 14.9970000  0  5G16G11G19G 6G 2
  23236759.946    -5729705.800 5    857518.60021
  22988517.704    -7829692.786 6  -6101024.70421
  20999638.157      436707.278 6    340286.21921
  21031336.8064  -17729538.12647 -13606990.62062
  19904946.767   -23530387.350 8 -18335349.51523
 91  5 14 20 33 29.9970000  0  5G16G11G19G 6G 2
  23239784.509    -5713813.528 5    869902.10121
  22992868.6494   -7806793.13946  -6083180.82861
  21002512.7824     451808.77846    352053.60661
  21024068.0714  -17767741.31547 -13636759.30562
  19900667.439   -23552873.328 8 -18352871.03523
 91  5 14 20 33 44.9970000  0  5G16G11G19G 6G 2
  23242823.9784   -5697846.48945    882343.87261
  22997248.3994   -7783780.22146  -6065248.69761
  21005397.423      466968.118 6    363866.06021
  21016800.1264  -17805923.94447 -13666511.96461
  19896404.181   -23575284.979 8 -18370334.63723
 91  5 14 20 33 59.9970000  0  5G16G11G19G 6G 2
  23245875.728    -5681807.437 5    894841.75121
  23001653.962    -7760656.688 6  -6047230.37221
  21008298.368      482183.084 6    375721.86421
  21009540.3534  -17844088.24647 -13696250.34061
  19892151.509   -23597624.636 8 -18387742.13723
 91  5 14 20 34 14.9970000  0  5G16G11G19G 6G 2
  23248940.032    -5665693.469 5    907397.98221
  23006072.1734   -7737419.54446  -6029123.51961
  21011199.103      497456.932 6    387623.54521
  21002281.4464  -17882230.89347 -13725971.84961
  19887915.509   -23619889.226 8 -18405091.14223
 91  5 14 20 34 29.9970000  0  5G16G11G19G 6G 2
  23252019.306    -5649504.843 5    920012.41521
  23010518.6034   -7714069.02746  -6010928.32961
  21014118.8844     512789.72146    399571.15761
  20995024.548   -17920351.680 7 -13755676.31921
  19883694.290   -23642079.039 8 -18422381.88223
 91  5 14 20 34 44.9970000  0  5G16G11G19G 6G 2
  23255117.665    -5633247.803 5    932680.14921
  23014980.196    -7690611.064 6  -5992649.40721
  21017043.524      528175.561 6    411560.10221
  20987775.6104  -17958456.32647 -13785368.21661
  19879482.876   -23664199.700 8 -18439618.74023
 91  5 14 20 34 59.9970000  0  5G16G11G19G 6G 2
  23258220.853    -5616913.206 5    945408.32721
  23019466.1494   -7667036.73046  -5974279.81061
  21019985.087      543623.910 6    423597.75721
  20980528.1034  -17996535.43347 -13815040.20761
  19875288.7284  -23686241.79948 -18456794.37463
 91  5 14 20 35 14.9970000  0  5G16G11G19G 6G 2
  23261346.235    -5600507.694 5    958191.75521
  23023974.142    -7643352.711 6  -5955824.74821
  21022934.415      559128.483 6    435679.22121
  20973285.2434  -18034595.17147 -13844697.11061
  19871108.204   -23708211.732 8 -18473913.78623
 91  5 14 20 35 29.9970000  0  5G16G11G19G 6G 2
  23264482.3454   -5584031.31845    971030.38161
  23028499.6814   -7619558.80946  -5937284.04861
  21025900.579      574689.846 6    447804.93921
  20966049.2354  -18072634.88747 -13874338.41062
  19866941.032   -23730109.203 8 -18490976.72423
 91  5 14 20 35 44.9970000  0  5G16G11G19G 6G 2
  23267630.923    -5567478.569 5    983928.51021
  23033051.814    -7595649.395 6  -5918653.36321
  21028870.509      590313.883 6    459979.49521
  20958814.126   -18110648.665 7 -13903959.49621
  19862788.829   -23751928.254 8 -18507978.56123
 91  5 14 20 35 59.9970000  0  4G11G19G 6G 2
  23037620.3064   -7571636.27646  -5899941.84261
  21031853.923      605989.072 6    472193.90421
  20951582.2044  -18148647.85347 -13933569.22062
  19858649.321   -23773680.458 8 -18524928.30823
 91  5 14 20 36 14.9970000  0  4G11G19G 6G 2
  23042209.306    -7547512.257 6  -5881143.93421
  21034847.321      621722.936 6    484454.04021
  20944358.3534  -18186624.86947 -13963161.65862
  19854524.087   -23795358.338 8 -18541820.14023
 91  5 14 20 36 29.9970000  0  4G11G19G 6G 2
  23046826.024    -7523282.397 6  -5862263.54021
  21037852.415      637510.761 6    496756.22221
  20937132.126   -18224584.359 7 -13992740.44121
  19850412.892   -23816966.663 8 -18558657.77923
 91  5 14 20 36 44.9970000  0  4G11G19G 6G 2
  23051450.571    -7498949.972 6  -5843303.22421
  21040864.8764     653349.56146    509098.12161
  20929912.618   -18262529.209 7 -14022307.81921
  19846312.360   -23838508.652 8 -18575443.72323
 91  5 14 20 36 59.9970000  0  4G11G19G 6G 2
  23056100.5794   -7474507.54646  -5824257.18961
  21043893.1894     669247.07446    521485.77461
  20922694.2674  -18300451.58947 -14051857.69362
  19842227.087   -23859976.685 8 -18592172.04223
 91  5 14 20 37 14.9970000  0  4G11G19G 6G 2
  23060773.173    -7449954.184 6  -5805124.72721
  21046927.087      685204.656 6    533920.23021
  20915482.7354  -18338350.07447 -14081388.93261
  19838156.618   -23881369.503 8 -18608841.74723
 91  5 14 20 37 29.9970000  0  4G11G19G 6G 2
  23065470.157    -7425289.596 6  -5785905.57621
  21049977.712      701222.900 6    546401.95821
  20908276.5014  -18376223.93347 -14110901.00062
  19834100.329   -23902686.512 8 -18625452.38323
 91  5 14 20 37 44.9970000  0  4G11G19G 6G 2
  23070179.7354   -7400516.72945  -5766602.06561
  21053032.142      717299.311 6    558929.01221
  20901071.392   -18414075.695 7 -14140395.83722
  19830057.642   -23923930.289 8 -18642005.95323
 91  5 14 20 37 59.9970000  0  4G11G19G 6G 2
  23074919.8064   -7375636.09246  -5747214.58761
  21056106.907      733433.502 6    571501.08921
  20893876.7984  -18451905.44047 -14169873.52162
  19826029.103   -23945101.206 8 -18658502.74823
 91  5 14 20 38 14.9970000  0  4G11G19G 6G 2
  23079671.6734   -7350649.24246  -5727744.32561
  21059184.001      749624.459 6    584117.40421
  20886679.0484  -18489714.36747 -14199334.98762
  19822014.907   -23966200.571 8 -18674943.78923
 91  5 14 20 38 29.9970000  0  4G11G19G 6G 2
  23084450.657    -7325555.246 6  -5708190.58921
  21062276.743      765873.276 6    596778.80021
  20879491.837   -18527501.098 7 -14228779.14822
  19818013.524   -23987227.381 8 -18691328.28923
 91  5 14 20 38 44.9970000  0  4G11G19G 6G 2
  23089243.8604   -7300355.11046  -5688554.12361
  21065377.423      782179.129 6    609484.64121
  20872303.0874  -18565266.16047 -14258206.43762
  19814025.446   -24008182.134 8 -18707656.65223
 91  5 14 20 38 59.9960000  0  4G11G19G 6G 2
  23094058.723    -7275045.750 6  -5668832.56821
  21068500.027      798546.286 6    622238.24221
  20865122.535   -18603001.894 7 -14287610.86422
  19810052.715   -24029058.377 8 -18723923.83023
 91  5 14 20 39 14.9960000  0  4G11G19G 6G 2
  23098896.7704   -7249629.31946  -5649027.58161
  21071624.0124     814971.84746    635037.35961
  20857945.1524  -18640718.34847 -14317000.27462
  19806094.027   -24049864.172 8 -18740136.11923
 91  5 14 20 39 29.9960000  0  4G11G19G 6G 2
  23103749.9264   -7224110.01145  -5629142.41061
  21074762.379      831452.307 6    647879.25521
  20850770.5044  -18678415.18347 -14346374.39362
  19802148.074   -24070600.371 8 -18756294.17523
 91  5 14 20 39 44.9960000  0  4G11G19G 6G 2
  23108630.6844   -7198489.76746  -5609178.61561
  21077903.332      847986.100 6    660762.71421
  20843601.6994  -18716093.88347 -14375734.38662
  19798214.645   -24091268.728 8 -18772399.36723
 91  5 14 20 39 59.9960000  0  4G11G19G 6G 2
  23113522.027    -7172764.860 5  -5589133.25421
  21081059.207      864577.552 6    673691.09321
  20836436.1214  -18753750.33147 -14405077.04162
  19794295.363   -24111865.478 8 -18788448.76523
 91  5 14 20 40 14.9960000  0  4G11G19G 6G 2
  23118438.5744   -7146935.58845  -5569006.55461
  21084228.246      881226.338 6    686664.15021
  20829276.0824  -18791384.33247 -14434402.19762
  19790388.996   -24132390.642 8 -18804442.38123
 91  5 14 20 40 29.9960000  0  4G11G19G 6G 2
  23123372.465    -7121000.960 5  -5548797.79521
  21087409.504      897933.798 6    699682.93421
  20822117.1994  -18828994.55247 -14463708.82762
  19786497.121   -24152842.845 8 -18820379.13723
 91  5 14 20 40 44.9960000  0  4G11G19G 6G 2
  23128326.5904   -7094967.04845  -5528511.63961
  21090597.887      914694.398 6    712743.11621
  20814963.7384  -18866586.49647 -14493001.21962
  19782618.293   -24173227.856 8 -18836263.54323
 91  5 14 20 40 59.9960000  0  4G11G19G 6G 2
  23133295.7704   -7068829.47645  -5508144.70861
  21093801.082      931512.725 6    725848.27821
  20807813.3324  -18904155.53947 -14522275.76762
  19778752.254   -24193541.161 8 -18852092.07423
 91  5 14 20 41 14.9960000  0  4G11G19G 6G 2
  23138296.9264   -7042587.72345  -5487696.60061
  21097010.7234     948389.53146    738999.01961
  20800668.5664  -18941700.46947 -14551531.51862
  19774901.434   -24213781.851 8 -18867864.01823
 91  5 14 20 41 29.9960000  0  4G11G19G 6G 2
  23143305.910    -7016241.793 5  -5467167.31821
  21100232.7934     965325.36946    752195.75261
  20793526.7464  -18979220.96647 -14580768.23662
  19771062.879   -24233949.665 8 -18883579.17823
 91  5 14 20 41 44.9960000  0  4G11G19G 6G 2
  23148341.4184   -6989789.33745  -5446555.04061
  21103466.254      982322.801 6    765440.48521
  20786395.8874  -19016714.22947 -14609983.72562
  19767238.723   -24254042.123 8 -18899235.61823
 91  5 14 20 41 59.9960000  0  4G11G19G 6G 2
  23153396.5354   -6963238.46145  -5425866.05861
  21106717.535      999373.896 6    778727.02721
  20779263.0124  -19054187.91747 -14639183.97062
  19763429.309   -24274067.085 8 -18914839.46523
 91  5 14 20 42 14.9960000  0  4G11G19G 6G 2
  23158466.426    -6936587.913 5  -5405099.41121
  21109964.941     1016480.304 6    792056.66621
  20772135.9654  -19091640.44447 -14668367.72362
  19759632.051   -24294022.999 8 -18930389.50723
 91  5 14 20 42 29.9960000  0  4G11G19G 6G 2
  23163555.4024   -6909837.26945  -5384254.77661
  21113233.043     1033642.857 6    805430.06221
  20765014.8954  -19129070.71847 -14697534.13462
  19755846.746   -24313908.920 8 -18945885.00523
 91  5 14 20 42 44.9960000  0  4G11G19G 6G 2
  23168666.574    -6882983.890 5  -5363330.08921
  21116506.9574    1050864.57346    818849.54961
  20757894.9814  -19166475.84447 -14726680.94462
  19752076.949   -24333722.151 8 -18961323.86323
 91  5 14 20 42 59.9960000  0  4G11G19G 6G 2
  23173792.5664   -6856032.25745  -5342328.83761
  21119798.4814    1068141.25146    832311.87061
  20750782.9494  -19203859.70547 -14755811.19162
  19748319.262   -24353466.970 8 -18976709.41423
 91  5 14 20 43 14.9960000  0  4G11G19G 6G 2
  23178942.1994   -6828973.46045  -5321244.07761
  21123096.4104    1085482.44046    845824.45461
  20743674.4884  -19241212.95247 -14784917.57962
  19744577.285   -24373134.162 8 -18992034.47323
 91  5 14 20 43 29.9960000  0  4G11G19G 6G 2
  23184114.738    -6801811.414 5  -5300078.86921
  21126409.9494    1102884.32546    859384.33461
  20736572.2854  -19278539.06647 -14814002.83062
  19740848.809   -24392727.435 8 -19007301.93723
 91  5 14 20 43 44.9960000  0  4G11G19G 6G 2
  23189298.535    -6774551.631 5  -5278837.50421
  21129731.2854    1120341.71546    872987.45661
  20729470.8014  -19315843.18147 -14843070.93962
  19737132.465   -24412252.068 8 -19022515.91223
 91  5 14 20 43 59.9960000  0  4G11G19G 6G 2
  23194510.4344   -6747191.02945  -5257517.57661
  21133069.5824    1137858.10246    886636.55661
  20722379.3324  -19353121.66147 -14872119.06462
  19733431.184   -24431704.577 8 -19037673.68623
 91  5 14 20 44 14.9960000  0  4G11G19G 6G 2
  23199733.434    -6719730.380 5  -5236119.69021
  21136409.621     1155432.939 6    900331.20121
  20715289.4414  -19390374.83647 -14901147.47662
  19729743.652   -24451085.573 8 -19052775.74023
 91  5 14 20 44 29.9960000  0  4G11G19G 6G 2
  23204973.3874   -6692171.31345  -5214645.11261
  21139768.652     1173065.043 6    914070.45921
  20708202.7314  -19427603.96447 -14930157.15262
  19726068.301   -24470396.397 8 -19067823.11623
 91  5 14 20 44 44.9960000  0  4G11G19G 6G 2
  23210239.8324   -6664516.11545  -5193095.61361
  21143132.238     1190752.343 6    927852.73121
  20701126.231   -19464810.840 7 -14959149.48122
  19722406.152   -24489639.121 8 -19082817.42323
 91  5 14 20 44 59.9960000  0  4G11G19G 6G 2
  23215521.6454   -6636761.69846  -5171468.83161
  21146512.3564    1208498.44146    941680.82161
  20694048.6604  -19501991.81347 -14988121.63262
  19718759.277   -24508810.291 8 -19097755.97423
 91  5 14 20 45 14.9960000  0  4G11G19G 6G 2
  23220821.7854   -6608908.52746  -5149765.07461
  21149896.895     1226303.032 6    955554.48321
  20686978.3484  -19539147.04047 -15017073.72162
  19715123.879   -24527910.133 8 -19112638.94623
 91  5 14 20 45 29.9960000  0  4G11G19G 6G 2
  23226140.9814   -6580949.05945  -5127978.48861
  21153297.238     1244174.206 6    969480.03421
  20679915.6374  -19576268.31947 -15045999.35962
  19711504.496   -24546930.648 8 -19127460.10423
 91  5 14 20 45 44.9960000  0  4G11G19G 6G 2
  23231482.9964   -6552894.42546  -5106117.75461
  21156708.481     1262101.061 6    983448.96321
  20672855.9884  -19613366.49747 -15074906.99762
  19707897.645   -24565882.988 8 -19142228.14123
 91  5 14 20 45 59.9960000  0  4G11G19G 6G 2
  23236838.1454   -6524743.82046  -5084182.24161
  21160131.731     1280084.731 6    997462.16821
  20665800.9814  -19650440.34747 -15103795.67762
  19704304.887   -24584766.060 8 -19156942.20623
 91  5 14 20 46 14.9960000  0  4G11G19G 6G 2
  23242217.3794   -6496486.93246  -5062163.89261
  21163565.527     1298135.850 6   1011527.93421
  20658751.5664  -19687479.11047 -15132657.02462
  19700726.231   -24603569.539 8 -19171594.23923
 91  5 14 20 46 29.9960000  0  4G11G19G 6G 2
  23247607.2544   -6468134.40446  -5040071.01261
  21167014.426     1316244.110 6   1025638.21821
  20651709.6214  -19724492.97347 -15161498.95762
  19697161.754   -24622303.678 8 -19186192.25123
 91  5 14 20 46 44.9960000  0  4G11G19G 6G 2
  23253022.488    -6439686.967 6  -5017904.20121
  21170466.746     1334409.311 6   1039792.88221
  20644665.9024  -19761482.16147 -15190321.67662
  19693610.379   -24640968.599 8 -19200736.32523
 91  5 14 20 46 59.9960000  0  4G11G19G 6G 2
  23258455.449    -6411138.877 6  -4995658.95421
  21173937.824     1352637.274 6   1053996.44121
  20637635.7704  -19798440.41547 -15219120.27562
  19690072.543   -24659558.607 8 -19215222.02123
 91  5 14 20 47 14.9960000  0  4G11G19G 6G 2
  23263907.6454   -6382494.10846  -4973338.39761
  21177415.941     1370924.455 6   1068246.15421
  20630607.1524  -19835371.38247 -15247897.62062
  19686546.863   -24678077.318 8 -19229652.16123
 91  5 14 20 47 29.9960000  0  4G11G19G 6G 2
  23269373.465    -6353753.360 5  -4950943.02721
  21180907.777     1389270.479 6   1082541.71221
  20623589.4264  -19872275.07947 -15276653.70962
  19683038.309   -24696525.229 8 -19244027.13023
 91  5 14 20 47 44.9960000  0  4G11G19G 6G 2
  23274861.863    -6324917.330 5  -4928473.40421
  21184408.9264    1407674.93846   1096882.80561
  20616568.6524  -19909151.82347 -15305388.80862
  19679540.012   -24714902.599 8 -19258347.13523
 91  5 14 20 47 59.9960000  0  4G11G19G 6G 2
  23280371.8404   -6295977.55546  -4905922.98061
  21187928.231     1426146.744 6   1111276.36621
  20609557.5044  -19945992.60847 -15334095.87662
  19676058.441   -24733200.734 8 -19272605.40023
 91  5 14 20 48 14.9960000  0  4G11G19G 6G 2
  23285897.2704   -6266942.13245  -4883297.99261
  21191450.410     1444678.200 6   1125716.40921
  20602549.9964  -19982805.14147 -15362780.94062
  19672589.949   -24751427.400 8 -19286807.97123
 91  5 14 20 48 29.9960000  0  4G11G19G 6G 2
  23291440.137    -6237814.001 5  -4860600.76221
  21194989.6374    1463266.56946   1140200.80661
  20595552.9414  -20019591.99847 -15391445.98962
  19669134.770   -24769585.401 8 -19300957.03523
 91  5 14 20 48 44.9960000  0  4G11G19G 6G 2
  23296996.723    -6208593.655 5  -4837831.68021
  21198535.238     1481911.807 6   1154729.51321
  20588557.9184  -20056353.07047 -15420090.94162
  19665692.816   -24787674.894 8
 91  5 14 20 48 59.9960000  0  3G11G19G 6
  23302572.762    -6179278.703 5  -4814988.89521
  21202097.441     1500616.549 6   1169304.58721
  20581564.340   -20093085.382 7 -15448713.50122
 91  5 14 20 49 14.9960000  0  4G11G19G 6G 2
  23308167.9184   -6149873.11745  -4792075.50161
  21205664.973     1519376.998 6   1183923.06621
  20574581.7934  -20129792.57947 -15477316.47862
  19658847.1064     -17951.37948
 91  5 14 20 49 29.9960000  0  4G11G19G 6G 2
  23313785.395    -6120376.133 5  -4769090.87221
  21209248.059     1538194.451 6   1198585.96121
  20567600.9024  -20166473.41147 -15505898.91762
  19655444.0274     -35834.09948
 91  5 14 20 49 44.9960000  0  4G11G19G 6G 2
  23319412.3794   -6090782.43945  -4746030.87361
  21212837.816     1557074.779 6   1213297.86521
  20560626.988   -20203121.945 7 -15534456.19222
  19652055.481      -53642.706 8        -0.21633
 91  5 14 20 49 59.9960000  0  4G11G19G 6G 2
  23325070.1454   -6061099.75745  -4722901.55261
  21216443.8094    1576010.48546   1228052.92161
  20553658.1844  -20239745.59647 -15562994.07062
  19648679.090      -71384.879 8    -13825.26623
 91  5 14 20 50 14.9960000  0  4G11G19G 6G 2
  23330729.285    -6031326.501 5  -4699701.63421
  21220054.879     1595003.239 6   1242852.41921
  20546693.098   -20276342.336 7 -15591510.99022
  19645316.074      -89058.733 8    -27597.07323
 91  5 14 20 50 29.9960000  0  4G11G19G 6G 2
  23336413.2314   -6001461.23645  -4676430.01261
  21223685.0824    1614054.90446   1257697.82461
  20539734.629   -20312910.201 7 -15620005.40522
  19641966.707     -106662.447 8    -41314.23223
 91  5 14 20 50 44.9960000  0  4G11G19G 6G 2
  23342117.7544   -5971501.64545  -4653084.89661
  21227318.8244    1633168.14246   1272591.20161
  20532781.0984  -20349446.37447 -15648475.12162
  19638629.887     -124193.468 8    -54974.74623
 91  5 14 20 50 59.9960000  0  4G11G19G 6G 2
  23347835.285    -5941445.542 5  -4629664.58221
  21230971.824     1652345.391 6   1287534.47421
  20525836.566   -20385948.166 7 -15676918.05122
  19635307.707     -141649.383 8    -68576.73323
 91  5 14 20 51 14.9960000  0  4G11G19G 6G 2
  23353574.4104   -5911299.19545  -4606173.96461
  21234629.0354    1671580.92646   1302523.14561
  20518895.8874  -20422421.32947 -15705338.66862
  19631999.9414    -159036.08748    -82124.79063
 91  5 14 20 51 29.9960000  0  4G11G19G 6G 2
  23359329.2154   -5881063.90645  -4582614.01061
  21238305.8094    1690873.88346   1317556.56861
  20511958.590   -20458866.667 7 -15733737.61022
  19628704.535     -176354.538 8    -95619.66123
 91  5 14 20 51 44.9960000  0  3G11G19G 6
  23365100.785    -5850739.336 6  -4558984.50721
  21241983.801     1710224.927 6   1332635.25521
  20505031.309   -20495283.328 7 -15762114.19622
 91  5 14 20 51 59.9960000  0  4G11G19G 6G 2
  23370884.809    -5820326.165 6  -4535285.98321
  21245678.902     1729633.529 6   1347758.78621
  20498108.1684  -20531671.63247 -15790468.68762
  19622152.8634         -0.87758
 91  5 14 20 52 14.9960000  0  4G11G19G 6G 2
  23376685.5044   -5789823.75045  -4511517.88661
  21249380.5354    1749100.57246   1362927.85561
  20491186.449   -20568030.401 7 -15818800.17722
  19618895.316      -17113.224 8
 91  5 14 20 52 29.9960000  0  4G11G19G 6G 2
  23382511.9264   -5759233.87745  -4487681.63261
  21253096.5824    1768624.82346   1378141.50361
  20484274.9964  -20604360.89747 -15847109.61662
  19615651.809      -34157.971 8        -0.09133
 91  5 14 20 52 44.9960000  0  4G11G19G 6G 2
  23388349.270    -5728555.324 6  -4463776.27321
  21256822.293     1788207.880 6   1393400.97121
  20477367.6214  -20640661.41447 -15875395.71062
  19612421.090      -51133.499 8    -13227.75223
 91  5 14 20 52 59.9960000  0  4G11G19G 6G 2
  23394203.0594   -5697787.24145  -4439801.17161
  21260560.3404    1807850.80546   1408707.09061
  20470466.3714  -20676930.65047 -15903657.42462
  19609205.277      -68038.890 8    -26400.76323
 91  5 14 20 53 14.9960000  0  4G11G19G 6G 2
  23400073.6214   -5666932.98845  -4415758.92061
  21264309.348     1827550.735 6   1424057.63321
  20463567.887   -20713171.418 7 -15931896.95922
  19606000.488      -84877.009 8    -39521.35123
 91  5 14 20 53 29.9960000  0  4G11G19G 6G 2
  23405960.7234   -5635990.88345  -4391648.19461
  21268070.6214    1847309.56046   1439454.07161
  20456677.8014  -20749381.59647 -15960112.65662
  19602810.207     -101645.923 8    -52588.01623
 91  5 14 20 53 44.9960000  0  4G11G19G 6G 2
  23411864.7774   -5604965.58245  -4367472.65661
  21271840.2314    1867123.00046   1454893.05161
  20449790.379   -20785565.324 7 -15988307.74422
  19599631.035     -118350.006 8    -65604.16323
 91  5 14 20 53 59.9960000  0  3G19G 6G 2
  21275621.4654    1886992.17446   1470375.47261
  20442910.254   -20821721.463 7 -16016481.33022
  19596464.1454    -134988.25948    -78569.00863
 91  5 14 20 54 14.9960000  0  3G19G 6G 2
  21279411.793     1906925.032 6   1485907.50921
  20436039.129   -20857841.662 7 -16044626.91622
  19593311.746     -151552.750 8    -91476.38323
 91  5 14 20 54 29.9960000  0  3G19G 6G 2
  21283223.981     1926918.095 6   1501486.46521
  20429171.3164  -20893929.41647 -16072747.21962
  19590174.426     -168047.019 8   -104329.03723
 91  5 14 20 54 44.9960000  0  3G19G 6G 2
  21287033.410     1946971.326 6   1517112.29821
  20422307.738   -20929984.640 7 -16100842.17622
  19587049.027     -184471.216 8   -117127.09023
 91  5 14 20 54 59.9960000  0  3G19G 6G 2
  21290865.918     1967077.063 6   1532779.04621
  20415455.254   -20966014.760 7 -16128917.56722
  19583934.707     -200833.088 8   -129876.57823
 91  5 14 20 55 14.9960000  0  3G19G 6G 2
  21294698.0204    1987244.75646   1548494.07661
  20408604.4264  -21002010.18847 -16156965.92762
  19580834.168     -217123.259 8   -142570.19423
 91  5 14 20 55 29.9960000  0  3G19G 6G 2
  21298549.2314    2007471.68346   1564255.25261
  20401761.660   -21037973.462 7 -16184989.23522
  19577747.090     -233344.590 8   -155210.16823
 91  5 14 20 55 44.9960000  0  3G19G 6G 2
  21302407.2854    2027760.93946   1580065.00461
  20394923.7464  -21073901.36947 -16212984.97862
  19574674.832     -249494.078 8   -167794.16123
 91  5 14 20 55 59.9960000  0  3G19G 6G 2
  21306282.535     2048110.545 6   1595921.78721
  20388091.5904  -21109795.56447 -16240954.45662
  19571614.488     -265573.715 8   -180323.72823
 91  5 14 20 56 14.9960000  0  3G19G 6G 2
  21310164.316     2068511.015 6   1611818.19921
  20381264.1684  -21145665.33847 -16268904.90262
  19568567.145     -281592.891 8   -192806.18223
 91  5 14 20 56 29.9960000  0  3G19G 6G 2
  21314060.5744    2088964.78146   1627756.13661
  20374444.520   -21181508.446 7 -16296834.56522
  19565530.199     -297549.489 8   -205239.87423
 91  5 14 20 56 44.9960000  0  3G19G 6G 2
  21317959.324     2109476.162 6   1643738.97121
  20367631.7774  -21217320.12447 -16324739.73862
  19562506.645     -313438.946 8   -217621.24923
 91  5 14 20 56 59.9960000  0  3G19G 6G 2
  21321876.4104    2130052.62046   1659772.51961
  20360823.6214  -21253092.69447 -16352614.44262
  19559498.004     -329253.895 8   -229944.56723
 91  5 14 20 57 14.9960000  0  3G19G 6G 2
  21325799.9344    2150685.33146   1675849.89661
  20354023.668   -21288834.994 7 -16380465.55122
  19556499.168     -345003.288 8   -242216.80223
 91  5 14 20 57 29.9960000  0  3G19G 6G 2
  21329742.5274    2171377.83846   1691973.86761
  20347227.7314  -21324543.31347 -16408290.18262
  19553516.590     -360683.814 8   -254435.37923
 91  5 14 20 57 44.9960000  0  3G19G 6G 2
  21333686.9264    2192126.72746   1708141.77061
  20340437.4494  -21360220.76847 -16436090.76662
  19550544.699     -376298.893 8   -266602.95423
 91  5 14 20 57 59.9960000  0  3G19G 6G 2
  21337648.6844    2212935.04246   1724355.97861
  20333656.4964  -21395864.28947 -16463864.90862
  19547586.660     -391845.592 8   -278717.24923
 91  5 14 20 58 14.9960000  0  3G19G 6G 2
  21341618.0354    2233805.15946   1740618.35761
  20326878.3794  -21431471.30347 -16491610.60262
  19544641.246     -407321.563 8   -290776.42923
 91  5 14 20 58 29.9960000  0  3G19G 6G 2
  21345601.0354    2254730.13346   1756923.46761
  20320110.6134  -21467048.50447 -16519333.06462
  19541708.746     -422733.855 8   -302785.99023
 91  5 14 20 58 44.9960000  0  3G19G 6G 2
  21349592.6374    2275715.88246   1773275.94161
  20313345.551   -21502589.890 7 -16547027.61922
  19538789.152     -438076.639 8   -314741.39223
 91  5 14 20 58 59.9960000  0  3G19G 6G 2
  21353601.7384    2296757.45046   1789671.90461
  20306591.9884  -21538100.28847 -16574698.02862
  19535881.035     -453354.855 8   -326646.48223
 91  5 14 20 59 14.9960000  0  3G19G 6G 2
  21357612.559     2317861.015 6   1806116.17921
  20299838.582   -21573573.263 7 -16602339.27922
  19532987.5824    -468562.32448   -338496.44663
 91  5 14 20 59 29.9960000  0  3G19G 6G 2
  21361642.973     2339021.275 6   1822604.64421
  20293096.9494  -21609014.04347 -16629955.44362
  19530105.481     -483704.360 8   -350295.42523
 91  5 14 20 59 44.9960000  0  3G19G 6G 2
  21365678.3954    2360245.04146   1839142.57761
  20286358.9104  -21644415.33447 -16657540.83062
  19527238.4494    -498774.20048   -362038.14763
 91  5 14 20 59 59.9960000  0  3G19G 6G 2
  21369730.957     2381528.242 6   1855726.84321
  20279627.5514  -21679781.31347 -16685098.70962
  19524383.254     -513776.313 8   -373728.09223
 91  5 14 21  0 14.9960000  0  3G19G 6G 2
  21373791.2464    2402870.57346   1872357.16161
  20272905.6134  -21715112.08047 -16712629.14462
  19521541.5274    -528710.82148   -385365.35863
 91  5 14 21  0 29.9960000  0  3G19G 6G 2
  21377866.6454    2424269.26846   1889031.40661
  20266188.8954  -21750410.19447 -16740134.13862
  19518712.379     -543580.549 8   -396952.14823
 91  5 14 21  0 44.9960000  0  3G19G 6G 2
  21381947.3954    2445731.50946   1905755.17561
  20259477.8164  -21785668.42347 -16767608.05362
  19515895.7234    -558378.62948   -408483.10763
 91  5 14 21  0 59.9960000  0  3G19G 6G 2
  21386044.3564    2467251.00946   1922523.55361
  20252776.7074  -21820892.78147 -16795055.57262
  19513092.7074    -573111.28548   -419963.08963
 91  5 14 21  1 14.9960000  0  3G19G 6G 2
  21390147.9494    2488832.11846   1939339.93061
  20246080.8324  -21856078.77747 -16822473.20162
  19510302.731     -587774.121 8   -431388.66323
 91  5 14 21  1 29.9960000  0  3G19G 6G 2
  21394267.4884    2510467.61746   1956198.69961
  20239388.0354  -21891233.17047 -16849866.19962
  19507523.6134    -602374.25748   -442765.38363
 91  5 14 21  1 44.9960000  0  3G19G 6G 2
  21398393.9884    2532161.90946   1973103.28661
  20232708.4414  -21926351.67447 -16877231.24362
  19504757.8164    -616907.50848   -454089.98163
 91  5 14 21  1 59.9960000  0  3G19G 6G 2
  21402535.5354    2553920.61346   1990058.05661
  20226031.9734  -21961428.48847 -16904563.79062
  19502006.0904    -631368.31848   -465358.13363
 91  5 14 21  2 14.9960000  0  3G19G 6G 2
  21406685.2314    2575736.86946   2007057.67461
  20219361.871   -21996470.174 7 -16931868.97422
  19499267.6524    -645763.60548   -476575.23263
 91  5 14 21  2 29.9960000  0  3G19G 6G 2
  21410849.6684    2597608.37346   2024100.34361
  20212701.168   -22031478.928 7 -16959148.49522
  19496539.3244    -660095.91348   -487743.25363
 91  5 14 21  2 44.9960000  0  3G19G 6G 2
  21415020.3164    2619538.20446   2041188.45761
  20206047.4734  -22066451.29147 -16986399.65362
  19493825.4734    -674361.99648   -498859.67263
 91  5 14 21  2 59.9960000  0  3G19G 6G 2
  21419209.731     2641529.004 6   2058324.07321
  20199400.1604  -22101384.46847 -17013620.28462
  19491123.231     -688559.163 8   -509922.38623
 91  5 14 21  3 14.9960000  0  3G19G 6G 2
  21423400.6524    2663578.21546   2075505.21761
  20192759.449   -22136280.852 7 -17040812.24622
  19488434.731     -702690.087 8   -520933.48323
 91  5 14 21  3 29.9960000  0  3G19G 6G 2
  21427609.3484    2685685.74246   2092731.79861
  20186126.035   -22171140.540 7 -17067975.61922
  19485758.191     -716755.260 8   -531893.34523
 91  5 14 21  3 44.9960000  0  3G19G 6G 2
  21431829.4414    2707856.49246   2110007.64861
  20179498.895   -22205958.202 7 -17095106.24822
  19483094.3954    -730749.44948   -542797.89663
 91  5 14 21  3 59.9960000  0  3G19G 6G 2
  21436063.5664    2730087.80446   2127330.68061
  20172882.7464  -22240736.40447 -17122206.11062
  19480444.863     -744675.485 8   -553649.34123
 91  5 14 21  4 14.9960000  0  3G19G 6G 2
  21440300.0744    2752377.98546   2144699.58361
  20166270.254   -22275476.576 7 -17149276.35222
  19477807.0984    -758535.24448   -564449.14063
 91  5 14 21  4 29.9960000  0  3G19G 6G 2
  21444556.9654    2774725.91946   2162113.49261
  20159666.918   -22310179.795 7 -17176317.80722
  19475181.754     -772329.952 8   -575198.25023
 91  5 14 21  4 44.9960000  0  3G19G 6G 2
  21448814.7704    2797130.84846   2179571.80561
  20153068.574   -22344846.522 7 -17203330.82322
  19472569.0594    -786060.39648   -585897.28863
 91  5 14 21  4 59.9960000  0  3G19G 6G 2
  21453092.6604    2819595.29846   2197076.50761
  20146482.293   -22379474.082 7 -17230313.30622
  19469969.731     -799723.820 8   -596544.09623
 91  5 14 21  5 14.9960000  0  3G19G 6G 2
  21457377.4344    2842115.47946   2214624.62861
  20139900.324   -22414066.021 7 -17257268.04522
  19467381.0984    -813324.21848   -607141.79963
 91  5 14 21  5 29.9960000  0  3G19G 6G 2
  21461676.0514    2864691.51546   2232216.27061
  20133318.8634  -22448622.12047 -17284194.85562
  19464805.3324    -826861.52548   -617690.33863
 91  5 14 21  5 44.9960000  0  3G19G 6G 2
  21465979.1604    2887321.03246   2249849.59661
  20126753.168   -22483144.270 7 -17311095.20522
  19462240.926     -840338.004 8   -628191.47823
 91  5 14 21  5 59.9960000  0  3G19G 6G 2
  21470299.059     2910007.263 6   2267527.10821
  20120193.973   -22517629.459 7 -17337966.75922
  19459688.1134    -853750.79348   -638642.98863
 91  5 14 21  6 14.9960000  0  3G19G 6G 2
  21474626.2234    2932756.44546   2285253.67261
  20113634.613   -22552071.119 7 -17364804.40122
  19457149.9654    -867093.75048   -649040.08963
 91  5 14 21  6 29.9960000  0  3G19G 6G 2
  21478965.816     2955560.471 6   2303022.97821
  20107086.879   -22586476.983 7 -17391614.14222
  19454622.801     -880374.922 8   -659389.04023
 91  5 14 21  6 44.9960000  0  3G19G 6G 2
  21483315.637     2978423.921 6   2320838.56621
  20100550.723   -22620842.294 7 -17418392.29322
  19452107.8484    -893589.87048   -669686.39163
 91  5 14 21  6 59.9960000  0  3G19G 6G 2
  21487682.824     3001342.630 6   2338697.23621
  20094018.418   -22655171.016 7 -17445141.92522
  19449605.520     -906742.447 8   -679935.13923
 91  5 14 21  7 14.9960000  0  3G19G 6G 2
  21492049.668     3024322.661 6   2356603.68521
  20087492.809   -22689456.933 7 -17471858.20522
  19447114.1684    -919826.60848   -690130.57963
 91  5 14 21  7 29.9960000  0  3G19G 6G 2
  21496438.7314    3047362.56446   2374556.78761
  20080976.027   -22723701.262 7 -17498542.07823
  19444636.941     -932844.074 8   -700274.04223
 91  5 14 21  7 44.9960000  0  3G19G 6G 2
  21500828.6764    3070452.56246   2392548.92761
  20074466.387   -22757913.663 7 -17525201.06722
  19442169.934     -945804.765 8   -710373.27423
 91  5 14 21  7 59.9960000  0  3G19G 6G 2
  21505235.012     3093598.340 6   2410584.52521
  20067963.363   -22792088.220 7 -17551830.57022
  19439715.996     -958703.084 8   -720423.89823
 91  5 14 21  8 14.9960000  0  3G19G 6G 2
  21509649.2774    3116801.61646   2428664.93861
  20061465.418   -22826222.988 7 -17578429.07122
  19437274.441     -971537.216 8   -730424.50823
 91  5 14 21  8 29.9960000  0  3G19G 6G 2
  21514077.356     3140064.885 6   2446792.09021
  20054977.816   -22860315.318 7 -17604994.49922
  19434844.4654    -984304.75148   -740373.22763
 91  5 14 21  8 44.9960000  0  3G19G 6G 2
  21518512.5664    3163383.50846   2464962.37861
  20048499.840   -22894369.496 7 -17631530.20222
  19432427.7154    -997010.52648   -750273.82063
 91  5 14 21  8 59.9960000  0  3G19G 6G 2
  21522967.3094    3186766.08646   2483182.48861
  20042024.832   -22928376.791 7 -17658029.37122
  19430022.371    -1009645.877 8   -760119.53623
 91  5 14 21  9 14.9960000  0  3G19G 6G 2
  21527423.410     3210203.587 6   2501445.40721
  20035565.012   -22962346.036 7 -17684498.88723
  19427629.613    -1022219.903 8   -769917.46123
 91  5 14 21  9 29.9960000  0  3G19G 6G 2
  21531894.918     3233697.100 6   2519751.96621
  20029104.449   -22996275.838 7 -17710937.67622
  19425247.238    -1034731.380 8   -779666.65323
 91  5 14 21  9 44.9960000  0  3G19G 6G 2
  21536374.7384    3257249.61446   2538104.49861
  20022659.098   -23030163.144 7 -17737343.34023
  19422880.012    -1047177.635 8   -789365.02023
 91  5 14 21  9 59.9960000  0  3G19G 6G 2
  21540869.863     3280856.388 6   2556499.31121
  20016217.840   -23064012.478 7 -17763719.42823
  19420522.3484   -1059563.33248   -799016.19863
 91  5 14 21 10 14.9960000  0  4G13G19G 6G 2
  22808173.5824         -0.25053
  21545369.8564    3304517.07946   2574936.15061
  20009783.3094  -23097823.96147 -17790066.01363
  19418177.262    -1071888.926 8   -808620.54623
 91  5 14 21 10 29.9960000  0  4G13G19G 6G 2
  22794389.3954     -72438.46943
  21549885.301     3328238.073 6   2593419.96421
  20003357.902   -23131590.985 7 -17816377.96123
  19415845.0514   -1084148.07248   -818173.11263
 91  5 14 21 10 44.9960000  0  4G13G19G 6G 2
  22780609.035     -144860.340 3
  21554407.6524    3352010.44146   2611943.82761
  19996938.598   -23165322.175 7 -17842661.97823
  19413522.941    -1096349.611 8   -827680.79323
 91  5 14 21 10 59.9960000  0  4G13G19G 6G 2
  22766832.207     -217257.642 3        -0.31231
  21558944.996     3375841.953 6   2630513.75421
  19990528.598   -23199009.592 7 -17868911.89823
  19411214.465    -1108486.071 8   -837137.76223
 91  5 14 21 11 14.9960000  0  4G13G19G 6G 2
  22753057.1764    -289629.68843    -56393.83161
  21563490.3874    3399732.95846   2649130.05361
  19984127.816   -23232652.642 7 -17895127.23223
  19408916.7854   -1120556.98048   -846543.65263
 91  5 14 21 11 29.9960000  0  4G13G19G 6G 2
  22739291.1294    -361982.16644   -112772.19761
  21568049.981     3423677.509 5   2667788.06121
  19977731.895   -23266257.217 7 -17921312.59423
  19406630.363    -1132568.268 8   -855903.08723
 91  5 14 21 11 44.9960000  0  4G13G19G 6G 2
  22725525.8794    -434311.86944   -169132.76161
  21572612.152     3447678.384 6   2686489.97121
  19971346.5274  -23299820.15247 -17947465.50263
  19404355.5744   -1144517.26248   -865213.98063
 91  5 14 21 11 59.9950000  0  4G13G19G 6G 2
  22711767.4374    -506611.94744
  21577193.2334    3471735.44246   2705235.64861
  19964965.804   -23333337.485 7 -17973582.88523
  19402095.007    -1156401.698 8   -874474.57023
 91  5 14 21 12 14.9950000  0  4G13G19G 6G 2
  22698014.2334    -578891.77144
  21581780.421     3495851.849 6   2724027.58521
  19958596.905   -23366813.638 7 -17999668.17623
  19399845.3514   -1168223.47448   -883686.32763
 91  5 14 21 12 29.9950000  0  4G13G19G 6G 2
  22684261.116     -651144.995 5
  21586381.382     3520026.818 5   2742865.13521
  19952233.8044  -23400245.19647 -18025718.71963
  19397608.312    -1179980.812 8   -892847.87523
 91  5 14 21 12 44.9950000  0  4G13G19G 6G 2
  22670515.796     -723376.196 5        -0.36131
  21590992.202     3544255.704 6   2761744.71221
  19945879.491   -23433636.748 7 -18051738.09223
  19395382.9294   -1191678.48648   -901962.93563
 91  5 14 21 12 59.9950000  0  4G13G19G 6G 2
  22656779.9604    -795582.06645    -56264.44661
  21595617.030     3568541.315 6   2780668.48821
  19939533.444   -23466985.125 7 -18077723.81923
  19393168.976    -1203313.773 8   -911029.37523
 91  5 14 21 13 14.9950000  0  4G13G19G 6G 2
  22643043.132     -867763.620 5   -112509.58821
  21600244.491     3592882.163 6   2799635.31621
  19933194.273   -23500291.576 7 -18103676.87623
  19390967.304    -1214888.042 8   -920048.27323
 91  5 14 21 13 29.9950000  0  4G13G19G 6G 2
  22629311.390     -939914.728 5   -168730.96721
  21604893.2804    3617283.92146   2818649.59861
  19926868.983   -23533550.252 7 -18129592.70423
  19388776.015    -1226395.645 8   -929015.22123
 91  5 14 21 13 44.9950000  0  4G13G19G 6G 2
  22615587.413    -1012035.596 5   -224928.86421
  21609546.304     3641745.959 6   2837710.83221
  19920546.304   -23566761.521 7 -18155471.59823
  19386599.187    -1237837.403 8   -937930.86323
 91  5 14 21 13 59.9950000  0  4G13G19G 6G 2
  22601867.210    -1084132.390 5   -281107.93621
  21614210.483     3666261.648 6   2856813.90121
  19914236.233   -23599931.867 7 -18181318.59523
  19384432.327    -1249220.051 8   -946800.44923
 91  5 14 21 14 14.9950000  0  4G13G19G 6G 2
  22588154.8744   -1156197.85645   -337262.61061
  21618885.343     3690837.909 6   2875964.15821
  19907933.2334  -23633054.25947 -18207128.22363
  19382279.023    -1260536.597 8   -955618.51923
 91  5 14 21 14 29.9950000  0  4G13G19G 6G 2
  22574444.4684   -1228238.57245   -393397.99061
  21623575.351     3715467.473 6   2895155.94121
  19901636.913   -23666135.508 7 -18232905.80123
  19380137.5384   -1271794.20748   -964390.67363
 91  5 14 21 14 44.9950000  0  4G13G19G 6G 2
  22560743.2494   -1300252.16845   -449512.26561
  21628269.9604    3740152.24846   2914390.76261
  19895351.288   -23699173.372 7 -18258649.56923
  19378005.851    -1282990.978 8   -973115.41523
 91  5 14 21 14 59.9950000  0  4G13G19G 6G 2
  22547042.6164   -1372237.13244   -505604.23261
  21632979.780     3764893.504 6   2933669.56821
  19889068.273   -23732166.514 7 -18284358.49223
  19375886.8274   -1294125.74448   -981791.84563
 91  5 14 21 15 14.9950000  0  4G13G19G 6G 2
  22533349.733    -1444196.016 4   -561675.83521
  21637699.171     3789688.266 6   2952990.10021
  19882799.648   -23765117.698 7 -18310034.71623
  19373779.616    -1305201.668 8   -990422.42323
 91  5 14 21 15 29.9950000  0  4G13G19G 6G 2
  22519661.921    -1516131.616 4   -617729.33021
  21642428.733     3814533.232 5   2972349.74121
  19876539.569   -23798029.921 7 -18335680.58423
  19371682.585    -1316221.959 8   -999009.65023
 91  5 14 21 15 44.9950000  0  4G13G19G 6G 2
  22505975.3124   -1588036.42844   -673758.81261
  21647163.898     3839435.720 6   2991754.20521
  19870283.671   -23830895.773 7 -18361290.32123
  19369597.8824   -1327179.49848  -1007547.98263
 91  5 14 21 15 59.9950000  0  4G13G19G 6G 2
  22492302.858    -1659903.374 4   -729758.79721
  21651915.194     3864402.219 6   3011208.55721
  19864038.702   -23863708.355 7 -18386858.54523
  19367526.3514   -1338067.76448  -1016032.33263
 91  5 14 21 16 14.9950000  0  4G13G19G 6G 2
  22478629.4604   -1731739.52944   -785734.80961
  21656676.413     3889425.224 5   3030706.92221
  19857804.257   -23896474.929 7 -18412390.92123
  19365465.515    -1348894.334 8  -1024468.60823
 91  5 14 21 16 29.9950000  0  4G13G19G 6G 2
  22464964.1794   -1803544.84944   -841686.78161
  21661454.960     3914504.205 5   3050248.91121
  19851577.3354  -23929195.91847 -18437887.76963
  19363416.9524   -1359659.70048  -1032857.19763
 91  5 14 21 16 44.9950000  0  4G13G19G 6G 2
  22451305.358    -1875319.430 4   -897614.76421
  21666230.7804    3939638.54045   3069834.03961
  19845359.648   -23961871.497 7 -18463349.23823
  19361380.0074   -1370364.47548  -1041198.57463
 91  5 14 21 16 59.9950000  0  4G13G19G 6G 2
  22437655.1634   -1947059.36444   -953515.82961
  21671029.562     3964831.748 5   3089465.03821
  19839150.523   -23994497.980 7 -18488772.44823
  19359354.9914   -1381005.27848  -1049490.09563
 91  5 14 21 17 14.9950000  0  4G13G19G 6G 2
  22424008.241    -2018763.899 4  -1009389.26821
  21675831.757     3990084.445 5   3109142.38121
  19832950.773   -24027074.588 7 -18514156.80223
  19357341.6484   -1391581.51448  -1057731.31163
 91  5 14 21 17 29.9950000  0  4G13G19G 6G 2
  22410371.6164   -2090437.82945  -1065238.87261
  21680647.249     4015391.155 5   3128861.81221
  19826762.491   -24059606.629 7 -18539506.42323
  19355340.2414   -1402098.71648  -1065926.52063
 91  5 14 21 17 44.9950000  0  4G13G19G 6G 2
  22396735.319    -2162087.084 5  -1121069.27721
  21685472.413     4040745.808 5   3148618.60521
  19820577.257   -24092099.974 7 -18564825.88923
  19353349.390    -1412562.943 8  -1074080.45323
 91  5 14 21 17 59.9950000  0  4G13G19G 6G 2
  22383108.648    -2233700.641 5  -1176871.80921
  21690309.0154    4066158.60845   3168420.71161
  19814404.530   -24124543.833 7 -18590106.79623
  19351370.3354   -1422963.82448  -1082185.02563
 91  5 14 21 18 14.9950000  0  4G13G19G 6G 2
  22369488.241    -2305277.907 5
  21695154.3354    4091629.98045   3188268.44361
  19808239.999   -24156937.771 7 -18615348.80723
  19349402.9914   -1433301.13048  -1090240.05963
 91  5 14 21 18 29.9950000  0  4G13G19G 6G 2
  22355872.1164   -2376825.66645
  21700012.3584    4117152.63445   3208156.13361
  19802084.288   -24189288.870 7 -18640557.43423
  19347447.210    -1443582.229 8  -1098251.29623
 91  5 14 21 18 44.9950000  0  4G13G19G 6G 2
  22342263.6714   -2448339.62745
  21704879.155     4142730.353 5   3228086.74721
  19795936.202   -24221592.928 7 -18665729.40723
  19345502.3584   -1453803.32548  -1106215.77863
 91  5 14 21 18 59.9950000  0  4G13G19G 6G 2
  22328666.437    -2519812.988 5        -0.19031
  21709761.616     4168369.340 5   3248065.09421
  19789799.187   -24253843.686 7 -18690859.85023
  19343568.9214   -1463958.28048  -1114128.72163
 91  5 14 21 19 14.9950000  0  4G13G19G 6G 2
  22315068.1634   -2591252.96145    -55667.50361
  21714648.0544    4194062.22245   3268085.43461
  19783670.585   -24286048.319 7 -18715954.34523
  19341648.6324   -1474054.57048  -1121995.95063
 91  5 14 21 19 29.9950000  0  4G13G19G 6G 2
  22301478.0384   -2662658.65645   -111308.11161
  21719550.023     4219809.367 5   3288148.06721
  19777552.132   -24318205.883 7 -18741012.16623
  19339739.0624   -1484091.48048  -1129816.91363
 91  5 14 21 19 44.9950000  0  4G13G19G 6G 2
  22287898.5304   -2734027.97145   -166920.37161
  21724457.8194    4245612.55646   3308254.37061
  19771443.851   -24350314.527 7 -18766031.86623
  19337840.3904   -1494067.51948  -1137590.44163
 91  5 14 21 19 59.9950000  0  4G13G19G 6G 2
  22274326.780    -2805352.255 5   -222497.53121
  21729383.9914    4271479.85445   3328410.62861
  19765342.101   -24382365.911 7 -18791006.94623
  19335955.3194   -1503974.56648  -1145310.21463
 91  5 14 21 20 14.9950000  0  4G13G19G 6G 2
  22260760.812    -2876639.677 5   -278045.99521
  21734312.8124    4297402.68745   3348610.14461
  19759250.944   -24414368.485 7 -18815943.99423
  19334080.7734   -1513821.33948  -1152983.01263
 91  5 14 21 20 29.9950000  0  4G13G19G 6G 2
  22247200.7264   -2947890.19545   -333565.70261
  21739258.4054    4323380.53745   3368852.53961
  19753171.843   -24446322.442 7 -18840843.15723
  19332219.1714   -1523608.40448  -1160609.28763
 91  5 14 21 20 44.9950000  0  4G13G19G 6G 2
  22233650.851    -3019100.661 5   -389054.14721
  21744210.733     4349415.986 5   3389139.80821
  19747101.054   -24478225.104 7 -18865702.35323
  19330368.6554   -1533333.32348  -1168187.13763
 91  5 14 21 20 59.9950000  0  4G13G19G 6G 2
  22220107.1634   -3090275.27545   -444514.69661
  21749177.773     4375504.718 5   3409468.61421
  19741038.983   -24510080.295 7 -18890524.55323
  19328527.4374   -1543000.19848  -1175719.75563
 91  5 14 21 21 14.9950000  0  4G13G19G 6G 2
  22206567.507    -3161407.294 5   -499942.04421
  21754151.085     4401652.628 5   3429843.50521
  19734985.741   -24541881.792 7 -18915304.92023
  19326700.866    -1552603.146 8  -1183202.55923
 91  5 14 21 21 29.9950000  0  4G13G19G 6G 2
  22193042.8744   -3232497.39545   -555336.76461
  21759143.2804    4427859.17045   3450264.10861
  19728945.374   -24573630.048 7 -18940043.79923
  19324884.7884   -1562142.77948  -1190636.02563
 91  5 14 21 21 44.9950000  0  4G13G19G 6G 2
  22179520.499    -3303550.197 5   -610702.37721
  21764134.8584    4454118.84645   3470726.10961
  19722915.538   -24605330.269 7 -18964745.24523
  19323082.054    -1571624.658 8  -1198024.48923
 91  5 14 21 21 59.9950000  0  4G13G19G 6G 2
  22166005.5384   -3374564.02945   -666037.62161
  21769144.4604    4480433.13545   3491230.65961
  19716890.140   -24636980.608 7 -18989407.82923
  19321287.429    -1581047.346 8  -1205366.82923
 91  5 14 21 22 14.9950000  0  4G13G19G 6G 2
  22152502.4524   -3445535.74745   -721340.09261
  21774160.3744    4506804.77345   3511779.89361
  19710875.085   -24668578.279 7 -19014029.37623
  19319507.1244   -1590408.14148  -1212660.95063
 91  5 14 21 22 29.9950000  0  4G13G19G 6G 2
  22139004.507    -3516469.137 5   -776612.65221
  21779193.2264    4533229.08045   3532370.17161
  19704874.101   -24700127.493 7 -19038613.16123
  19317736.1634   -1599711.52548  -1219910.32763
 91  5 14 21 22 44.9950000  0  4G13G19G 6G 2
  22125513.202    -3587365.013 5   -831855.97721
  21784226.773     4559704.996 5   3553000.68621
  19698880.749   -24731629.297 7 -19063159.99823
  19315975.288    -1608958.791 8  -1227115.97623
 91  5 14 21 22 59.9950000  0  4G13G19G 6G 2
  22112028.421    -3658219.841 5   -887067.37421
  21789278.937     4586235.728 5   3573673.86621
  19692893.124   -24763080.121 7 -19087667.11823
  19314228.7494   -1618146.64148  -1234275.32863
 91  5 14 21 23 14.9950000  0  4G13G19G 6G 2
  22098557.030    -3729027.708 5   -942242.13921
  21794334.765     4612826.853 5   3594394.15521
  19686919.780   -24794474.110 7 -19112129.94723
  19312491.624    -1627269.713 8  -1241384.20223
 91  5 14 21 23 29.9950000  0  5G13G15G19G 6G 2
  22085088.0074   -3799794.55145   -997384.96861
  22821154.2884     -32448.88545
  21799409.4054    4639471.71645   3615156.27861
  19680956.382   -24825817.634 7 -19136553.44723
  19310767.444    -1636334.592 8  -1248447.73423
 91  5 14 21 23 44.9950000  0  5G13G15G19G 6G 2
  22071627.4444   -3870517.82645  -1052493.81661
  22814996.4914     -64794.14645
  21804489.585     4666172.635 5   3635962.11221
  19675001.444   -24857108.159 7 -19160935.65423
  19309053.7494   -1645338.96548  -1255464.11863
 91  5 14 21 23 59.9950000  0  5G13G15G19G 6G 2
  22058180.023    -3941200.661 5  -1107571.18521
  22808861.3514     -97039.27845
  21809584.7734    4692926.03845   3656808.82961
  19669055.007   -24888348.999 7 -19185279.15123
  19307350.437    -1654286.479 8  -1262436.19323
 91  5 14 21 24 14.9950000  0  5G13G15G19G 6G 2
  22044741.3354   -4011839.14645  -1162613.95561
  22802744.773     -129180.566 5
  21814681.0694    4719735.22045   3677699.00661
  19663123.382   -24919536.593 7 -19209581.15423
  19305659.5774   -1663173.84648  -1269361.40363
 91  5 14 21 24 29.9950000  0  5G13G15G19G 6G 2
  22031301.8824   -4082431.42845  -1217620.77161
  22796647.710     -161215.863 5
  21819794.858     4746601.546 5   3698633.70921
  19657197.218   -24950669.062 7 -19233840.19723
  19303979.9604   -1671999.55748  -1276238.57163
 91  5 14 21 24 44.9950000  0  5G13G15G19G 6G 2
  22017878.8744   -4152975.39845  -1272589.92061
  22790576.0464    -193143.67345        -0.19971
  21824917.7964    4773526.87145   3719614.37361
  19651284.952   -24981744.535 7 -19258054.83023
  19302312.0234   -1680761.92848  -1283066.38463
 91  5 14 21 24 59.9950000  0  5G13G15G19G 6G 2
  22004466.0694   -4223472.07545  -1327522.21361
  22784516.562     -224965.050 5    -24796.00821
  21830055.0774    4800509.63245   3740639.83261
  19645382.835   -25012764.298 7 -19282226.05123
  19300658.0464   -1689462.50448  -1289846.04363
 91  5 14 21 25 14.9950000  0  5G13G15G19G 6G 2
  21991054.0694   -4293929.61845  -1382424.02561
  22778483.7184    -256688.02045    -49515.14161
  21835195.202     4827541.252 5   3761703.33321
  19639488.468   -25043736.534 7 -19306360.23723
  19299011.6714   -1698109.89548  -1296584.26063
 91  5 14 21 25 29.9950000  0  5G13G15G19G 6G 2
  21977659.562    -4364347.681 5  -1437295.06521
  22772460.991     -288312.247 5    -74157.30921
  21840352.562     4854621.746 5   3782804.93821
  19633602.343   -25074661.102 7 -19330457.28723
  19297376.4834   -1706703.92848  -1303280.89963
 91  5 14 21 25 44.9950000  0  5G13G15G19G 6G 2
  21964266.0694   -4434713.61145  -1492125.50361
  22766467.952     -319825.094 5    -98712.71521
  21845513.405     4881763.340 5   3803954.13821
  19627729.265   -25105525.445 7 -19354507.40223
  19295752.890    -1715232.522 8  -1309926.54323
 91  5 14 21 25 59.9950000  0  5G13G15G19G 6G 2
  21950885.327    -4505028.278 5  -1546915.98421
  22760490.273     -351227.855 5   -123182.31521
  21850690.5154    4908964.62445   3825149.86261
  19621867.741   -25136330.761 7 -19378511.53123
  19294143.2264   -1723697.26348  -1316522.43463
 91  5 14 21 26 14.9950000  0  5G13G15G19G 6G 2
  21937512.390    -4575299.545 5  -1601672.64021
  22754531.405     -382528.342 5   -147572.23821
  21855875.4994    4936217.25145   3846385.58361
  19616013.648   -25167085.022 7 -19402475.87423
  19292541.452    -1732106.365 8  -1323074.96723
 91  5 14 21 26 29.9950000  0  5G13G15G19G 6G 2
  21924150.2654   -4645523.23045  -1656392.21561
  22748598.1404    -413722.93845   -171879.64061
  21861074.999     4963524.401 5   3867663.80521
  19610174.280   -25197784.656 7 -19426397.64523
  19290953.585    -1740456.500 8  -1329581.55523
 91  5 14 21 26 44.9950000  0  5G13G15G19G 6G 2
  21910796.796    -4715692.640 5  -1711069.48121
  22742685.413     -444804.567 5   -196099.05021
  21866282.9054    4990892.87945   3888989.78161
  19604343.577   -25228422.845 7 -19450271.54723
  19289376.991    -1748741.206 8  -1336037.15823
 91  5 14 21 26 59.9950000  0  5G13G15G19G 6G 2
  21897451.6164   -4785815.48745  -1765710.50761
  22736789.874     -475781.296 5   -220236.66421
  21871499.241     5018314.300 5   3910357.06921
  19598520.226   -25259007.544 7 -19474103.76323
  19287811.1874   -1756968.68648  -1342448.17063
 91  5 14 21 27 14.9950000  0  5G13G15G19G 6G 2
  21884119.1634   -4855891.63245  -1820315.10461
  22730912.2884    -506652.95445   -244292.41661
  21876728.585     5045788.323 5   3931765.27221
  19592714.608   -25289538.896 7 -19497894.40923
  19286255.3274   -1765139.21948  -1348814.81163
 91  5 14 21 27 29.9950000  0  5G13G15G19G 6G 2
  21870791.280    -4925911.655 5  -1874875.96821
  22725062.8044    -537410.04645   -268258.94661
  21881969.937     5073324.094 5   3953221.66421
  19586914.765   -25320007.412 7 -19521636.09423
  19284714.780    -1773243.736 8  -1355130.00923
 91  5 14 21 27 44.9950000  0  5G13G15G19G 6G 2
  21857478.8664   -4995878.36245  -1929395.28461
  22719234.187     -568055.434 5   -292138.38521
  21887217.773     5100918.665 5   3974723.81621
  19581128.554   -25350415.894 7 -19545330.99523
  19283183.202    -1781285.237 8  -1361396.09823
 91  5 14 21 27 59.9950000  0  5G13G15G19G 6G 2
  21844174.4524   -5065794.94945  -1983875.55861
  22713421.155     -598592.625 5   -315933.52521
  21892481.8044    5128568.06845   3996268.72461
  19575353.312   -25380767.937 7 -19568981.92523
  19281665.2494   -1789267.69148  -1367616.19163
 91  5 14 21 28 14.9950000  0  5G13G15G19G 6G 2
  21830877.0854   -5135662.05545  -2038317.25861
  22707631.4684    -629022.44845   -339645.01461
  21897752.101     5156271.165 5   4017855.47321
  19569587.335   -25411064.327 7 -19592589.48923
  19280155.991    -1797192.222 8  -1373791.13323
 91  5 14 21 28 29.9950000  0  5G13G15G19G 6G 2
  21817592.9214   -5205476.94745  -2092718.28561
  22701859.3434    -659342.41545
  21903035.6244    5184030.02945   4039485.66061
  19563830.679   -25441302.796 7
  19278659.6554   -1805056.62448  -1379919.23363
 91  5 14 21 28 44.9950000  0  5G13G15G19G 6G 2
  21804317.319    -5275240.818 5  -2147079.58021
  22696109.101     -689553.573 5
  21908326.733     5211843.237 5   4061158.19621
  19558090.382   -25471484.393 7
  19277174.8354   -1812862.44748  -1386001.68563
 91  5 14 21 28 59.9950000  0  5G13G15G19G 6G 2
  21791054.523    -5344953.473 5  -2201400.92521
  22690384.655     -719655.944 5
  21913633.319     5239710.636 5   4082872.97621
  19552354.843   -25501609.242 7
  19275700.7264   -1820610.01948  -1392038.74363
 91  5 14 21 29 14.9950000  0  5G13G15G19G 6G 2
  21777793.148    -5414615.710 5  -2255682.99721
  22684672.8664    -749650.19745   -433640.37061
  21918944.640     5267630.974 5   4104628.98021
  19546634.593   -25531678.229 7 -19686574.27523
  19274236.4294   -1828300.53348  -1398031.34263
 91  5 14 21 29 29.9950000  0  5G13G15G19G 6G 2
  21764549.796    -5484228.281 5  -2309926.36421
  22678986.991     -779537.391 5   -456929.05321
  21924269.4054    5295602.99345   4126425.28961
  19540921.7964  -25561692.13547 -19709961.72863
  19272784.194    -1835935.193 8  -1403980.41523
 91  5 14 21 29 44.9950000  0  5G13G15G19G 6G 2
  21751313.6404   -5553783.26145  -2364124.86161
  22673323.2494    -809309.78745   -480128.26161
  21929600.913     5323634.017 5   4148267.52621
  19535223.171   -25591643.531 7 -19733300.46123
  19271343.1634   -1843506.58748  -1409880.19263
 91  5 14 21 29 59.9950000  0  5G13G15G19G 6G 2
  21738083.726    -5623290.127 5  -2418285.87621
  22667672.398     -838976.673 5   -503245.23621
  21934942.718     5351714.345 5   4170148.22621
  19529534.710   -25621541.635 7 -19756597.67123
  19269913.491    -1851024.549 8  -1415738.33423
 91  5 14 21 30 14.9950000  0  5G13G15G19G 6G 2
  21724867.140    -5692739.898 5  -2472402.40121
  22662049.358     -868529.329 5   -526273.24921
  21940300.3584    5379852.25945   4192073.78061
  19523855.390   -25651378.137 7 -19779846.88323
  19268492.1794   -1858480.69048  -1421548.30263
 91  5 14 21 30 29.9950000  0  5G13G15G19G 6G 2
  21711662.921    -5762143.002 5  -2526482.55921
  22656448.444     -897978.514 5   -549220.59821
  21945662.4994    5408037.06745   4214035.88261
  19518189.398   -25681163.326 7 -19803056.10523
  19267084.4374   -1865885.81448  -1427318.51863
 91  5 14 21 30 44.9950000  0  5G13G15G19G 6G 2
  21698466.3124   -5831488.00545  -2580517.44361
  22650867.655     -927312.749 5   -572078.42821
  21951037.8434    5436279.81345   4236043.12161
  19512531.304   -25710885.920 7 -19826216.55523
  19265687.7414   -1873228.78048  -1433040.30163
 91  5 14 21 30 59.9950000  0  5G13G15G19G 6G 2
  21685281.2104   -5900782.69045  -2634513.13761
  22645303.858     -956539.989 5   -594852.84121
  21956422.7494    5464572.11045   4258088.98361
  19506888.124   -25740554.022 7 -19849334.54523
  19264299.4524   -1880518.05748  -1438720.24663
 91  5 14 21 31 14.9950000  0  5G13G15G19G 6G 2
  21672102.6404   -5970021.62145  -2688465.37161
  22639759.710     -985654.692 5   -617539.60221
  21961815.6244    5492919.00545   4280177.35261
  19501252.726   -25770162.280 7 -19872405.89923
  19262924.6244   -1887748.53848  -1444354.38263
 91  5 14 21 31 29.9950000  0  5G13G15G19G 6G 2
  21658936.8434   -6039200.00445  -2742370.43461
  22634245.944    -1014652.289 5   -640135.07321
  21967220.913     5521324.689 5   4302311.58221
  19495630.124   -25799706.085 7 -19895427.03123
  19261559.7574   -1894915.99248  -1449939.40263
 91  5 14 21 31 44.9950000  0  5G13G15G19G 6G 2
  21645784.9764   -6108329.55945  -2796237.44561
  22628748.671    -1043544.717 5   -662648.60821
  21972634.7264    5549776.96245   4324482.05461
  19490018.6244  -25829197.48947 -19918407.33763
  19260206.5464   -1902032.71548  -1455484.89463
 91  5 14 21 31 59.9950000  0  5G13G15G19G 6G 2
  21632643.3984   -6177399.35845  -2850057.90761
  22623269.2964   -1072321.18345   -685071.77161
  21978067.1554    5578286.47045   4346697.17661
  19484418.8274  -25858625.48247 -19941338.22963
  19258861.9764   -1909088.03048  -1460982.53663
 91  5 14 21 32 14.9950000  0  5G13G15G19G 6G 2
  21619505.7264   -6246418.41145  -2903838.82161
  22617816.882    -1100990.548 5   -707411.52321
  21983494.468     5606843.754 5   4368949.49421
  19478828.265   -25887999.305 7 -19964226.91023
  19257531.3664   -1916091.63448  -1466439.88563
 91  5 14 21 32 29.9950000  0  5G13G15G19G 6G 2
  21606381.6874   -6315378.87145  -2957574.08261
  22612381.976    -1129545.260 5   -729661.87721
  21988944.171     5635455.890 5   4391244.57021
  19473250.507   -25917311.399 7 -19987067.48823
  19256209.8194   -1923036.09248  -1471851.14163
 91  5 14 21 32 44.9950000  0  5G13G15G19G 6G 2
  21593272.148    -6384283.028 5  -3011265.46621
  22606970.0074   -1157987.89345   -751824.92361
  21994394.4374    5664120.22345   4413580.30961
  19467684.476   -25946564.220 7 -20009861.87623
  19254899.0234   -1929924.25848  -1477218.53763
 91  5 14 21 32 59.9950000  0  5G13G15G19G 6G 2
  21580170.202    -6453128.773 5  -3064911.34021
  22601576.7184   -1186316.32845   -773898.96761
  21999862.2654    5692838.38645   4435957.99761
  19462129.5934  -25975755.81047 -20032608.55963
  19253598.7414   -1936754.27248  -1482540.61963
 91  5 14 21 33 14.9950000  0  5G13G15G19G 6G 2
  21567079.9834   -6521917.28345  -3118512.60661
  22596212.7104   -1214532.23945   -795885.34061
  22005334.405     5721608.774 5   4458376.38621
  19456585.296   -26004887.587 7 -20055308.63223
  19252309.8124   -1943527.81648  -1487818.70063
 91  5 14 21 33 29.9950000  0  5G13G15G19G 6G 2
  21554004.023    -6590646.857 5  -3172067.95521
  22590863.4684   -1242633.68945   -817782.49261
  22010821.2024    5750432.72445   4480836.51661
  19451054.4684  -26033957.81647 -20077960.74963
  19251031.4444   -1950243.60848  -1493051.77563
 91  5 14 21 33 44.9950000  0  5G13G15G19G 6G 2
  21540933.0234   -6659321.20845  -3225580.24561
  22585532.960    -1270624.269 5   -839593.30021
  22016312.468     5779306.222 5   4503335.23921
  19445534.577   -26062970.276 7 -20100567.84423
  19249763.6794   -1956905.60348  -1498242.93063
 91  5 14 21 33 59.9950000  0  5G13G15G19G 6G 2
  21527874.382    -6727933.802 5  -3279044.48221
  22580230.679    -1298497.839 5   -861312.90821
  22021820.7804    5808234.99845   4525877.02961
  19440024.077   -26091918.940 7 -20123125.23123
  19248507.3434   -1963508.01448  -1503387.66063
 91  5 14 21 34 14.9950000  0  5G13G15G19G 6G 2
  21514830.319    -6796495.921 5  -3332469.30821
  22574946.171    -1326265.906 5   -882950.28221
  22027332.929     5837207.384 5   4548452.80921
  19434525.632   -26120815.218 7 -20145641.80123
  19247260.3354   -1970062.62848  -1508495.14063
 91  5 14 21 34 29.9950000  0  5G13G15G19G 6G 2
  21501795.226    -6864999.079 5  -3385848.24421
  22569685.327    -1353919.678 5   -904498.62221
  22032856.9524    5866231.79745   4571069.11261
  19429038.9994  -26149650.42147 -20168110.77863
  19246024.9294   -1976561.09348  -1513558.87363
 91  5 14 21 34 44.9950000  0  5G13G15G19G 6G 2
  21488771.905    -6933437.697 5  -3439176.88421
  22564443.9294   -1381453.94545   -925953.84261
  22038384.507     5895313.156 5   4593729.82921
  19423565.452   -26178419.263 7 -20190528.05023
  19244798.6164   -1982998.34748  -1518574.90963
 91  5 14 21 34 59.9950000  0  5G13G15G19G 6G 2
  21475755.5934   -7001817.94445  -3492460.03861
  22559225.194    -1408875.327 5   -947321.08121
  22043935.8044    5924444.52845   4616429.47461
  19418101.819   -26207128.341 7 -20212898.74823
  19243584.0694   -1989381.22348  -1523548.56963
 91  5 14 21 35 14.9950000  0  5G13G15G19G 6G 2
  21462754.5234   -7070136.22645  -3545694.90661
  22554030.2574   -1436180.18645   -968597.53561
  22049484.4684    5953629.18045   4639170.65561
  19412649.538   -26235774.059 7 -20235220.06423
  19242381.4764   -1995706.45248  -1528477.31663
 91  5 14 21 35 29.9950000  0  5G13G15G19G 6G 2
  21449770.5154   -7138393.50345  -3598882.25261
  22548860.2494   -1463369.27045   -989783.75761
  22055052.6484    5982865.96845   4661952.47561
  19407211.741   -26264357.425 7 -20257492.79523
  19241188.5694   -2001975.48748  -1533362.26663
 91  5 14 21 35 44.9950000  0  5G13G15G19G 6G 2
  21436790.5854   -7206591.53645  -3652023.44261
  22543704.8514   -1490444.61745  -1010881.38161
  22060622.882     6012152.439 5   4684772.98721
  19401783.007   -26292880.534 7 -20279718.58123
  19240005.5234   -2008190.55548  -1538205.17163
 91  5 14 21 35 59.9950000  0  5G13G15G19G 6G 2
  21423824.937    -7274719.882 5  -3705110.31221
  22538575.3274   -1517395.81145  -1031882.26661
  22066210.015     6041498.780 5   4707640.12021
  19396366.780   -26321332.919 7 -20301889.25323
  19238834.6714   -2014341.51648  -1542998.11963
 91  5 14 21 36 14.9950000  0  5G13G15G19G 6G 2
  21410869.1634   -7342787.01845  -3758149.49761
  22533470.8124   -1544231.59445  -1052793.17361
  22071803.796     6070895.787 5   4730546.83321
  19390966.562   -26349723.301 7 -20324011.60923
  19237674.9834   -2020437.50948  -1547748.23863
 91  5 14 21 36 29.9950000  0  5G13G15G19G 6G 2
  21397931.9214   -7410790.24145  -3811138.87161
  22528387.3354   -1570949.62245  -1073612.35161
  22077412.069     6100345.831 4   4753494.75021
  19385575.413   -26378049.193 7 -20346083.71523
  19236524.8274   -2026476.22148  -1552453.72463
 91  5 14 21 36 44.9950000  0  5G13G15G19G 6G 2
  21385004.890    -7478727.516 5  -3864076.86521
  22523324.265    -1597547.957 5  -1094338.27521
  22083019.7574    6129850.39045   4776485.22461
  19380198.569   -26406308.654 7 -20368104.06123
  19235388.5234   -2032455.88448  -1557113.19163
 91  5 14 21 36 59.9950000  0  5G13G15G19G 6G 2
  21372087.101    -7546600.581 5  -3916964.83621
  22518280.5074   -1624028.50145  -1114972.39961
  22088648.163     6159407.269 5   4799516.47621
  19374833.187   -26434503.812 7 -20390074.29623
  19234259.9994   -2038379.05248  -1561728.64063
 91  5 14 21 37 14.9950000  0  5G13G15G19G 6G 2
  21359182.101    -7614412.745 5  -3969805.33221
  22513265.819    -1650394.389 5  -1135517.19621
  22094280.0234    6189012.68445   4822585.50361
  19369477.983   -26462637.761 7 -20411996.83923
  19233143.4134   -2044249.24448  -1566302.80863
 91  5 14 21 37 29.9950000  0  5G13G15G19G 6G 2
  21346292.6324   -7682159.42145  -4022594.81561
  22508271.101    -1676641.387 5  -1155969.32621
  22099924.179     6218670.900 5   4845695.71921
  19364139.5464  -26490706.22347 -20433868.35663
  19232035.7884   -2050062.28448  -1570832.44363
 91  5 14 21 37 44.9950000  0  5G13G15G19G 6G 2
  21333414.015    -7749838.487 5  -4075331.60421
  22503300.804    -1702767.718 5  -1176327.42621
  22105578.327     6248383.272 5   4868848.11121
  19358807.343   -26518707.472 7 -20455687.49623
  19230941.8664   -2055816.71048  -1575316.40463
 91  5 14 21 37 59.9950000  0  5G13G15G19G 6G 2
  21320545.5544   -7817447.68145  -4128013.97761
  22498350.351    -1728771.051 5  -1196589.71821
  22111243.116     6278151.705 5   4892044.19121
  19353493.538   -26546639.260 7 -20477452.51023
  19229857.7884   -2061510.76448  -1579753.32363
 91  5 14 21 38 14.9950000  0  5G13G15G19G 6G 2
  21307694.0624   -7884988.95045  -4180643.39061
  22493424.6874   -1754653.64945  -1216757.90061
  22116915.991     6307973.829 5   4915282.09921
  19348192.851   -26574503.668 7 -20499165.01323
  19228786.1484   -2067146.72248  -1584144.97163
 91  5 14 21 38 29.9950000  0  5G13G15G19G 6G 2
  21294853.718    -7952464.623 5  -4233221.70521
  22488522.023    -1780417.830 5  -1236833.84521
  22122604.8274    6337846.96545   4938559.75861
  19342900.640   -26602303.218 7 -20520826.98523
  19227724.3904   -2072727.28648  -1588493.45863
 91  5 14 21 38 44.9950000  0  5G13G15G19G 6G 2
  21282023.898    -8019876.380 5  -4285750.20921
  22483643.9914   -1806065.56145  -1256818.99861
  22128297.624     6367768.785 5   4961875.32221
  19337624.007   -26630039.780 7 -20542439.87123
  19226672.2494   -2078254.64248  -1592800.47963
 91  5 14 21 38 59.9950000  0  5G13G15G19G 6G 2
  21269214.093    -8087218.062 6  -4338224.11521
  22478785.507    -1831590.107 5  -1276708.21321
  22134001.726     6397745.362 5   4985233.61821
  19332358.194   -26657706.878 7 -20563998.63323
  19225632.2734   -2083722.78648  -1597061.36363
 91  5 14 21 39 14.9950000  0  5G13G15G19G 6G 2
  21256410.0384   -8154491.46845  -4390644.82561
  22473953.6244   -1856993.76745  -1296503.19361
  22139714.077     6427774.425 5   5008632.72421
  19327108.038   -26685306.740 7 -20585505.00223
  19224601.7884   -2089134.12148  -1601277.98063
 91  5 14 21 39 29.9950000  0  5G13G15G19G 6G 2
  21243619.804    -8221691.511 5  -4443008.35321
  22469139.429    -1882271.757 5  -1316200.29121
  22145439.733     6457860.383 5   5032076.25821
  19321867.687   -26712834.601 7 -20606955.26223
  19223584.5774   -2094484.09248  -1605446.78063
 91  5 14 21 39 44.9950000  0  5G13G15G19G 6G 2
  21230845.827    -8288824.305 6  -4495319.49321
  22464354.1164   -1907430.51545  -1335804.44161
  22151174.6484    6487996.60645   5055558.88461
  19316642.312   -26740296.639 7 -20628354.24323
  19222576.9054   -2099779.25348  -1609572.87163
 91  5 14 21 39 59.9950000  0  5G13G15G19G 6G 2
  21218083.749    -8355893.778 6  -4547581.27221
  22459586.3584   -1932474.26445  -1355318.99861
  22156919.6874    6518178.49745   5079077.13961
  19311427.749   -26767697.132 7 -20649705.25823
  19221577.6484   -2105024.22448  -1613659.85463
 91  5 14 21 40 14.9950000  0  5G13G15G19G 6G 2
  21205332.491    -8422894.564 6  -4599789.54321
  22454844.905    -1957397.461 5  -1374739.60121
  22162672.5694    6548411.27445   5102635.04161
  19306226.101   -26795030.616 7 -20671004.06023
  19220591.1084   -2110213.79948  -1617703.66863
 91  5 14 21 40 29.9950000  0  5G13G15G19G 6G 2
  21192596.687    -8489825.388 6  -4651943.29221
  22450123.2964   -1982199.01345  -1394065.42561
  22168437.366     6578695.567 4   5126233.07721
  19301038.140   -26822296.126 7 -20692249.89623
  19219612.8514   -2115347.24148  -1621703.74763
 91  5 14 21 40 44.9950000  0  5G13G15G19G 6G 2
  21179875.069    -8556686.376 6  -4704042.62921
  22445430.4444   -2006879.02545  -1413296.54661
  22174207.5304    6609031.00245   5149870.92961
  19295863.2334  -26849493.68947 -20713442.78963
  19218646.5544   -2120424.75548  -1625660.24063
 91  5 14 21 40 59.9950000  0  5G13G15G19G 6G 2
  21167165.7884   -8623474.97846  -4756085.55461
  22440756.5464   -2031435.23445  -1432431.17961
  22179989.8664    6639419.61445   5173550.26761
  19290700.0854  -26876620.92247 -20734580.88163
  19217692.9604   -2125444.38548  -1629571.63763
 91  5 14 21 41 14.9950000  0  5G13G15G19G 6G 2
  21154470.679    -8690188.313 6  -4808069.82721
  22436103.335    -2055865.122 5  -1451467.39621
  22185781.0934    6669863.68245   5197272.79761
  19285552.4914  -26903675.32247 -20755662.22163
  19216747.7414   -2130404.02448  -1633436.28063
 91  5 14 21 41 29.9950000  0  5G13G15G19G 6G 2
  21141788.796    -8756831.192 6  -4859999.21721
  22431481.3124   -2080173.47145  -1470408.92361
  22191592.6874    6700357.86544   5221034.39561
  19280418.437   -26930661.812 7 -20776690.63823
  19215814.8514   -2135308.86948  -1637258.22963
 91  5 14 21 41 44.9950000  0  5G13G15G19G 6G 2
  21129119.491    -8823402.942 6  -4911873.16721
  22426879.8354   -2104359.77845  -1489255.33761
  22197397.554     6730902.376 4   5244835.17521
  19275293.398   -26957579.905 7 -20797665.76223
  19214892.8354   -2140158.59348  -1641037.22963
 91  5 14 21 41 59.9950000  0  5G13G15G19G 6G 2
  21116463.327    -8889908.603 6  -4963695.63121
  22422300.8664   -2128429.19045  -1508010.68161
  22203224.1014    6761491.75844   5268670.92061
  19270184.085   -26984434.719 7 -20818591.57523
  19213979.2334   -2144958.54548  -1644777.44163
 91  5 14 21 42 14.9950000  0  5G13G15G19G 6G 2
  21103822.101    -8956332.361 6  -5015454.27721
  22417742.687    -2152366.334 5  -1526662.95021
  22209052.9914    6792141.34344   5292553.60761
  19265088.7884  -27011210.79647 -20839456.03963
  19213077.3044   -2149693.59248  -1648467.08463
 91  5 14 21 42 29.9950000  0  5G13G15G19G 6G 2
  21091198.7104   -9022677.34646  -5067151.54561
  22413211.8124   -2176174.18245  -1545214.44761
  22214895.226     6822847.523 5   5316480.36321
  19260006.804   -27037911.149 7 -20860261.49123
  19212188.7654   -2154367.24948  -1652108.88363
 91  5 14 21 42 44.9950000  0  5G13G15G19G 6G 2
  21078585.905    -9088956.572 6  -5118797.54821
  22408702.5384   -2199866.05545  -1563675.58761
  22220747.585     6853596.882 4   5340440.77421
  19254940.155   -27064549.069 7 -20881018.29223
  19211306.9444   -2158992.82648  -1655713.22263
 91  5 14 21 42 59.9950000  0  5G13G15G19G 6G 2
  21065985.9994   -9155162.45446  -5170386.43261
  22404215.6324   -2223434.51045  -1582040.59261
  22226609.9214    6884396.57945   5364440.44161
  19249884.718   -27091116.986 7 -20901720.55223
  19210437.8824   -2163563.29948  -1659274.62063
 91  5 14 21 43 14.9950000  0  5G13G15G19G 6G 2
  21053400.241    -9221294.077 6  -5221917.44621
  22399757.7574   -2246878.61045  -1600308.64861
  22232477.0544    6915246.98645   5388479.56561
  19244838.890   -27117614.061 7 -20922367.61123
  19209579.6634   -2168078.12548  -1662792.66263
 91  5 14 21 43 29.9950000  0  5G13G15G19G 6G 2
  21040834.257    -9287346.022 6  -5273386.35321
  22395320.905    -2270192.941 5  -1618475.63721
  22238363.0694    6946153.26245   5412562.27461
  19239811.655   -27144035.091 7 -20942955.40723
  19208731.8194   -2172532.20948  -1666263.36463
 91  5 14 21 43 44.9950000  0  5G13G15G19G 6G 2
  21028277.952    -9353321.745 6  -5324795.90321
  22390907.882    -2293381.482 5  -1636544.54121
  22244251.2494    6977111.19444   5436685.24161
  19234800.491   -27170383.944 7 -20963486.96423
  19207894.4054   -2176929.76248  -1669690.01863
 91  5 14 21 43 59.9950000  0  5G13G15G19G 6G 2
  21015737.069    -9419225.362 6  -5376149.22021
  22386518.6324   -2316448.58545  -1654518.87561
  22250152.9134    7008116.46945   5460845.02461
  19229798.265   -27196664.642 7 -20983965.41223
  19207066.499    -2181274.990 8  -1673075.89823
 91  5 14 21 44 14.9950000  0  5G13G15G19G 6G 2
  21003210.976    -9485050.751 6  -5427441.61021
  22382153.640    -2339388.043 5  -1672393.74521
  22256063.030     7039174.453 5   5485045.94621
  19224810.804   -27222871.272 7 -21004386.15323
  19206252.5694   -2185562.36548  -1676416.70363
 91  5 14 21 44 29.9950000  0  5G13G15G19G 6G 2
  20990696.2264   -9550801.69346  -5478675.99161
  22377813.273    -2362204.074 5  -1690172.42521
  22261987.5694    7070280.99644   5509284.68061
  19219836.999   -27249007.682 7 -21024752.16923
  19205447.0934   -2189795.94048  -1679715.58563
 91  5 14 21 44 44.9940000  0  5G13G15G19G 6G 2
  20978200.447    -9616475.313 6  -5529850.12421
  22373495.111    -2384896.478 5  -1707854.76921
  22267910.9554    7101432.05145   5533558.10961
  19214877.783   -27275073.738 7 -21045063.36623
  19204650.6824   -2193977.42448  -1682973.87763
 91  5 14 21 44 59.9940000  0  5G13G15G19G 6G 2
  20965718.8544   -9682077.38846  -5580968.50961
  22369196.541    -2407465.761 5  -1725441.17921
  22273850.0184    7132634.44744   5557871.54561
  19209930.111   -27301070.174 7 -21065320.31223
  19203864.7364   -2198105.07348  -1686190.22163
 91  5 14 21 45 14.9940000  0  5G13G15G19G 6G 2
  20953248.8384   -9747600.22946  -5632025.13761
  22364926.502    -2429907.218 5  -1742928.01721
  22279795.0184    7163888.86045   5582225.51461
  19204997.729   -27326992.034 7 -21085519.14523
  19203091.4404   -2202175.63948  -1689362.08763
 91  5 14 21 45 29.9940000  0  5G13G15G19G 6G 2
  20940792.2834   -9813050.36646  -5683025.12761
  22360680.5964   -2452227.49045  -1760320.39161
  22285749.0804    7195188.09644   5606614.39761
  19200075.510   -27352846.142 7 -21105665.18423
  19202326.1504   -2206196.03348  -1692494.85363
 91  5 14 21 45 44.9940000  0  5G13G15G19G 6G 2
  20928354.7754   -9878419.35346  -5733961.89061
  22356456.768    -2474418.084 5  -1777611.72521
  22291716.6274    7226540.42345   5631044.64361
  19195170.697   -27378623.966 7 -21125751.77823
  19201571.7054   -2210158.04748  -1695582.13063
 91  5 14 21 45 59.9940000  0  5G13G15G19G 6G 2
  20915930.3854   -9943705.01946  -5784833.71061
  22352258.7294   -2496477.11545  -1794800.55761
  22297694.854     7257947.368 4   5655517.49321
  19190282.244   -27404323.523 7 -21145777.38923
  19200829.6504   -2214060.14848  -1698622.72263
 91  5 14 21 46 14.9940000  0  5G13G15G19G 6G 2
  20903523.854   -10008907.478 6  -5835640.72421
  22348090.666    -2518404.843 5  -1811887.02721
  22303680.0654    7289408.51845   5680032.53261
  19185407.229   -27429945.083 7 -21165742.22523
  19200097.9944   -2217902.77548  -1701616.97163
 91  5 14 21 46 29.9940000  0  5G13G15G19G 6G 2
  20891126.0654  -10074034.66946  -5886389.05661
  22343936.0654   -2540209.75645  -1828877.84061
  22309682.557     7320915.283 4   5704583.11821
  19180545.166   -27455496.858 7 -21185652.68423
  19199375.3854   -2221694.41748  -1704571.48963
 91  5 14 21 46 44.9940000  0  5G13G15G19G 6G 2
  20878751.994   -10139084.113 6  -5937076.83021
  22339815.7524   -2561889.50545  -1845771.11961
  22315681.4404    7352469.52844   5729170.71961
  19175694.963   -27480976.652 7 -21205507.05023
  19198664.2524   -2225433.17948  -1707484.80563
 91  5 14 21 46 59.9940000  0  5G13G15G19G 6G 2
  20866389.7524  -10204051.98246  -5987701.00561
  22335710.7604   -2583440.37445  -1862563.95761
  22321696.690     7384074.799 4   5753798.08321
  19170860.275   -27506380.511 7 -21225302.24923
  19197964.7834   -2229115.54348  -1710354.17463
 91  5 14 21 47 14.9940000  0  5G13G15G19G 6G 2
  20854042.002   -10268941.959 6  -6038264.50221
  22331638.229    -2604865.875 5  -1879259.10321
  22327714.3074    7415727.04644   5778462.02061
  19166039.900   -27531712.254 7 -21245041.25323
  19197272.9244   -2232745.35848  -1713182.59963
 91  5 14 21 47 29.9940000  0  5G13G15G19G 6G 2
  20841705.3154  -10333753.25646  -6088766.70561
  22327580.525    -2626165.758 5  -1895856.36421
  22333755.260     7447426.472 4   5803162.73621
  19161233.338   -27556971.223 7 -21264723.54823
  19196592.9324   -2236322.47248  -1715969.95563
 91  5 14 21 47 44.9940000  0  5G13G15G19G 6G 2
  20829389.236   -10398485.714 6  -6139207.45921
  22323554.7444   -2647339.79045  -1912355.58461
  22339790.799     7479172.991 4   5827900.15721
  19156440.369   -27582157.320 7 -21284349.06523
  19195922.5494   -2239846.98448  -1718716.32163
 91  5 14 21 47 59.9940000  0  5G13G15G19G 6G 2
  20817085.7054  -10463133.03546  -6189581.87761
  22319546.166    -2668381.655 5  -1928751.77521
  22345844.5654    7510972.16744   5852678.58561
  19151663.338   -27607264.500 7 -21303913.08923
  19195262.5414   -2243313.15948  -1721417.23163
 91  5 14 21 48 14.9940000  0  5G13G15G19G 6G 2
  20804801.143   -10527701.490 6  -6239894.84121
  22315571.877    -2689297.802 5  -1945050.08221
  22351903.2834    7542817.48344   5877492.98061
  19146898.565   -27632299.022 7 -21323420.49123
  19194613.8854   -2246727.36448  -1724077.64463
 91  5 14 21 48 29.9940000  0  5G13G15G19G 6G 2
  20792529.6584  -10592186.49846  -6290142.78861
  22311614.721    -2710084.143 5  -1961247.14621
  22357975.205     7574712.984 4   5902346.47421
  19142149.166   -27657256.626 7 -21342867.96123
  19193975.1584   -2250085.80648  -1726694.61263
 91  5 14 21 48 44.9940000  0  5G13G15G19G 6G 2
  20780271.752   -10656596.163 6  -6340332.02321
  22307678.6274   -2730748.87745  -1977349.50661
  22364047.533     7606650.019 4   5927232.31721
  19137412.299   -27682145.525 7 -21362261.89523
  19193344.0654   -2253397.23748  -1729274.94363
 91  5 14 21 48 59.9940000  0  5G13G15G19G 6G 2
  20768029.697   -10720931.549 6  -6390463.39021
  22303770.979    -2751293.470 5  -1993358.23121
  22370141.510     7638626.909 4   5952149.26521
  19132690.3384  -27706967.13847 -21381603.40463
  19192722.9474   -2256662.95248  -1731819.65363
 91  5 14 21 49 14.9940000  0  5G13G15G19G 6G 2
  20755801.5254  -10785183.72746  -6440529.90561
  22299883.127    -2771709.141 5  -2009266.50521
  22376231.057     7670652.399 4   5977104.03121
  19127980.697   -27731712.276 7 -21400885.31123
  19192110.8774   -2259874.19348  -1734321.91563
 91  5 14 21 49 29.9940000  0  5G13G15G19G 6G 2
  20743593.041   -10849351.598 6  -6490530.71521
  22296023.4864   -2791994.28845  -2025073.10961
  22382334.541     7702727.107 4   6002097.16321
  19123287.0104  -27756380.01447 -21420106.91663
  19191511.2684   -2263030.32548  -1736781.23463
 91  5 14 21 49 44.9940000  0  5G13G15G19G 6G 2
  20731396.721   -10913434.150 6  -6540465.07021
  22292190.5724   -2812148.86945  -2040777.89161
  22388445.760     7734851.380 4   6027128.92621
  19118606.9164  -27780969.54447 -21439267.57563
  19190920.8074   -2266130.85948  -1739197.23163
 91  5 14 21 49 59.9940000  0  5G13G15G19G 6G 2
  20719218.7754  -10977433.35446  -6590334.45861
  22288381.7214   -2832174.76045  -2056382.50161
  22394571.916     7767022.850 5   6052197.47121
  19113942.658   -27805482.999 7 -21458368.95523
  19190340.1744   -2269178.18248  -1741571.76563
 91  5 14 21 50 14.9940000  0  5G13G15G19G 6G 2
  20707057.182   -11041348.364 6  -6640138.25821
  22284595.7364   -2852071.11245  -2071886.11061
  22400699.8544    7799241.90045   6077303.06761
  19109293.4634  -27829919.63147 -21477410.47563
  19189770.3694   -2272171.92148  -1743904.55063
 91  5 14 21 50 29.9940000  0  5G13G15G19G 6G 2
  20694905.6044  -11105183.03246  -6689879.44261
  22280830.940    -2871842.316 5  -2087292.24321
  22406842.5104    7831504.10645   6102442.29161
  19104656.8464  -27854283.56447 -21496395.34863
  19189208.2214   -2275116.34248  -1746198.90163
 91  5 14 21 50 44.9940000  0  5G13G15G19G 6G 2
  20682775.8154  -11168929.80246  -6739552.14461
  22277093.2914   -2891480.84245  -2102594.92661
  22412988.7754    7863816.76545   6127620.86061
  19100036.4474  -27878567.23047 -21515317.67463
  19188660.5254   -2278004.12748  -1748449.12163
 91  5 14 21 50 59.9940000  0  5G13G15G19G 6G 2
  20670661.9004  -11232591.78446  -6789158.75861
  22273384.5024   -2910989.96645  -2117796.81361
  22419147.5024    7896176.45645   6152836.07961
  19095430.0104  -27902773.82647 -21534179.95163
  19188121.3934   -2280838.81348  -1750657.96663
 91  5 14 21 51 14.9940000  0  5G13G15G19G 6G 2
  20658560.0024  -11296175.71146  -6838704.56661
  22269692.0574   -2930376.46845  -2132903.12761
  22425314.8154    7928575.71845   6178082.10661
  19090836.9004  -27926910.28847 -21552987.57763
  19187589.7364   -2283627.75648  -1752831.16563
 91  5 14 21 51 29.9940000  0  5G13G15G19G 6G 2
  20646483.2684  -11359670.35846  -6888180.79561
  22266030.049    -2949629.354 5  -2147905.36121
  22431488.346     7961025.242 5   6203367.33221
  19086258.8224  -27950965.49447 -21571731.88563
  19187070.2684   -2286360.02948  -1754960.20563
 91  5 14 21 51 44.9940000  0  5G13G15G19G 6G 2
  20634411.213   -11423078.172 6  -6937589.36821
  22262387.018    -2968751.369 5  -2162805.59921
  22437670.9714    7993522.13145   6228689.40461
  19081696.6274  -27974942.03747 -21590414.90063
  19186560.0964   -2289038.47748  -1757047.30363
 91  5 14 21 51 59.9940000  0  5G13G15G19G 6G 2
  20622363.1744  -11486399.50846  -6986930.55561
  22258775.6194   -2987743.21545  -2177604.38661
  22443865.572     8026065.615 5   6254047.82721
  19077148.7364  -27998840.38547 -21609036.98163
  19186063.0414   -2291663.80548  -1759093.01463
 91  5 14 21 52 14.9940000  0  5G13G15G19G 6G 2
  20610331.8854  -11549635.86546  -7036205.51861
  22255188.8224   -3006606.55445  -2192303.06861
  22450069.565     8058653.663 5   6279441.01521
  19072615.0184  -28022662.35647 -21627599.54963
  19185572.9714   -2294238.15348  -1761098.99663
 91  5 14 21 52 29.9940000  0  5G13G15G19G 6G 2
  20598314.4324  -11612785.95446  -7085413.26161
  22251621.5724   -3025340.11145  -2206900.62761
  22456281.0104    8091287.18045   6304869.55661
  19068097.7754  -28046406.86647 -21646101.75763
  19185092.3694   -2296760.63248  -1763064.56563
 91  5 14 21 52 44.9940000  0  5G13G15G19G 6G 2
  20586310.596   -11675849.801 6  -7134553.80321
  22248079.8854   -3043944.21745  -2221397.28561
  22462493.4714    8123965.75245   6330333.24461
  19063594.0184  -28070073.66647 -21664543.41063
  19184621.0724   -2299231.49848  -1764989.91163
 91  5 14 21 52 59.9940000  0  5G13G15G19G 6G 2
  20574330.3464  -11738826.36946  -7183626.32561
  22244564.635    -3062418.040 5  -2235792.44421
  22468720.7914    8156689.89444
  19059104.1824  -28093661.97847 -21682923.90163
  19184162.5024   -2301650.27348  -1766874.66963
 91  5 14 21 53 14.9940000  0  5G13G15G19G 6G 2
  20562362.6974  -11801714.88546  -7232630.24261
  22241073.5104   -3080760.96645  -2250085.61161
  22474956.580     8189459.821 4
  19054631.0184  -28117171.09647 -21701242.68463
  19183710.9004   -2304016.44948  -1768718.44163
 91  5 14 21 53 29.9940000  0  5G13G15G19G 6G 2
  20550411.3304  -11864516.39146  -7281566.36161
  22237607.518    -3098974.194 5  -2264277.71521
  22481202.6504    8222274.18744
  19050173.6744  -28140602.36047 -21719500.80363
  19183269.3854   -2306331.48248  -1770522.36063
 91  5 14 21 53 44.9940000  0  5G13G15G19G 6G 2
  20538479.2754  -11927226.06946  -7330430.93361
  22234168.580    -3117053.178 5  -2278365.20121
  22487453.8074    8255137.13744        -0.31471
  19045728.9004  -28163951.02747 -21737694.55563
  19182840.6744   -2308591.09748  -1772283.09463
 91  5 14 21 53 59.9940000  0  5G13G15G19G 6G 2
  20526556.6274  -11989850.51146  -7379229.08061
  22230753.0414   -3135004.50945  -2292353.24361
  22493726.4084    8288041.67743     25639.45161
  19041299.8544  -28187223.70647 -21755829.10863
  19182419.7294   -2310802.12548  -1774005.97263
 91  5 14 21 54 14.9940000  0  5G13G15G19G 6G 2
  20514660.8384  -12052389.48946  -7427960.63761
  22227362.3544   -3152828.23245  -2306241.81861
  22499986.197     8320987.710 4     51311.55921
  19036886.4714  -28210420.22147 -21773904.30663
  19182008.1744   -2312964.64648  -1775691.05563
 91  5 14 21 54 29.9940000  0  5G13G15G19G 6G 2
  20502774.9634  -12114841.90946  -7476624.74361
  22223995.0334   -3170523.70445  -2320030.47661
  22506267.4794    8353975.75643     77016.42561
  19032486.0494  -28233539.79347 -21791919.54963
  19181606.5574   -2315078.19448  -1777337.97563
 91  5 14 21 54 44.9940000  0  5G13G15G19G 6G 2
  20490909.7914  -12177202.54146  -7525217.32661
  22220654.486    -3188085.753 5  -2333715.15521
  22512551.065     8387010.785 3    102757.88821
  19028102.0574  -28256577.28147 -21809870.83163
  19181212.7834   -2317137.78048  -1778942.84563
 91  5 14 21 54 59.9940000  0  5G13G15G19G 6G 2
  20479053.658   -12239474.116 6  -7573740.52521
  22217332.096    -3205517.061 5  -2347297.97321
  22518846.8774    8420089.49643    128533.37961
  19023733.8384  -28279535.41147 -21827760.27463
  19180831.7364   -2319146.58148  -1780508.14663
 91  5 14 21 55 14.9940000  0  5G13G15G19G 6G 2
  20467223.830   -12301657.628 6  -7622195.10021
  22214045.3854   -3222818.86645  -2360779.87061
  22525149.486     8453210.503 4    154341.78721
  19019378.9004  -28302415.25447 -21845588.71863
  19180458.8074   -2321106.01548  -1782034.98263
 91  5 14 21 55 29.9940000  0  5G13G15G19G 6G 2
  20455405.236   -12363758.633 6  -7670585.38121
  22210771.307    -3239997.102 5  -2374165.48021
  22531460.3774    8486367.64143    180178.41961
  19015039.8074  -28325222.64247 -21863360.69963
  19180093.0884   -2323022.06348  -1783528.00663
 91  5 14 21 55 44.9940000  0  5G13G15G19G 6G 2
  20443603.479   -12425773.447 6  -7718908.49721
  22207531.346    -3257048.458 5  -2387452.20021
  22537773.7294    8519563.92243    206045.56461
  19010713.7524  -28347954.22547 -21881073.61363
  19179739.5254   -2324891.66748  -1784984.83963
 91  5 14 21 55 59.9940000  0  5G13G15G19G 6G 2
  20431821.822   -12487697.523 6  -7767160.92221
  22204309.4164   -3273968.27045  -2400636.44061
  22544106.440     8552803.703 4    231946.52421
  19006404.6354  -28370605.27647 -21898723.77163
  19179392.0884   -2326710.53548  -1786402.14663
 91  5 14 21 56 14.9940000  0  5G13G15G19G 6G 2
  20420052.221   -12549535.073 6  -7815345.91721
  22201112.6744   -3290761.15045  -2413721.77661
  22550432.768     8586082.210 4    257877.71821
  19002106.8224  -28393180.20847 -21916314.62063
  19179055.3544   -2328483.19948  -1787783.43663
 91  5 14 21 56 29.9940000  0  5G13G15G19G 6G 2
  20408307.682   -12611283.737 6  -7863461.65721
  22197940.119    -3307424.855 5  -2426706.43821
  22556775.885     8619401.350 4    283840.56721
  18997827.4944  -28415676.69547 -21933844.33963
  19178726.8614   -2330207.46648  -1789127.02163
 91  5 14 21 56 44.9940000  0  5G13G15G19G 6G 2
  20396570.877   -12672944.506 6  -7911508.90721
  22194793.557    -3323960.307 5  -2439591.18021
  22563122.0104    8652759.69444    309833.92661
  18993560.2914  -28438095.95547 -21951313.88463
  19178407.9554   -2331884.90648  -1790434.11763
 91  5 14 21 56 59.9940000  0  5G13G15G19G 6G 2
  20384852.0104  -12734519.08246  -7959489.00161
  22191669.4164   -3340369.89045  -2452377.86361
  22569483.197     8686155.032 4    335856.12021
  18989309.2294  -28460439.75347 -21968724.63063
  19178097.9634   -2333517.72748  -1791706.44463
 91  5 14 21 57 14.9940000  0  5G13G15G19G 6G 2
  20373152.9634  -12795996.40546  -8007393.30661
  22188576.9004   -3356642.84445  -2465058.01361
  22575841.7754    8719597.93944    361915.39461
  18985073.6584  -28482697.14747 -21986068.04463
  19177796.2524   -2335095.40748  -1792935.80463
 91  5 14 21 57 29.9940000  0  5G13G15G19G 6G 2
  20361470.838   -12857382.960 6  -8055226.88521
  22185503.838    -3372785.372 5  -2477636.59721
  22582216.8614    8753081.50644    388006.33761
  18980853.8854  -28504874.66947 -22003349.21863
  19177506.8544   -2336624.55648  -1794127.35063
 91  5 14 21 57 44.9940000  0  5G13G15G19G 6G 2
  20349810.080   -12918671.711 6  -8102984.25021
  22182459.4714   -3388790.92545  -2490108.42461
  22588594.8614    8786612.28544    414134.07461
  18976650.2214  -28526965.51847 -22020562.86163
  19177224.8154   -2338098.68048  -1795276.01863
 91  5 14 21 57 59.9940000  0  5G13G15G19G 6G 2
  20338166.0104  -12979865.09446  -8150667.31061
  22179438.9474   -3404662.07745  -2502475.51461
  22594984.0254    8820187.41344    440296.37361
  18972461.1824  -28548972.31947 -22037711.00963
  19176955.9634   -2339520.52548  -1796383.94763
 91  5 14 21 58 14.9940000  0  5G13G15G19G 6G 2
  20326538.2134  -13040961.07446  -8198274.47861
  22176445.416    -3420396.866 5  -2514736.36621
  22601379.315     8853808.633 4    466494.60021
  18968291.0104  -28570892.73247 -22054791.83963
  19176693.9864   -2340888.19948  -1797449.66763
 91  5 14 21 58 29.9940000  0  5G13G15G19G 6G 2
  20314928.5414  -13101961.22046  -8245806.97661
  22173480.2604   -3435997.22945  -2526892.44561
  22607787.9474    8887473.86944    492727.12661
  18964134.8694  -28592728.71747 -22071806.88563
  19176442.5654   -2342203.75348  -1798474.77463
 91  5 14 21 58 44.9940000  0  4G13G15G 6G 2
  20303340.807   -13162868.340 6  -8293266.96921
  22170530.2834   -3451466.20845  -2538946.19161
  18959995.4324  -28614483.25947 -22088758.47063
  19176204.2214   -2343470.55148  -1799461.88763
 91  5 14 21 58 59.9940000  0  4G13G15G 6G 2
  20291764.9944  -13223686.19446  -8340657.41961
  22167612.1434   -3466807.65245  -2550900.51661
  18955870.9944  -28636159.94147 -22105649.38163
  19175968.9864   -2344692.57448  -1800414.11563
 91  5 14 21 59 14.9940000  0  4G13G15G 6G 2
  20280211.869   -13284408.198 6  -8387973.16321
  22164717.6584   -3482015.52045  -2562750.77061
  18951762.5884  -28657752.90047 -22122475.05763
  19175746.6194   -2345863.97048  -1801326.88763
 91  5 14 21 59 29.9940000  0  4G13G15G 6G 2
  20268677.2834  -13345030.31346  -8435211.09261
  22161847.947    -3497085.689 5  -2574493.73021
  18947667.8544  -28679257.74547 -22139232.07163
  19175533.6584   -2346980.78948  -1802197.13663
 91  5 14 21 59 44.9940000  0  4G13G15G 6G 2
  20257155.9244  -13405559.60746  -8482376.68461
  22159009.2444   -3512025.57445  -2586135.14961
  18943591.0334  -28700681.67947 -22155926.03763
  19175330.6664   -2348050.59848  -1803030.75163
 91  5 14 21 59 59.9940000  0  4G13G15G 6G 2
  20245659.9714  -13465989.38146  -8529464.73061
  22156191.0654   -3526828.40145  -2597669.78161
  18939532.3694  -28722017.94747 -22172551.69163
  19175138.6434   -2349066.80448  -1803822.59963
 91  5 14 22  0 14.9940000  0  4G13G15G 6G 2
  20234178.166   -13526320.085 6  -8576475.57621
  22153398.400    -3541494.875 5  -2609098.18021
  18935489.5964  -28743267.43247 -22189109.71963
  19174955.3614   -2350030.37548  -1804573.42863
 91  5 14 22  0 29.9940000  0  4G13G15G 6G 2
  20222715.7914  -13586552.29146  -8623409.66961
  22150633.7134   -3556026.09345  -2620421.15161
  18931462.5884  -28764430.92147 -22205600.74063
  19174781.3074   -2350942.57348  -1805284.23063
 91  5 14 22  0 44.9940000  0  4G13G15G 6G 2
  20211271.5024  -13646686.64246  -8670267.51961
  22147896.2364   -3570422.74245  -2631639.29061
  18927450.322   -28785508.857 7 -22222025.09323
  19174616.3774   -2351804.24948  -1805955.66563
 91  5 14 22  0 59.9940000  0  4G13G15G 6G 2
  20199846.9554  -13706720.12546  -8717046.76261
  22145179.3694   -3584682.13545  -2642750.48261
  18923455.5654  -28806498.44447 -22238380.60563
  19174463.0184   -2352612.89748  -1806585.77763
 91  5 14 22  1 14.9940000  0  4G13G15G 6G 2
  20188440.4864  -13766653.14346  -8763747.72761
  22142492.338    -3598804.936 5  -2653755.22921
  18919477.7754  -28827400.20447 -22254667.68463
  19174318.3224   -2353369.07048  -1807175.00163
 91  5 14 22  1 29.9940000  0  4G13G15G 6G 2
  20177055.9404  -13826489.21946  -8810373.15861
  22139831.018    -3612794.946 5  -2664656.52721
  18915516.5334  -28848217.83047 -22270889.19563
  19174184.9164   -2354076.72048  -1807726.41263
 91  5 14 22  1 44.9940000  0  4G13G15G 6G 2
  20165687.8154  -13886226.26246  -8856921.41661
  22137192.0414   -3626650.08845  -2675452.71861
  18911571.2524  -28868949.23747 -22287043.53363
  19174058.3614   -2354734.06748  -1808238.63063
 91  5 14 22  1 59.9940000  0  4G13G15G 6G 2
  20154340.4164  -13945862.85546  -8903391.39561
  22134585.5654   -3640369.08045  -2686142.82761
  18907642.8854  -28889593.14147 -22303129.68063
  19173944.2134   -2355340.24048  -1808710.96363
 91  5 14 22  2 14.9940000  0  4G13G15G 6G 2
  20143011.588   -14005399.037 6  -8949783.13621
  22132001.658    -3653952.423 5  -2696727.22321
  18903732.002   -28910149.488 7 -22319147.60423
  19173836.0724   -2355895.60648  -1809143.71663
 91  5 14 22  2 29.9940000  0  4G13G15G 6G 2
  20131702.861   -14064828.194 6  -8996091.49721
  22129443.6354   -3667393.65445  -2707200.91061
  18899837.3384  -28930612.02347 -22335092.42963
  19173746.0964   -2356393.95648  -1809532.04263
 91  5 14 22  2 44.9940000  0  4G13G15G 6G 2
  20120412.057   -14124154.884 6  -9042319.99921
  22126909.635    -3680697.089 5  -2717567.19921
  18895961.1974  -28950985.19947 -22350967.62263
  19173657.4864   -2356839.95948  -1809879.57163
 91  5 14 22  2 59.9940000  0  4G13G15G 6G 2
  20109140.9164  -14183382.30946  -9088471.15561
  22124403.0724   -3693866.65345  -2727829.17861
  18892100.4634  -28971272.50147 -22366775.90263
  19173581.2134   -2357237.33948  -1810189.21763
 91  5 14 22  3 14.9940000  0  4G13G15G 6G 2
  20097890.127   -14242509.708 6  -9134544.36621
  22121923.549    -3706901.793 5  -2737986.40621
  18888257.4944  -28991473.14347 -22382516.66062
  19173515.1114   -2357585.57948  -1810460.57563
 91  5 14 22  3 29.9940000  0  4G13G15G 6G 2
  20086657.924   -14301528.064 6  -9180532.61421
  22119466.2834   -3719793.56645  -2748031.91461
  18884432.1584  -29011578.21347 -22398182.94063
  19173463.5494   -2357876.23748  -1810687.06363
 91  5 14 22  3 44.9940000  0  4G13G15G 6G 2
  20075448.588   -14360448.646 6  -9226444.67521
  22117041.6434   -3732553.50245  -2757974.71561
  18880621.8384  -29031599.04747 -22413783.59163
  19173414.4944   -2358120.86348  -1810877.68263
 91  5 14 22  3 59.9940000  0  4G13G15G 6G 2
  20064252.916   -14419270.202 6  -9272279.57921
  22114636.2754   -3745180.81445  -2767814.13961
  18876827.2134  -29051534.70747 -22429317.86163
  19173377.2524   -2358318.67648  -1811031.82263
 91  5 14 22  4 14.9940000  0  4G13G15G 6G 2
  20053078.3694  -14477991.27946  -9318036.16861
  22112265.7914   -3757674.06045  -2777549.13261
  18873048.8934  -29071383.76847 -22444784.66163
  19173351.8854   -2358468.44948
 91  5 14 22  4 29.9940000  0  4G13G15G 6G 2
  20041924.213   -14536609.315 6  -9363712.48721
  22109912.8694   -3770030.66345  -2787177.62661
  18869289.9004  -29091143.52547 -22460181.87363
  19173330.0574   -2358567.78248
 91  5 14 22  4 44.9940000  0  4G13G15G 6G 2
  20030790.9634  -14595126.19746  -9409309.97161
  22107584.2914   -3782253.00245  -2796701.48061
  18865546.5964  -29110816.23847 -22475511.25562
  19173319.7214   -2358619.12648
 91  5 14 22  4 59.9940000  0  4G13G15G 6G 2
  20019672.510   -14653540.236 6  -9454827.32421
  22105281.986    -3794339.700 5  -2806119.67421
  18861818.5804  -29130400.38347 -22490771.62862
  19173319.2754   -2358621.35448
 91  5 14 22  5 14.9940000  0  4G13G15G 6G 2
  20008577.713   -14711850.673 6  -9500263.94021
  22103008.2524   -3806290.21745  -2815431.74861
  18858109.9794  -29149894.96447 -22505962.20862
  19173327.1744   -2358573.94248
 91  5 14 22  5 29.9940000  0  4G13G15G 6G 2
  19997503.127   -14770049.852 6  -9545613.87621
  22100761.3384   -3818097.09945  -2824631.89261
  18854419.4244  -29169292.59147 -22521077.23562
  19173349.1744   -2358469.66748
 91  5 14 22  5 44.9940000  0  4G13G15G 6G 2
  19986447.315   -14828139.976 6  -9590878.82921
  22098542.7914   -3829762.74345  -2833721.99361
  18850745.1904  -29188595.61147 -22536118.55262
  19173381.2684   -2358311.03548
 91  5 14 22  5 59.9940000  0  4G13G15G 6G 2
  19975414.463   -14886125.869 6  -9636062.55821
  22096348.2364   -3841292.36245  -2842706.09061
  18847088.3384  -29207809.06447 -22551090.07262
  19173421.2684   -2358103.24148
 91  5 14 22  6 14.9940000  0  4G13G15G 6G 2
  19964397.166   -14944015.128 6  -9681170.99121
  22094178.338    -3852693.794 5  -2851590.29821
  18843449.7214  -29226940.72747 -22565997.85862
  19173465.6584   -2357854.34248  -1810670.02363
 91  5 14 22  6 29.9940000  0  4G13G15G 6G 2
  19953402.252   -15001801.809 6  -9726199.49121
  22092035.377    -3863961.129 5  -2860370.01321
  18839823.8074  -29245984.30647 -22580837.00162
  19173524.9324   -2357558.43148  -1810439.44663
 91  5 14 22  6 44.9940000  0  4G13G15G 6G 2
  19942424.838   -15059485.388 6  -9771147.66221
  22089913.807    -3875094.061 5  -2869044.99921
  18836218.3854  -29264939.36147 -22595607.17963
  19173585.2754   -2357215.36748  -1810172.12763
 91  5 14 22  6 59.9940000  0  4G13G15G 6G 2
  19931466.822   -15117063.602 6  -9816013.73721
  22087825.3544   -3886090.93246  -2877613.98861
  18832629.1824  -29283804.25947 -22610307.09662
  19173661.5254   -2356823.71648  -1809866.95263
 91  5 14 22  7 14.9940000  0  4G13G15G 6G 2
  19920530.166   -15174536.783 6  -9860797.94821
  22085757.7834   -3896951.96345  -2886077.09061
  18829055.8934  -29302579.07047 -22624936.81463
  19173748.4474   -2356383.82748  -1809524.18463
 91  5 14 22  7 29.9940000  0  4G13G15G 6G 2
  19909613.690   -15231897.393 6  -9905494.45621
  22083720.9864   -3907669.73146  -2894428.58261
  18825500.9714  -29321256.45847 -22639490.62163
  19173838.3774   -2355888.54948  -1809138.25463
 91  5 14 22  7 44.9940000  0  4G13G15G 6G 2
  19898720.5414  -15289153.99446  -9950109.92061
  22081703.315    -3918253.096 5  -2902675.34021
  18821963.8304  -29339844.67747 -22653974.94163
  19173941.8694   -2355346.56448  -1808715.92763
 91  5 14 22  7 59.9940000  0  4G13G15G 6G 2
  19887843.643   -15346307.741 6  -9994645.22221
  22079716.6044   -3928703.77845  -2910818.70861
  18818443.8934  -29358345.30747 -22668391.00663
  19174053.8694   -2354759.64948  -1808258.59763
 91  5 14 22  8 14.9940000  0  4G13G15G 6G 2
  19876987.885   -15403353.922 6 -10039096.72321
  22077753.6354   -3939017.15145  -2918855.08161
  18814940.3694  -29376753.98947 -22682735.42563
  19174174.6354   -2354123.56648  -1807762.95363
 91  5 14 22  8 29.9940000  0  4G13G15G 6G 2
  19866152.643   -15460293.917 6 -10083465.46621
  22075817.4324   -3949194.73945  -2926785.64961
  18811453.8304  -29395071.81347 -22697009.04563
  19174305.9554   -2353439.81248  -1807230.16363
 91  5 14 22  8 44.9940000  0  4G13G15G 6G 2
  19855338.275   -15517124.491 6 -10127748.94921
  22073905.9634   -3959233.50945  -2934608.05061
  18807986.6664  -29413295.64447 -22711209.42862
  19174446.7604   -2352705.12548  -1806657.68763
 91  5 14 22  8 59.9940000  0  4G13G15G 6G 2
  19844542.541   -15573859.080 6 -10171957.64721
  22072019.4324   -3969147.08245  -2942332.90361
  18804532.8854  -29431439.11247 -22725347.18863
  19174594.2834   -2351933.55748  -1806056.46863
 91  5 14 22  9 14.9940000  0  4G13G15G 6G 2
  19833763.4864  -15630488.48646 -10216084.38461
  22070159.1504   -3978926.81945  -2949953.45861
  18801098.0964  -29449493.10947 -22739415.22563
  19174747.9634   -2351116.39948  -1805419.72763
 91  5 14 22  9 29.9940000  0  4G13G15G 6G 2
  19823009.713   -15687010.501 6 -10260127.43321
  22068324.674    -3988570.301 6  -2957467.85721
  18797680.2994  -29467455.37647 -22753411.78863
  19174911.9404   -2350251.63648  -1804745.89063
 91  5 14 22  9 44.9940000  0  4G13G15G 6G 2
  19812273.1824  -15743422.67046 -10304084.89261
  22066513.682    -3998075.317 5  -2964874.34921
  18794278.7604  -29485323.49647 -22767334.99363
  19175086.0724   -2349337.16148  -1804033.31363
 91  5 14 22  9 59.9940000  0  4G13G15G 6G 2
  19801562.736   -15799718.004 6 -10347951.31621
  22064730.9714   -4007435.54245  -2972168.00561
  18790898.5184  -29503090.84147 -22781179.66963
  19175272.0024   -2348366.59648  -1803277.03563
 91  5 14 22 10 14.9940000  0  4G13G15G 6G 2
  19790868.744   -15855901.570 6 -10391730.64321
  22062977.854    -4016656.171 5  -2979352.91521
  18787534.9244  -29520762.34547 -22794949.66063
  19175467.6824   -2347345.12148  -1802481.08263
 91  5 14 22 10 29.9940000  0  4G13G15G 6G 2
  19780197.924   -15911977.333 6 -10435425.96221
  22061250.666    -4025741.535 5  -2986432.39921
  18784190.2134  -29538342.19447 -22808648.23463
  19175669.5804   -2346277.16848  -1801648.90963
 91  5 14 22 10 44.9940000  0  4G13G15G 6G 2
  19769548.627   -15967943.213 6 -10479035.66821
  22059547.9404   -4034689.65845  -2993404.95861
  18780862.893   -29555828.378 7 -22822273.82122
  19175882.1584   -2345160.94148  -1800779.12363
 91  5 14 22 10 59.9940000  0  4G13G15G 6G 2
  19758921.666   -16023796.754 6 -10522557.83121
  22057868.6044   -4043497.91145  -3000268.53361
  18777554.416   -29573218.519 7 -22835824.56722
  19176102.8074   -2343994.09648  -1799869.89663
 91  5 14 22 11 14.9940000  0  4G13G15G 6G 2
  19748314.065   -16079538.248 6 -10565992.68821
  22056220.1584   -4052167.27245  -3007023.85761
  18774261.7364  -29590513.02847 -22849300.79562
  19176334.1744   -2342777.51748  -1798921.91363
 91  5 14 22 11 29.9940000  0  4G13G15G 6G 2
  19737728.565   -16135166.842 6 -10609339.56321
  22054594.7054   -4060697.41845  -3013670.71061
  18770989.9324  -29607711.05647 -22862701.84362
  19176577.2214   -2341510.73248  -1797934.80963
 91  5 14 22 11 44.9940000  0  4G13G15G 6G 2
  19727160.6664  -16190688.55346 -10652603.16461
  22052998.6504   -4069094.33945  -3020213.75561
  18767734.2134  -29624818.78447 -22876032.53462
  19176826.7914   -2340199.99748  -1796913.45463
 91  5 14 22 11 59.9940000  0  4G13G15G 6G 2
  19716619.096   -16246095.268 6 -10695777.14721
  22051430.244    -4077350.052 5  -3026646.76221
  18764497.0964  -29641828.13247 -22889286.56262
  19177085.7914   -2338837.38948  -1795851.68363
 91  5 14 22 12 14.9940000  0  4G13G15G 6G 2
  19706093.690   -16301399.252 6 -10738871.08921
  22049883.815    -4085476.895 5  -3032979.36621
  18761277.0104  -29658751.32447 -22902473.45762
  19177351.4324   -2337435.51448  -1794759.31663
 91  5 14 22 12 29.9940000  0  4G13G15G 6G 2
  19695590.822   -16356591.535 6 -10781877.98921
  22048359.0104   -4093466.28145  -3039204.83861
  18758075.5804  -29675579.46247 -22915586.28162
  19177627.9864   -2335985.70548  -1793629.59963
 91  5 14 22 12 44.9940000  0  4G13G15G 6G 2
  19685110.565   -16411668.643 6 -10824795.13521
  22046869.549    -4101315.224 6  -3045320.88321
  18754891.3774  -29692309.50247 -22928622.66662
  19177913.3074   -2334484.95148  -1792460.17963
 91  5 14 22 12 59.9940000  0  4G13G15G 6G 2
  19674650.2054  -16466636.44546 -10867627.11861
  22045400.3544   -4109029.82745  -3051332.21461
  18751725.3614  -29708946.97547 -22941586.92762
  19178207.5334   -2332939.51948  -1791255.94363
 91  5 14 22 13 14.9940000  0  4G13G15G 6G 2
  19664213.127   -16521491.188 6 -10910370.99821
  22043959.0184   -4116606.42745  -3057236.05761
  18748578.5884  -29725488.33947 -22954476.29462
  19178509.3694   -2331346.00448  -1790014.24263
 91  5 14 22 13 29.9940000  0  4G13G15G 6G 2
  19653795.807   -16576227.883 6 -10953022.89321
  22042544.393    -4124040.305 5  -3063028.66821
  18745448.7294  -29741929.09347 -22967287.26762
  19178824.5334   -2329699.77748  -1788731.46463
 91  5 14 22 13 44.9940000  0  4G13G15G 6G 2
  19643399.580   -16630851.411 6 -10995586.60721
  22041156.666    -4131336.644 5  -3068714.09521
  18742339.9474  -29758273.60647 -22980023.24662
  19179146.5654   -2328005.86648  -1787411.53063
 91  5 14 22 13 59.9940000  0  4G13G15G 6G 2
  19633026.963   -16685363.552 6 -11038063.53021
  22039793.1904   -4138497.61245  -3074294.07061
  18739247.6974  -29774524.04147 -22992685.91862
  19179476.8224   -2326266.26148  -1786055.99363
 91  5 14 22 14 14.9940000  0  4G13G15G 6G 2
  19622677.346   -16739758.765 6 -11080449.34121
  22038454.635    -4145517.691 5  -3079764.23221
  18736172.9164  -29790674.72147 -23005270.85262
  19179818.3934   -2324475.74648  -1784660.78663
 91  5 14 22 14 29.9940000  0  4G13G15G 6G 2
  19612349.3774  -16794025.76746 -11122735.24561
  22037149.8384   -4152385.61245  -3085115.85161
  18733122.2604  -29806714.55347 -23017769.42162
  19180171.0184   -2322623.24048  -1783217.27263
 91  5 14 22 14 44.9940000  0  4G13G15G 6G 2
  19602044.9714  -16848182.73346 -11164935.40961
  22035866.1504   -4159120.16045  -3090363.52661
  18730086.1274  -29822661.83447 -23030195.86463
  19180529.7524   -2320727.70848  -1781740.23363
 91  5 14 22 14 59.9940000  0  4G13G15G 6G 2
  19591759.9794  -16902227.37446 -11207048.05361
  22034609.2214   -4165719.30945  -3095505.69961
  18727068.0494  -29838514.20547 -23042548.35462
  19180900.1664   -2318786.77348  -1780227.81563
 91  5 14 22 15 14.9940000  0  4G13G15G 6G 2
  19581495.5804  -16956164.17946 -11249076.66861
  22033382.1904   -4172187.86545  -3100546.12261
  18724071.8614  -29854276.55547 -23054830.70363
  19181278.2054   -2316805.47448  -1778683.94663
 91  5 14 22 15 29.9940000  0  4G13G15G 6G 2
  19571255.2134  -17009981.15347 -11291011.90261
  22032177.3614   -4178513.97545  -3105475.52061
  18721090.5334  -29869936.47047 -23067033.22562
  19181664.0184   -2314772.06348  -1777099.46563
 91  5 14 22 15 44.9940000  0  4G13G15G 6G 2
  19561036.5964  -17063685.26747 -11332859.20561
  22030997.6664   -4184704.79845  -3110299.53961
  18718129.1354  -29885501.48147 -23079161.80362
  19182058.0884   -2312693.94848  -1775480.15563
 91  5 14 22 15 59.9940000  0  4G13G15G 6G 2
  19550838.2524  -17117273.43947 -11374616.15761
  22029846.1664   -4190757.59245  -3115015.96261
  18715185.3694  -29900968.23647 -23091213.82063
  19182462.8934   -2310568.06048  -1773823.61763
 91  5 14 22 16 14.9940000  0  4G13G15G 6G 2
  19540661.8774  -17170748.17647 -11416284.71761
  22028719.588    -4196674.740 5  -3119626.71621
  18712260.2294  -29916339.27947 -23103191.25462
  19182877.0334   -2308397.06848  -1772131.93463
 91  5 14 22 16 29.9940000  0  4G13G15G 6G 2
  19530508.4404  -17224100.60747 -11457857.96961
  22027620.900    -4202448.020 5  -3124125.35621
  18709354.9164  -29931606.02647 -23115087.41563
  19183300.8224   -2306172.80348  -1770398.73963
 91  5 14 22 16 44.9940000  0  4G13G15G 6G 2
  19520381.2134  -17277330.53647 -11499335.76761
  22026551.150    -4208077.399 5  -3128511.88121
  18706469.2524  -29946768.21447 -23126902.10862
  19183733.7754   -2303895.31848  -1768624.07363
 91  5 14 22 16 59.9940000  0  4G13G15G 6G 2
  19510272.5494  -17330445.36247 -11540723.88361
  22025500.893    -4213570.900 5  -3132792.50421
  18703603.6824  -29961833.56547 -23138641.33862
  19184175.9634   -2301572.44648  -1766814.04163
 91  5 14 22 17 14.9940000  0  4G13G15G 6G 2
  19500185.971   -17383442.431 6 -11582020.22821
  22024488.7444   -4218925.88445  -3136965.21861
  18700755.6504  -29976799.48447 -23150303.09362
  19184626.1974   -2299201.55248  -1764966.59263
 91  5 14 22 17 29.9930000  0  4G13G15G 6G 2
  19490125.958   -17436318.318 6 -11623222.14821
  22023496.669    -4224142.493 5  -3141030.07721
  18697927.6614  -29991664.89847 -23161886.52962
  19185087.1694   -2296783.29148  -1763082.23563
 91  5 14 22 17 44.9930000  0  4G13G15G 6G 2
  19480085.357   -17489081.890 7 -11664336.55921
  22022524.4894   -4229223.25445  -3144989.11861
  18695115.8174  -30006433.75347 -23173394.72763
  19185556.9504   -2294319.31248  -1761162.25263
 91  5 14 22 17 59.9930000  0  4G13G15G 6G 2
  19470068.9824  -17541718.45147 -11705351.98261
  22021585.685    -4234156.867 5  -3148833.47421
  18692324.3334  -30021093.82947 -23184818.15662
  19186036.6694   -2291799.00948  -1759198.38463
 91  5 14 22 18 14.9930000  0  4G13G15G 6G 2
  19460075.9974  -17594232.26047 -11746271.76761
  22020679.2634   -4238948.13245  -3152566.92861
  18689555.9114  -30035649.70647 -23196160.39463
  19186524.6534   -2289227.13348  -1757194.32763
 91  5 14 22 18 29.9930000  0  4G13G15G 6G 2
  19450103.747   -17646628.690 7 -11787100.08321
  22019790.9274   -4243602.28845  -3156193.51061
  18686804.3254  -30050106.62047 -23207425.52163
  19187023.2784   -2286609.02748  -1755154.24763
 91  5 14 22 18 44.9930000  0  4G13G15G 6G 2
  19440156.817   -17698905.047 7 -11827834.83721
  22018931.919    -4248117.186 5  -3159711.62021
  18684072.8254  -30064462.00547 -23218611.53162
  19187533.0444   -2283942.49548  -1753076.43863
 91  5 14 22 18 59.9930000  0  4G13G15G 6G 2
  19430233.4824  -17751053.62647 -11868470.02561
  22018102.966    -4252485.139 5  -3163115.19921
  18681362.8334  -30078708.29247 -23229712.53462
  19188050.0364   -2281220.21748  -1750955.18363
 91  5 14 22 19 14.9930000  0  4G13G15G 6G 2
  19420334.5284  -17803077.26147 -11909007.85161
  22017296.067    -4256709.298 5  -3166406.75321
  18678671.5994  -30092848.06747 -23240730.53962
  19188577.7324   -2278444.98248  -1748792.66263
 91  5 14 22 19 29.9930000  0  4G13G15G 6G 2
  19410456.817   -17854982.551 7 -11949453.45321
  22016520.9504   -4260796.80445  -3169591.82961
  18675998.1924  -30106888.29847 -23251670.97762
  19189115.7864   -2275623.87848  -1746594.40163
 91  5 14 22 19 44.9930000  0  4G13G15G 6G 2
  19400602.1854  -17906764.37547 -11989802.86961
  22015766.9974   -4264742.50845  -3172666.38561
  18673347.9744  -30120823.75647 -23262529.77562
  19189661.8024   -2272751.92948  -1744356.52663
 91  5 14 22 19 59.9930000  0  4G13G15G 6G 2
  19390771.466   -17958424.205 7 -12030057.20921
  22015046.1924   -4268548.24245  -3175631.89361
  18670715.8804  -30134656.16547 -23273308.27262
  19190216.4584   -2269831.19548  -1742080.63263
 91  5 14 22 20 14.9930000  0  4G13G15G 6G 2
  19380965.3024  -18009949.47947 -12070206.70661
  22014346.5134   -4272201.88145  -3178478.88561
  18668105.4274  -30148372.92047 -23283996.64962
  19190783.8964   -2266849.02848  -1739756.87163
 91  5 14 22 20 29.9930000  0  4G13G15G 6G 2
  19371186.1694  -18061351.78247 -12110260.38261
  22013678.763    -4275715.078 5  -3181216.42721
  18665515.1144  -30161985.59147 -23294603.92362
  19191360.7084   -2263817.49848  -1737394.64463
 91  5 14 22 20 44.9930000  0  4G13G15G 6G 2
  19361428.3964  -18112629.00047 -12150216.59161
  22013038.278    -4279086.304 5  -3183843.34921
  18662945.5754  -30175492.54847 -23305128.82162
  19191946.0214   -2260734.99348  -1734992.69663
 91  5 14 22 20 59.9930000  0  4G13G15G 6G 2
  19351693.2784  -18163784.49647 -12190077.95361
  22012425.4504   -4282319.05245  -3186362.38161
  18660394.9744  -30188896.98547 -23315573.83062
  19192543.0914   -2257604.89748  -1732553.66363
 91  5 14 22 21 14.9930000  0  4G13G15G 6G 2
  19341984.4034  -18214810.26047 -12229838.21661
  22011837.435    -4285405.586 5  -3188767.46821
  18657863.5054  -30202190.88747 -23325932.71662
  19193148.9114   -2254419.58648  -1730071.60563
 91  5 14 22 21 29.9930000  0  4G13G15G 6G 2
  19332296.9504  -18265707.00247 -12269497.95061
  22011275.5284   -4288346.90445  -3191059.40361
  18655356.1464  -30215375.17147 -23336206.18462
  19193765.5604   -2251180.18348  -1727547.39863
 91  5 14 22 21 44.9930000  0  4G13G15G 6G 2
  19322636.5754  -18316477.46447 -12309059.29261
  22010747.5994   -4291145.92945  -3193240.45961
  18652865.9824  -30228452.51147 -23346396.31362
  19194391.0994   -2247889.56548  -1724983.28463
 91  5 14 22 21 59.9930000  0  4G13G15G 6G 2
  19312998.1304  -18367124.24947 -12348524.25561
  22010237.0524   -4293805.14945  -3195312.59261
  18650399.0754  -30241425.35947 -23356505.02362
  19195027.0134   -2244550.25348  -1722381.22963
 91  5 14 22 22 14.9930000  0  4G13G15G 6G 2
  19303385.1304  -18417643.53847 -12387889.87061
  22009757.622    -4296321.316 5  -3197273.24321
  18647949.5444  -30254289.90647 -23366529.34262
  19195673.7004   -2241158.95148  -1719738.66063
 91  5 14 22 22 29.9930000  0  4G13G15G 6G 2
  19293793.911   -18468042.478 7 -12427161.71321
  22009307.7784   -4298701.95145  -3199128.27061
  18645520.7004  -30267053.61047 -23376475.08562
  19196326.5994   -2237723.06248  -1717061.34363
 91  5 14 22 22 44.9930000  0  4G13G15G 6G 2
  19284227.9424  -18518317.02547 -12466336.62461
  22008881.044    -4300943.228 5  -3200874.74821
  18643113.8804  -30279712.45647 -23386339.11962
  19196987.6384   -2234238.97148  -1714346.46963
 91  5 14 22 22 59.9930000  0  4G13G15G 6G 2
  19274685.3254  -18568459.90547 -12505408.93561
  22008481.3104   -4303037.96845  -3202506.98861
  18640724.9504  -30292259.16747 -23396115.77462
  19197661.4354   -2230699.67748  -1711588.58763
 91  5 14 22 23 14.9930000  0  4G13G15G 6G 2
  19265167.2784  -18618477.07847 -12544383.29161
  22008106.8964   -4304992.47845  -3204030.00361
  18638357.6074  -30304699.68547 -23405809.68562
  19198346.3574   -2227111.21548  -1708792.38563
 91  5 14 22 23 29.9930000  0  4G13G15G 6G 2
  19255674.8494  -18668361.42547 -12583254.15461
  22007766.8104   -4306799.75145  -3205438.22561
  18636012.5284  -30317026.89847 -23415415.30362
  19199038.5524   -2223466.69048  -1705952.50263
 91  5 14 22 23 44.9930000  0  4G13G15G 6G 2
  19246206.9034  -18718116.17347 -12622024.02161
  22007449.114    -4308463.311 5  -3206734.53521
  18633687.4824  -30329244.20847 -23424935.28262
  19199742.4274   -2219769.57348  -1703071.63663
 91  5 14 22 23 59.9930000  0  4G13G15G 6G 2
  19236762.0834  -18767744.27547 -12660695.20561
  22007161.5054   -4309986.73945  -3207921.60961
  18631382.1224  -30341354.89447 -23434372.18162
  19200455.0604   -2216023.29548  -1700152.46463
 91  5 14 22 24 14.9930000  0  4G13G15G 6G 2
  19227342.7244  -18817244.96847 -12699267.10861
  22006897.6774   -4311369.59645  -3208999.18861
  18629098.9974  -30353357.90847 -23443725.18262
  19201177.3494   -2212227.37748  -1697194.61263
 91  5 14 22 24 29.9930000  0  4G13G15G 6G 2
  19217947.2244  -18866619.55847 -12737740.75961
  22006658.3574   -4312613.26145  -3209968.27361
  18626835.2714  -30365254.80647 -23452995.48562
  19201909.3414   -2208383.33148  -1694199.25863
 91  5 14 22 24 44.9930000  0  4G13G15G 6G 2
  19208575.3254  -18915868.35447 -12776116.37761
  22006447.8964   -4313718.37445  -3210829.41361
  18624590.3024  -30377045.83347 -23462183.30062
  19202650.0134   -2204491.77748  -1691166.88263
 91  5 14 22 24 59.9930000  0  4G13G15G 6G 2
  19199228.2714  -18964986.39747 -12814390.11161
  22006265.185    -4314680.327 5  -3211579.00721
  18622367.3574  -30388726.15447 -23471284.84262
  19203400.5674   -2200548.00048  -1688093.82063
 91  5 14 22 25 14.9930000  0  4G13G15G 6G 2
  19189905.0994  -19013977.69647 -12852565.08961
  22006113.036    -4315503.131 5  -3212220.14121
  18620165.0284  -30400299.60047 -23480303.11262
  19204159.8574   -2196556.08648  -1684983.24263
 91  5 14 22 25 29.9930000  0  4G13G15G 6G 2
  19180608.4354  -19062837.43247 -12890637.54961
  22005982.700    -4316182.559 5  -3212749.57621
  18617984.3884  -30411761.50847 -23489234.46862
  19204931.4894   -2192511.64248  -1681831.73363
 91  5 14 22 25 44.9930000  0  4G13G15G 6G 2
  19171333.6694  -19111571.73647 -12928612.26461
  22005880.8884   -4316724.72345  -3213172.04761
  18615821.8414  -30423118.13547 -23498083.78562
  19205707.8334   -2188420.84348  -1678644.09863
 91  5 14 22 25 59.9930000  0  4G13G15G 6G 2
  19162084.2474  -19160180.56247 -12966489.20661
  22005796.560    -4317129.639 5  -3213487.58221
  18613682.4354  -30434369.46547 -23506851.05762
  19206496.8334   -2184284.02348  -1675420.61163
 91  5 14 22 26 14.9930000  0  4G13G15G 6G 2
  19152857.3724  -19208668.56747 -13004272.00661
  22005751.2244   -4317402.42045  -3213700.13261
  18611560.1614  -30445520.19047 -23515539.93462
  19207290.0674   -2180106.00048  -1672165.01163
 91  5 14 22 26 29.9930000  0  4G13G15G 6G 2
  19143651.4424  -19257036.35347 -13041961.12661
  22005716.0994   -4317543.95545
  18609457.4664  -30456570.85047 -23524150.83862
  19208093.6774   -2175887.63248  -1668877.97663
 91  5 14 22 26 44.9930000  0  4G13G15G 6G 2
  19134473.9274  -19305274.33347 -13079549.10261
  22005719.3724   -4317545.27445
  18607374.6144  -30467512.10747 -23532676.49362
  19208905.7554   -2171619.83348  -1665552.42463
 91  5 14 22 26 59.9930000  0  4G13G15G 6G 2
  19125319.6144  -19353383.42047 -13117036.64161
  22005744.692    -4317407.196 5
  18605313.9354  -30478344.81147 -23541117.56262
  19209726.0444   -2167303.72548  -1662189.22863
 91  5 14 22 27 14.9930000  0  4G13G15G 6G 2
  19116190.5994  -19401361.19047 -13154421.86061
  22005802.9114   -4317127.88445
  18603274.6304  -30489066.75147 -23549472.32262
  19210557.5284   -2162937.02448  -1658786.60963
 91  5 14 22 27 29.9930000  0  4G13G15G 6G 2
  19107082.9744  -19449208.27947 -13191705.23861
  22005871.3174   -4316708.16445  -3213159.11861
  18601251.1694  -30499678.47747 -23557741.19962
  19211399.6694   -2158520.57748  -1655345.22563
 91  5 14 22 27 44.9930000  0  4G13G15G 6G 2
  19098002.7244  -19496932.10847 -13228892.57761
  22005992.286    -4316155.491 5  -3212728.49721
  18599253.2004  -30510187.38947 -23565929.96462
  19212245.5834   -2154061.93248  -1651870.96263
 91  5 14 22 27 59.9930000  0  4G13G15G 6G 2
  19088944.4504  -19544532.94147 -13265984.07461
  22006111.2084   -4315470.69445  -3212194.88161
  18597275.0754  -30520593.87347 -23574038.90762
  19213102.0834   -2149561.63648  -1648364.24363
 91  5 14 22 28 14.9930000  0  4G13G15G 6G 2
  19079909.8024  -19592008.72847 -13302978.12961
  22006275.372    -4314651.873 5  -3211556.85521
  18595314.7714  -30530895.87547 -23582066.44462
  19213965.8494   -2145018.01448  -1644823.76563
 91  5 14 22 28 29.9930000  0  4G13G15G 6G 2
  19070900.6534  -19639347.79447 -13339865.64761
  22006451.2244   -4313687.48645  -3210805.38061
  18593376.2164  -30541081.72047 -23590003.46562
  19214843.1224   -2140419.50048  -1641240.51163
 91  5 14 22 28 44.9930000  0  4G13G15G 6G 2
  19061917.8884  -19686559.58847 -13376654.00061
  22006662.677    -4312587.170 5  -3209947.98921
  18591457.1464  -30551160.87947 -23597857.35562
  19215727.6614   -2135775.79348  -1637622.04863
 91  5 14 22 28 59.9930000  0  4G13G15G 6G 2
  19052955.8024  -19733647.67447 -13413345.95661
  22006899.599    -4311354.882 5  -3208987.75521
  18589558.3574  -30561137.00247 -23605630.96162
  19216618.0524   -2131090.67748  -1633971.30763
 91  5 14 22 29 14.9930000  0  4G13G15G 6G 2
  19044016.8644  -19780616.64747 -13449945.09561
  22007162.192    -4309995.517 5  -3207928.53821
  18587679.5754  -30571014.63747 -23613327.81562
  19217515.4504   -2126369.00248  -1630292.08463
 91  5 14 22 29 29.9930000  0  4G13G15G 6G 2
  19035104.1384  -19827460.10547 -13486446.43261
  22007444.6464   -4308502.99745  -3206765.53161
  18585818.7084  -30580787.58147 -23620943.09262
  19218423.5054   -2121604.60948  -1626579.57363
 91  5 14 22 29 44.9930000  0  4G13G15G 6G 2
  19026216.4504  -19874167.53847 -13522841.77361
  22007752.4354   -4306867.16345  -3205490.87961
  18583980.3644  -30590445.42747 -23628468.68762
  19219338.1614   -2116787.32848  -1622825.85463
 91  5 14 22 29 59.9930000  0  4G13G15G 6G 2
  19017352.8104  -19920744.10447 -13559135.14261
  22008090.8494   -4305093.39745  -3204108.73061
  18582165.0524  -30599993.05247 -23635908.39662
  19220265.7084   -2111922.40248  -1619035.01163
 91  5 14 22 30 14.9930000  0  4G13G15G 6G 2
  19008512.6854  -19967197.02047 -13595332.15861
  22008451.4744   -4303189.31645  -3202625.02861
  18580367.4504  -30609438.10247 -23643268.17162
  19221198.2394   -2107017.38848  -1615212.92863
 91  5 14 22 30 29.9930000  0  4G13G15G 6G 2
  18999698.5914  -20013515.79347 -13631424.64861
  22008847.6464   -4301144.59045  -3201031.77361
  18578592.4274  -30618769.76547 -23650539.59962
  19222142.7554   -2102061.97148  -1611351.57263
 91  5 14 22 30 44.9930000  0  4G13G15G 6G 2
  18990910.9034  -20059700.02047 -13667412.30061
  22009258.482    -4298959.224 5  -3199328.89921
  18576838.7474  -30627987.98647 -23657722.62762
  19223094.9584   -2097056.08748  -1607450.89163
 91  5 14 22 30 59.9930000  0  4G13G15G 6G 2
  18982146.7864  -20105757.49647 -13703301.18761
  22009695.7784   -4296641.26545  -3197522.69361
  18575103.4744  -30637100.46647 -23664823.25762
  19224055.2244   -2092007.61348  -1603517.02463
 91  5 14 22 31 14.9930000  0  4G13G15G 6G 2
  18973405.1614  -20151688.80747 -13739091.76261
  22010164.7944   -4294191.34045  -3195613.66561
  18573389.2324  -30646107.78747 -23671841.95162
  19225024.5214   -2086917.30048  -1599550.55263
 91  5 14 22 31 29.9930000  0  4G13G15G 6G 2
  18964687.5754  -20197492.27247 -13774782.71461
  22010659.786    -4291607.923 5  -3193600.64221
  18571695.8254  -30655008.28447 -23678777.40462
  19225999.9664   -2081783.61748  -1595550.28563
 91  5 14 22 31 44.9930000  0  4G13G15G 6G 2
  18955996.5364  -20243168.97247 -13810374.89361
  22011170.974    -4288892.635 5  -3191484.81621
  18570021.2244  -30663803.06447 -23685630.48062
  19226987.3104   -2076607.96648  -1591517.31763
 91  5 14 22 31 59.9930000  0  4G13G15G 6G 2
  18947329.1774  -20288718.44747 -13845867.93361
  22011717.560    -4286045.171 5  -3189266.00521
  18568367.8104  -30672491.62547 -23692400.78862
  19227978.6464   -2071389.96948  -1587451.35463
 91  5 14 22 32 14.9930000  0  4G13G15G 6G 2
  18938684.271   -20334144.313 7 -13881264.65921
  22012281.6694   -4283069.34645  -3186947.19761
  18566735.2784  -30681077.74147 -23699091.26962
  19228978.8644   -2066133.46048  -1583355.38163
 91  5 14 22 32 29.9930000  0  4G13G15G 6G 2
  18930066.872   -20379433.789 7 -13916555.11021
  22012877.974    -4279952.703 5  -3184518.66821
  18565123.3024  -30689548.71247 -23705692.02662
  19229988.4584   -2060826.11448  -1579219.79663
 91  5 14 22 32 44.9930000  0  4G13G15G 6G 2
  18921472.185   -20424594.671 7 -13951745.35321
  22013491.1464   -4276703.58545  -3181986.87161
  18563532.8884  -30697912.49847 -23712209.26862
  19231006.8724   -2055475.87248  -1575050.78163
 91  5 14 22 32 59.9930000  0  4G13G15G 6G 2
  18912904.325   -20469623.719 7 -13986832.86821
  22014138.067    -4273318.970 5  -3179349.52021
  18561960.7004  -30706165.63347 -23718640.27662
  19232034.1924   -2050079.61348  -1570845.91263
 91  5 14 22 33 14.9930000  0  4G13G15G 6G 2
  18904359.685   -20514518.382 7 -14021815.67121
  22014810.060    -4269796.227 5  -3176604.52521
  18560412.2634  -30714305.57647 -23724983.09062
  19233069.9894   -2044634.95848  -1566603.32963
